<?xml version='1.0' encoding='UTF-8'?><gpx version="1.1" creator="JPX - https://github.com/jenetics/jpx" xmlns="http://www.topografix.com/GPX/1/1"><trk><trkseg><trkpt lat="50.69678677090269" lon="3.1615915140985766"><ele>42.0</ele><time>2026-04-17T13:36:43.611Z</time></trkpt><trkpt lat="50.69699900868019" lon="3.161670677612499"><ele>42.0</ele><time>2026-04-17T13:42:25Z</time></trkpt><trkpt lat="50.69701602134622" lon="3.1617771448642693"><ele>42.0</ele><time>2026-04-17T13:42:30Z</time></trkpt><trkpt lat="50.69697531955951" lon="3.1618671656965143"><ele>42.0</ele><time>2026-04-17T13:42:32Z</time></trkpt><trkpt lat="50.69693315205244" lon="3.161978246562525"><ele>42.0</ele><time>2026-04-17T13:42:34Z</time></trkpt><trkpt lat="50.696832649913134" lon="3.162225648776444"><ele>42.0</ele><time>2026-04-17T13:42:38Z</time></trkpt><trkpt lat="50.696788894326446" lon="3.16233081741764"><ele>42.0</ele><time>2026-04-17T13:42:40Z</time></trkpt><trkpt lat="50.696727084926245" lon="3.1624045424759"><ele>42.0</ele><time>2026-04-17T13:42:42.999Z</time></trkpt><trkpt lat="50.69665982989307" lon="3.162393131633343"><ele>42.0</ele><time>2026-04-17T13:42:46.999Z</time></trkpt><trkpt lat="50.696599021659125" lon="3.1623439438771968"><ele>42.0</ele><time>2026-04-17T13:42:48.999Z</time></trkpt><trkpt lat="50.696521239142434" lon="3.1622928384378266"><ele>42.0</ele><time>2026-04-17T13:42:50.999Z</time></trkpt><trkpt lat="50.696428474854336" lon="3.162237611185654"><ele>42.0</ele><time>2026-04-17T13:42:52.999Z</time></trkpt><trkpt lat="50.696326261887485" lon="3.162176086134859"><ele>42.0</ele><time>2026-04-17T13:42:54.999Z</time></trkpt><trkpt lat="50.696110260990665" lon="3.1620703041531164"><ele>42.0</ele><time>2026-04-17T13:42:58.999Z</time></trkpt><trkpt lat="50.69600427354729" lon="3.162013516203773"><ele>42.0</ele><time>2026-04-17T13:43:00.999Z</time></trkpt><trkpt lat="50.695902181040175" lon="3.161953565596909"><ele>41.4</ele><time>2026-04-17T13:43:02.999Z</time></trkpt><trkpt lat="50.69580695629989" lon="3.1618797024395984"><ele>40.800000000000004</ele><time>2026-04-17T13:43:04.999Z</time></trkpt><trkpt lat="50.6957198074465" lon="3.161791256546335"><ele>40.2</ele><time>2026-04-17T13:43:06.999Z</time></trkpt><trkpt lat="50.69562533071509" lon="3.161692010769425"><ele>39.6</ele><time>2026-04-17T13:43:08.999Z</time></trkpt><trkpt lat="50.69553284016729" lon="3.16159119778429"><ele>39.0</ele><time>2026-04-17T13:43:10.999Z</time></trkpt><trkpt lat="50.69543258530193" lon="3.1614808854395875"><ele>39.0</ele><time>2026-04-17T13:43:12.999Z</time></trkpt><trkpt lat="50.695326686761184" lon="3.1613606173501836"><ele>39.0</ele><time>2026-04-17T13:43:14.999Z</time></trkpt><trkpt lat="50.69527241421711" lon="3.161303798814258"><ele>39.0</ele><time>2026-04-17T13:43:15.999Z</time></trkpt><trkpt lat="50.69516339869877" lon="3.161182970515165"><ele>39.0</ele><time>2026-04-17T13:43:17.999Z</time></trkpt><trkpt lat="50.69511209885556" lon="3.1611153674953316"><ele>39.0</ele><time>2026-04-17T13:43:18.999Z</time></trkpt><trkpt lat="50.695060354991504" lon="3.161048867410848"><ele>38.6</ele><time>2026-04-17T13:43:19.999Z</time></trkpt><trkpt lat="50.69501049307588" lon="3.1609862672033286"><ele>38.2</ele><time>2026-04-17T13:43:20.999Z</time></trkpt><trkpt lat="50.694948034623216" lon="3.160931553692477"><ele>37.800000000000004</ele><time>2026-04-17T13:43:21.999Z</time></trkpt><trkpt lat="50.69484331942131" lon="3.1608338713411257"><ele>37.4</ele><time>2026-04-17T13:43:23.999Z</time></trkpt><trkpt lat="50.694759046886375" lon="3.1607184854842263"><ele>37.0</ele><time>2026-04-17T13:43:25.999Z</time></trkpt><trkpt lat="50.69465305524396" lon="3.160629682124857"><ele>37.0</ele><time>2026-04-17T13:43:27.999Z</time></trkpt><trkpt lat="50.69456965252349" lon="3.160509665737519"><ele>37.0</ele><time>2026-04-17T13:43:29.999Z</time></trkpt><trkpt lat="50.69447520454774" lon="3.1604173058729095"><ele>37.0</ele><time>2026-04-17T13:43:31.999Z</time></trkpt><trkpt lat="50.694384109801014" lon="3.160320870264761"><ele>37.0</ele><time>2026-04-17T13:43:33.999Z</time></trkpt><trkpt lat="50.694294893095254" lon="3.1602206366888352"><ele>37.0</ele><time>2026-04-17T13:43:35.999Z</time></trkpt><trkpt lat="50.69420544581829" lon="3.160129076848474"><ele>37.0</ele><time>2026-04-17T13:43:37.999Z</time></trkpt><trkpt lat="50.69401990108235" lon="3.159941702155664"><ele>37.0</ele><time>2026-04-17T13:43:41.999Z</time></trkpt><trkpt lat="50.693933856676196" lon="3.159849555874213"><ele>37.0</ele><time>2026-04-17T13:43:43.999Z</time></trkpt><trkpt lat="50.69387202437595" lon="3.1597706736405144"><ele>37.0</ele><time>2026-04-17T13:43:45.999Z</time></trkpt><trkpt lat="50.693822061167246" lon="3.1596900177697864"><ele>36.800000000000004</ele><time>2026-04-17T13:43:47.999Z</time></trkpt><trkpt lat="50.69375583644596" lon="3.159610903905936"><ele>36.6</ele><time>2026-04-17T13:43:50.998Z</time></trkpt><trkpt lat="50.693714822486214" lon="3.1595241657847333"><ele>36.400000000000006</ele><time>2026-04-17T13:43:54.998Z</time></trkpt><trkpt lat="50.693650010377176" lon="3.159462724097027"><ele>36.2</ele><time>2026-04-17T13:44:02.998Z</time></trkpt><trkpt lat="50.69367065467076" lon="3.159202117018195"><ele>36.0</ele><time>2026-04-17T13:44:07.998Z</time></trkpt><trkpt lat="50.69368237425207" lon="3.1590530526266085"><ele>35.8</ele><time>2026-04-17T13:44:09.998Z</time></trkpt><trkpt lat="50.6937146296141" lon="3.158905837259383"><ele>35.6</ele><time>2026-04-17T13:44:11.998Z</time></trkpt><trkpt lat="50.693732919378796" lon="3.1587393869523375"><ele>35.4</ele><time>2026-04-17T13:44:13.998Z</time></trkpt><trkpt lat="50.693761619047685" lon="3.1585984441227613"><ele>35.2</ele><time>2026-04-17T13:44:15.998Z</time></trkpt><trkpt lat="50.693790574441" lon="3.1584872970950606"><ele>35.0</ele><time>2026-04-17T13:44:17.998Z</time></trkpt><trkpt lat="50.693814614086044" lon="3.158354622424255"><ele>35.0</ele><time>2026-04-17T13:44:19.998Z</time></trkpt><trkpt lat="50.693855526103306" lon="3.1582120805669884"><ele>35.0</ele><time>2026-04-17T13:44:21.999Z</time></trkpt><trkpt lat="50.69389751057882" lon="3.1580606877279758"><ele>35.0</ele><time>2026-04-17T13:44:23.999Z</time></trkpt><trkpt lat="50.693983687120415" lon="3.15772429797443"><ele>35.0</ele><time>2026-04-17T13:44:27.999Z</time></trkpt><trkpt lat="50.694045765142675" lon="3.157586641658628"><ele>35.0</ele><time>2026-04-17T13:44:29.999Z</time></trkpt><trkpt lat="50.694141136068" lon="3.1574745584165123"><ele>35.0</ele><time>2026-04-17T13:44:31.999Z</time></trkpt><trkpt lat="50.694218893527" lon="3.1573324507103755"><ele>35.0</ele><time>2026-04-17T13:44:33.999Z</time></trkpt><trkpt lat="50.694300871976495" lon="3.157185419745833"><ele>35.0</ele><time>2026-04-17T13:44:35.999Z</time></trkpt><trkpt lat="50.69438030418544" lon="3.1570325611117522"><ele>35.0</ele><time>2026-04-17T13:44:37.999Z</time></trkpt><trkpt lat="50.69443012359489" lon="3.1568684759767334"><ele>35.0</ele><time>2026-04-17T13:44:39.999Z</time></trkpt><trkpt lat="50.69448708903139" lon="3.1567087959901547"><ele>35.0</ele><time>2026-04-17T13:44:41.999Z</time></trkpt><trkpt lat="50.69452951289335" lon="3.1565313367653745"><ele>35.0</ele><time>2026-04-17T13:44:43.999Z</time></trkpt><trkpt lat="50.69455308445445" lon="3.1563517075662886"><ele>35.0</ele><time>2026-04-17T13:44:45.999Z</time></trkpt><trkpt lat="50.694578319289725" lon="3.1559909408094935"><ele>35.0</ele><time>2026-04-17T13:44:49.999Z</time></trkpt><trkpt lat="50.69458887727706" lon="3.155839595469222"><ele>35.0</ele><time>2026-04-17T13:44:51.999Z</time></trkpt><trkpt lat="50.69459842524274" lon="3.1556907622239305"><ele>35.0</ele><time>2026-04-17T13:44:53.999Z</time></trkpt><trkpt lat="50.694610497178324" lon="3.155547839552106"><ele>34.83333333333333</ele><time>2026-04-17T13:44:55.999Z</time></trkpt><trkpt lat="50.69461657272888" lon="3.1554107964328066"><ele>34.666666666666664</ele><time>2026-04-17T13:44:57.999Z</time></trkpt><trkpt lat="50.6946282390921" lon="3.155312351907724"><ele>34.5</ele><time>2026-04-17T13:44:59.999Z</time></trkpt><trkpt lat="50.694654265948756" lon="3.155220973501993"><ele>34.333333333333336</ele><time>2026-04-17T13:45:05.999Z</time></trkpt><trkpt lat="50.694664158677206" lon="3.1551119051445906"><ele>34.16666666666667</ele><time>2026-04-17T13:45:10.999Z</time></trkpt><trkpt lat="50.694645452787114" lon="3.1548955664804863"><ele>34.0</ele><time>2026-04-17T13:45:19.999Z</time></trkpt><trkpt lat="50.69463343320702" lon="3.1547961942347"><ele>33.0</ele><time>2026-04-17T13:45:23.999Z</time></trkpt><trkpt lat="50.69461382008205" lon="3.1546848199252264"><ele>33.0</ele><time>2026-04-17T13:45:28.999Z</time></trkpt><trkpt lat="50.69461143225597" lon="3.154580106289793"><ele>33.0</ele><time>2026-04-17T13:45:33.999Z</time></trkpt><trkpt lat="50.69463456856532" lon="3.154357806122599"><ele>33.0</ele><time>2026-04-17T13:45:44.998Z</time></trkpt></trkseg><trkseg><trkpt lat="50.6948776229036" lon="3.1502572867353154"><ele>34.0</ele><time>2026-04-17T13:47:28.999Z</time></trkpt><trkpt lat="50.69488047636508" lon="3.1501479204055176"><ele>34.0</ele><time>2026-04-17T13:47:30.999Z</time></trkpt><trkpt lat="50.69488829169259" lon="3.1500241896553196"><ele>34.0</ele><time>2026-04-17T13:47:32.999Z</time></trkpt><trkpt lat="50.69490469891213" lon="3.1497715788779854"><ele>34.0</ele><time>2026-04-17T13:47:36.999Z</time></trkpt><trkpt lat="50.694911100295776" lon="3.1496288139930155"><ele>34.0</ele><time>2026-04-17T13:47:38.999Z</time></trkpt><trkpt lat="50.69491602903066" lon="3.1494791487505545"><ele>34.0</ele><time>2026-04-17T13:47:40.999Z</time></trkpt><trkpt lat="50.69492221100367" lon="3.1493459334687395"><ele>34.0</ele><time>2026-04-17T13:47:42.999Z</time></trkpt><trkpt lat="50.694936592603256" lon="3.1492290474101714"><ele>34.0</ele><time>2026-04-17T13:47:44.998Z</time></trkpt><trkpt lat="50.69493559492113" lon="3.149102207353262"><ele>34.0</ele><time>2026-04-17T13:47:46.998Z</time></trkpt><trkpt lat="50.69494418845961" lon="3.148967459490904"><ele>34.0</ele><time>2026-04-17T13:47:48.998Z</time></trkpt><trkpt lat="50.69495573553312" lon="3.1488043201000173"><ele>34.0</ele><time>2026-04-17T13:47:50.998Z</time></trkpt><trkpt lat="50.69496199728965" lon="3.148649315040626"><ele>34.0</ele><time>2026-04-17T13:47:52.998Z</time></trkpt><trkpt lat="50.69494905216998" lon="3.148501863022877"><ele>34.0</ele><time>2026-04-17T13:47:54.998Z</time></trkpt><trkpt lat="50.694965344287645" lon="3.148275065672712"><ele>34.0</ele><time>2026-04-17T13:47:58.998Z</time></trkpt><trkpt lat="50.69498331817581" lon="3.148174112191998"><ele>34.0</ele><time>2026-04-17T13:48:00.998Z</time></trkpt><trkpt lat="50.69498524467119" lon="3.1480574646536312"><ele>34.0</ele><time>2026-04-17T13:48:03.998Z</time></trkpt><trkpt lat="50.69500727617623" lon="3.147938858116175"><ele>34.0</ele><time>2026-04-17T13:48:05.998Z</time></trkpt><trkpt lat="50.695019474496085" lon="3.147804404727842"><ele>34.0</ele><time>2026-04-17T13:48:07.998Z</time></trkpt><trkpt lat="50.6950314430501" lon="3.14766098876779"><ele>34.0</ele><time>2026-04-17T13:48:09.998Z</time></trkpt><trkpt lat="50.69504117296587" lon="3.1475265948886784"><ele>34.0</ele><time>2026-04-17T13:48:11.998Z</time></trkpt><trkpt lat="50.695055527736066" lon="3.1473869058642197"><ele>34.0</ele><time>2026-04-17T13:48:13.998Z</time></trkpt><trkpt lat="50.69507418017151" lon="3.147246620741369"><ele>34.0</ele><time>2026-04-17T13:48:15.998Z</time></trkpt><trkpt lat="50.69510181218632" lon="3.146942111714519"><ele>34.4</ele><time>2026-04-17T13:48:19.998Z</time></trkpt><trkpt lat="50.69511340272209" lon="3.1467846687491643"><ele>34.8</ele><time>2026-04-17T13:48:21.998Z</time></trkpt><trkpt lat="50.69512936937858" lon="3.146623153838081"><ele>35.2</ele><time>2026-04-17T13:48:23.998Z</time></trkpt><trkpt lat="50.695145532119" lon="3.1464500228570977"><ele>35.6</ele><time>2026-04-17T13:48:25.998Z</time></trkpt><trkpt lat="50.695164033243266" lon="3.146265738143911"><ele>36.0</ele><time>2026-04-17T13:48:27.998Z</time></trkpt><trkpt lat="50.695177474652496" lon="3.146075001776287"><ele>36.333333333333336</ele><time>2026-04-17T13:48:29.998Z</time></trkpt><trkpt lat="50.695186453786135" lon="3.145974937180237"><ele>36.666666666666664</ele><time>2026-04-17T13:48:30.998Z</time></trkpt><trkpt lat="50.695193994045745" lon="3.1458714712759748"><ele>37.0</ele><time>2026-04-17T13:48:31.998Z</time></trkpt><trkpt lat="50.69521441524935" lon="3.145680163232503"><ele>37.33333333333333</ele><time>2026-04-17T13:48:33.999Z</time></trkpt><trkpt lat="50.695234255939766" lon="3.1455832366188154"><ele>37.666666666666664</ele><time>2026-04-17T13:48:34.999Z</time></trkpt><trkpt lat="50.695285198390096" lon="3.145398490819409"><ele>38.0</ele><time>2026-04-17T13:48:36.999Z</time></trkpt><trkpt lat="50.69540878166648" lon="3.1450623593008897"><ele>38.0</ele><time>2026-04-17T13:48:40.999Z</time></trkpt><trkpt lat="50.69548690243377" lon="3.1449153239405176"><ele>38.0</ele><time>2026-04-17T13:48:42.999Z</time></trkpt><trkpt lat="50.695527876210974" lon="3.1448396801949765"><ele>38.0</ele><time>2026-04-17T13:48:43.999Z</time></trkpt><trkpt lat="50.695603191352845" lon="3.144694223110678"><ele>38.0</ele><time>2026-04-17T13:48:45.999Z</time></trkpt><trkpt lat="50.69568228219436" lon="3.1445554959950255"><ele>38.0</ele><time>2026-04-17T13:48:48Z</time></trkpt><trkpt lat="50.69575369063912" lon="3.1444229874192797"><ele>38.0</ele><time>2026-04-17T13:48:50Z</time></trkpt><trkpt lat="50.695818154349844" lon="3.1442846740146533"><ele>38.0</ele><time>2026-04-17T13:48:52Z</time></trkpt><trkpt lat="50.69586801237881" lon="3.144135250277198"><ele>38.0</ele><time>2026-04-17T13:48:54Z</time></trkpt><trkpt lat="50.69591621114531" lon="3.1439893593061807"><ele>38.0</ele><time>2026-04-17T13:48:56Z</time></trkpt><trkpt lat="50.69596212359268" lon="3.1438405322192886"><ele>38.0</ele><time>2026-04-17T13:48:58Z</time></trkpt><trkpt lat="50.696052037969714" lon="3.143556831869259"><ele>38.0</ele><time>2026-04-17T13:49:02Z</time></trkpt><trkpt lat="50.69610311130789" lon="3.143411740855287"><ele>38.0</ele><time>2026-04-17T13:49:04Z</time></trkpt><trkpt lat="50.69617388208304" lon="3.143285363156274"><ele>38.0</ele><time>2026-04-17T13:49:06Z</time></trkpt><trkpt lat="50.696241749031934" lon="3.1431512722460484"><ele>38.0</ele><time>2026-04-17T13:49:08Z</time></trkpt><trkpt lat="50.696317384988795" lon="3.1430299749849056"><ele>38.0</ele><time>2026-04-17T13:49:10Z</time></trkpt><trkpt lat="50.696387332598306" lon="3.142895316407193"><ele>38.199999999999996</ele><time>2026-04-17T13:49:12Z</time></trkpt><trkpt lat="50.6964532547059" lon="3.142777732509199"><ele>38.4</ele><time>2026-04-17T13:49:14Z</time></trkpt><trkpt lat="50.69651510160844" lon="3.1426451364304255"><ele>38.599999999999994</ele><time>2026-04-17T13:49:16Z</time></trkpt><trkpt lat="50.69657583047697" lon="3.142513606756045"><ele>38.8</ele><time>2026-04-17T13:49:18Z</time></trkpt><trkpt lat="50.696646945044165" lon="3.1424046132326025"><ele>39.0</ele><time>2026-04-17T13:49:20Z</time></trkpt><trkpt lat="50.696781126183815" lon="3.1421781969024294"><ele>39.2</ele><time>2026-04-17T13:49:24Z</time></trkpt><trkpt lat="50.69684322713353" lon="3.142064361705172"><ele>39.4</ele><time>2026-04-17T13:49:26Z</time></trkpt><trkpt lat="50.69691135241517" lon="3.141951685930007"><ele>39.6</ele><time>2026-04-17T13:49:28Z</time></trkpt><trkpt lat="50.6969748496706" lon="3.1418351540191676"><ele>39.8</ele><time>2026-04-17T13:49:30Z</time></trkpt><trkpt lat="50.69702812265637" lon="3.1417067441780535"><ele>40.0</ele><time>2026-04-17T13:49:32Z</time></trkpt><trkpt lat="50.697078747113906" lon="3.14157010901505"><ele>40.6</ele><time>2026-04-17T13:49:34Z</time></trkpt><trkpt lat="50.697111791822735" lon="3.1414199081587437"><ele>41.2</ele><time>2026-04-17T13:49:36Z</time></trkpt><trkpt lat="50.69715689017693" lon="3.1412683447851997"><ele>41.8</ele><time>2026-04-17T13:49:38Z</time></trkpt><trkpt lat="50.69719639055523" lon="3.1411157384692823"><ele>42.4</ele><time>2026-04-17T13:49:40Z</time></trkpt><trkpt lat="50.697237049552626" lon="3.140969435883857"><ele>43.0</ele><time>2026-04-17T13:49:42Z</time></trkpt><trkpt lat="50.697364384885766" lon="3.14071734703473"><ele>43.2</ele><time>2026-04-17T13:49:46Z</time></trkpt><trkpt lat="50.69743159051397" lon="3.140614714243643"><ele>43.4</ele><time>2026-04-17T13:49:48Z</time></trkpt><trkpt lat="50.69750492926937" lon="3.1405301869769717"><ele>43.6</ele><time>2026-04-17T13:49:50Z</time></trkpt><trkpt lat="50.697585047717695" lon="3.140444245366281"><ele>43.800000000000004</ele><time>2026-04-17T13:49:51.999Z</time></trkpt><trkpt lat="50.697675823982244" lon="3.140351545144639"><ele>44.0</ele><time>2026-04-17T13:49:53.999Z</time></trkpt><trkpt lat="50.69776053729156" lon="3.140241159620945"><ele>44.0</ele><time>2026-04-17T13:49:55.999Z</time></trkpt><trkpt lat="50.69784495702687" lon="3.1401381629316694"><ele>44.0</ele><time>2026-04-17T13:49:57.999Z</time></trkpt><trkpt lat="50.69793451357415" lon="3.1400355670835927"><ele>44.0</ele><time>2026-04-17T13:49:59.999Z</time></trkpt><trkpt lat="50.698017053640676" lon="3.1399249090439576"><ele>44.0</ele><time>2026-04-17T13:50:01.999Z</time></trkpt><trkpt lat="50.698102082286184" lon="3.139820916204718"><ele>44.0</ele><time>2026-04-17T13:50:03.999Z</time></trkpt><trkpt lat="50.698264970306894" lon="3.1396233071603374"><ele>44.2</ele><time>2026-04-17T13:50:07.999Z</time></trkpt><trkpt lat="50.69834325990761" lon="3.139525898194999"><ele>44.400000000000006</ele><time>2026-04-17T13:50:09.999Z</time></trkpt><trkpt lat="50.69841984704552" lon="3.139442044464425"><ele>44.6</ele><time>2026-04-17T13:50:11.999Z</time></trkpt><trkpt lat="50.69849540589116" lon="3.139347950513751"><ele>44.8</ele><time>2026-04-17T13:50:13.999Z</time></trkpt><trkpt lat="50.69857324661583" lon="3.1392582279290195"><ele>45.0</ele><time>2026-04-17T13:50:15.999Z</time></trkpt><trkpt lat="50.69865453043406" lon="3.1391705141353228"><ele>45.5</ele><time>2026-04-17T13:50:17.999Z</time></trkpt><trkpt lat="50.698737139779624" lon="3.1390807048179736"><ele>46.0</ele><time>2026-04-17T13:50:19.999Z</time></trkpt><trkpt lat="50.698810833829384" lon="3.1390089259861527"><ele>46.5</ele><time>2026-04-17T13:50:21.999Z</time></trkpt><trkpt lat="50.69892452553789" lon="3.138919399961561"><ele>47.0</ele><time>2026-04-17T13:51:25Z</time></trkpt><trkpt lat="50.69897833756562" lon="3.1388658598470194"><ele>47.5</ele><time>2026-04-17T13:51:27Z</time></trkpt><trkpt lat="50.69903720000696" lon="3.138807508094801"><ele>48.0</ele><time>2026-04-17T13:51:29Z</time></trkpt><trkpt lat="50.69918268553424" lon="3.1386596186253275"><ele>48.0</ele><time>2026-04-17T13:51:33Z</time></trkpt><trkpt lat="50.69927312196604" lon="3.138563849513023"><ele>48.0</ele><time>2026-04-17T13:51:35Z</time></trkpt><trkpt lat="50.699364220144794" lon="3.1384601082681307"><ele>48.0</ele><time>2026-04-17T13:51:37Z</time></trkpt><trkpt lat="50.69945453873242" lon="3.1383566835459504"><ele>48.0</ele><time>2026-04-17T13:51:39Z</time></trkpt><trkpt lat="50.6995393599981" lon="3.1382475859279184"><ele>48.0</ele><time>2026-04-17T13:51:41Z</time></trkpt><trkpt lat="50.699627521005745" lon="3.1381337532968496"><ele>48.599999999999994</ele><time>2026-04-17T13:51:43Z</time></trkpt><trkpt lat="50.69969854483233" lon="3.13801383128324"><ele>49.199999999999996</ele><time>2026-04-17T13:51:45Z</time></trkpt><trkpt lat="50.69976720051021" lon="3.1378696206345302"><ele>49.8</ele><time>2026-04-17T13:51:47Z</time></trkpt><trkpt lat="50.69983687693688" lon="3.137729655454166"><ele>50.4</ele><time>2026-04-17T13:51:49Z</time></trkpt><trkpt lat="50.69990362966152" lon="3.1375772627336596"><ele>51.0</ele><time>2026-04-17T13:51:51Z</time></trkpt><trkpt lat="50.70004317474458" lon="3.137285564067097"><ele>51.0</ele><time>2026-04-17T13:51:55Z</time></trkpt><trkpt lat="50.70011175518056" lon="3.1371303143524245"><ele>51.0</ele><time>2026-04-17T13:51:57Z</time></trkpt><trkpt lat="50.70019417290668" lon="3.136982158534713"><ele>51.0</ele><time>2026-04-17T13:51:58.999Z</time></trkpt><trkpt lat="50.70026969722538" lon="3.136833661150466"><ele>51.0</ele><time>2026-04-17T13:52:00.999Z</time></trkpt><trkpt lat="50.700347222694184" lon="3.1366889910219613"><ele>51.5</ele><time>2026-04-17T13:52:02.999Z</time></trkpt><trkpt lat="50.70042626708624" lon="3.13654562606278"><ele>52.0</ele><time>2026-04-17T13:52:04.999Z</time></trkpt><trkpt lat="50.700507790920874" lon="3.136399321575902"><ele>52.5</ele><time>2026-04-17T13:52:06.999Z</time></trkpt><trkpt lat="50.70059708794377" lon="3.1362641357636414"><ele>53.0</ele><time>2026-04-17T13:52:08.999Z</time></trkpt><trkpt lat="50.70068034655174" lon="3.1361221025343675"><ele>53.0</ele><time>2026-04-17T13:52:10.999Z</time></trkpt><trkpt lat="50.70076021345151" lon="3.1359727104880344"><ele>53.0</ele><time>2026-04-17T13:52:12.999Z</time></trkpt><trkpt lat="50.70092441192892" lon="3.135713425022068"><ele>53.0</ele><time>2026-04-17T13:52:16.999Z</time></trkpt><trkpt lat="50.70100108911313" lon="3.1355845664806092"><ele>53.0</ele><time>2026-04-17T13:52:18.999Z</time></trkpt><trkpt lat="50.70107582220697" lon="3.1354513818684793"><ele>53.0</ele><time>2026-04-17T13:52:20.999Z</time></trkpt><trkpt lat="50.70115806148749" lon="3.1353159223845686"><ele>53.0</ele><time>2026-04-17T13:52:22.999Z</time></trkpt><trkpt lat="50.70124509441621" lon="3.1351767388549066"><ele>53.0</ele><time>2026-04-17T13:52:24.999Z</time></trkpt><trkpt lat="50.70134500396773" lon="3.135076989107157"><ele>52.8</ele><time>2026-04-17T13:52:26.999Z</time></trkpt><trkpt lat="50.701436568161455" lon="3.1349833594082863"><ele>52.599999999999994</ele><time>2026-04-17T13:52:28.999Z</time></trkpt><trkpt lat="50.70151618728949" lon="3.134907577161772"><ele>52.400000000000006</ele><time>2026-04-17T13:52:30.999Z</time></trkpt><trkpt lat="50.70158300710262" lon="3.1348559116421244"><ele>52.2</ele><time>2026-04-17T13:52:32.999Z</time></trkpt><trkpt lat="50.7016560685251" lon="3.13478123538213"><ele>52.0</ele><time>2026-04-17T13:52:35.999Z</time></trkpt><trkpt lat="50.70183232871009" lon="3.134598818114527"><ele>52.0</ele><time>2026-04-17T13:52:39.999Z</time></trkpt><trkpt lat="50.701893831626215" lon="3.134543712367911"><ele>52.0</ele><time>2026-04-17T13:52:40.999Z</time></trkpt><trkpt lat="50.701954832198155" lon="3.134483166970517"><ele>52.0</ele><time>2026-04-17T13:52:41.999Z</time></trkpt><trkpt lat="50.70201458768258" lon="3.1344220274316474"><ele>52.0</ele><time>2026-04-17T13:52:42.999Z</time></trkpt><trkpt lat="50.70207142331401" lon="3.1343555842689446"><ele>52.0</ele><time>2026-04-17T13:52:43.999Z</time></trkpt><trkpt lat="50.702129847882745" lon="3.134291023836823"><ele>52.0</ele><time>2026-04-17T13:52:44.999Z</time></trkpt><trkpt lat="50.70218233203247" lon="3.1342291633378654"><ele>52.0</ele><time>2026-04-17T13:52:46Z</time></trkpt><trkpt lat="50.70224506079733" lon="3.134174590844366"><ele>52.285714285714285</ele><time>2026-04-17T13:52:47Z</time></trkpt><trkpt lat="50.70230790704488" lon="3.1341231254198854"><ele>52.57142857142858</ele><time>2026-04-17T13:52:48Z</time></trkpt><trkpt lat="50.70236215674141" lon="3.134061581108996"><ele>52.85714285714286</ele><time>2026-04-17T13:52:49Z</time></trkpt><trkpt lat="50.70241179541294" lon="3.1339986419644084"><ele>53.14285714285714</ele><time>2026-04-17T13:52:50Z</time></trkpt><trkpt lat="50.70246737697242" lon="3.133934375309228"><ele>53.42857142857143</ele><time>2026-04-17T13:52:51Z</time></trkpt><trkpt lat="50.702516905038074" lon="3.1338705187901184"><ele>53.714285714285715</ele><time>2026-04-17T13:52:52Z</time></trkpt><trkpt lat="50.702566547388926" lon="3.133806095202996"><ele>54.0</ele><time>2026-04-17T13:52:53Z</time></trkpt><trkpt lat="50.7026574759325" lon="3.1336764712942298"><ele>54.0</ele><time>2026-04-17T13:52:55Z</time></trkpt><trkpt lat="50.70273845598025" lon="3.1335381751788676"><ele>54.0</ele><time>2026-04-17T13:52:57Z</time></trkpt><trkpt lat="50.70286718767511" lon="3.1333234396476763"><ele>54.0</ele><time>2026-04-17T13:53:00Z</time></trkpt><trkpt lat="50.70296551637045" lon="3.1331837380712573"><ele>54.0</ele><time>2026-04-17T13:53:02Z</time></trkpt><trkpt lat="50.70302217534191" lon="3.133114821489348"><ele>54.0</ele><time>2026-04-17T13:53:03Z</time></trkpt><trkpt lat="50.70308090583244" lon="3.133040649387046"><ele>54.0</ele><time>2026-04-17T13:53:04Z</time></trkpt><trkpt lat="50.703147330819014" lon="3.1329741953221864"><ele>54.0</ele><time>2026-04-17T13:53:05Z</time></trkpt><trkpt lat="50.70321464362441" lon="3.132902364233479"><ele>54.0</ele><time>2026-04-17T13:53:06Z</time></trkpt><trkpt lat="50.70328148477271" lon="3.132823454367483"><ele>54.0</ele><time>2026-04-17T13:53:07Z</time></trkpt><trkpt lat="50.70335762526675" lon="3.1327472054059813"><ele>54.0</ele><time>2026-04-17T13:53:08Z</time></trkpt><trkpt lat="50.70343226739471" lon="3.1326718161100273"><ele>54.0</ele><time>2026-04-17T13:53:09Z</time></trkpt><trkpt lat="50.70351020013714" lon="3.132592168876337"><ele>54.00000000000001</ele><time>2026-04-17T13:53:10Z</time></trkpt><trkpt lat="50.70358953914715" lon="3.132506003974561"><ele>54.00000000000001</ele><time>2026-04-17T13:53:11Z</time></trkpt><trkpt lat="50.70366967654684" lon="3.1324243881726836"><ele>54.0</ele><time>2026-04-17T13:53:12Z</time></trkpt><trkpt lat="50.703750208386204" lon="3.1323328287655587"><ele>54.0</ele><time>2026-04-17T13:53:13Z</time></trkpt><trkpt lat="50.70383154753841" lon="3.1322517341272165"><ele>53.0</ele><time>2026-04-17T13:53:14Z</time></trkpt><trkpt lat="50.703908559457915" lon="3.1321718647431536"><ele>52.00000000000001</ele><time>2026-04-17T13:53:15Z</time></trkpt><trkpt lat="50.70398772078544" lon="3.1320892534715625"><ele>51.0</ele><time>2026-04-17T13:53:16Z</time></trkpt><trkpt lat="50.704070997181546" lon="3.13201353007806"><ele>50.0</ele><time>2026-04-17T13:53:17Z</time></trkpt><trkpt lat="50.70415026404137" lon="3.1319286198592153"><ele>49.0</ele><time>2026-04-17T13:53:18Z</time></trkpt><trkpt lat="50.704298243800096" lon="3.131770298714601"><ele>48.99999999999999</ele><time>2026-04-17T13:53:20Z</time></trkpt><trkpt lat="50.70436806194882" lon="3.131696817373022"><ele>49.0</ele><time>2026-04-17T13:53:21Z</time></trkpt><trkpt lat="50.70443695249412" lon="3.131627069182555"><ele>49.0</ele><time>2026-04-17T13:53:22Z</time></trkpt><trkpt lat="50.70450261026532" lon="3.1315546245292705"><ele>49.0</ele><time>2026-04-17T13:53:23Z</time></trkpt><trkpt lat="50.70456779654379" lon="3.1314883602205326"><ele>48.99999999999999</ele><time>2026-04-17T13:53:24Z</time></trkpt><trkpt lat="50.704630894993464" lon="3.1314204223603643"><ele>49.0</ele><time>2026-04-17T13:53:25Z</time></trkpt><trkpt lat="50.70469080994405" lon="3.1313595649767096"><ele>49.49999999999999</ele><time>2026-04-17T13:53:26Z</time></trkpt><trkpt lat="50.704747857702294" lon="3.131301961884527"><ele>50.0</ele><time>2026-04-17T13:53:27Z</time></trkpt><trkpt lat="50.704802520344984" lon="3.1312414554227153"><ele>50.5</ele><time>2026-04-17T13:53:28Z</time></trkpt><trkpt lat="50.70485757700797" lon="3.131186456932102"><ele>51.0</ele><time>2026-04-17T13:53:29Z</time></trkpt><trkpt lat="50.704954142628644" lon="3.1310877858470376"><ele>51.49999999999999</ele><time>2026-04-17T13:53:31Z</time></trkpt><trkpt lat="50.705057163701625" lon="3.1310400484892438"><ele>52.0</ele><time>2026-04-17T13:53:33Z</time></trkpt><trkpt lat="50.70514503208874" lon="3.1309609063568447"><ele>52.0</ele><time>2026-04-17T13:53:35Z</time></trkpt><trkpt lat="50.705229856813894" lon="3.130886169737355"><ele>52.0</ele><time>2026-04-17T13:53:37Z</time></trkpt><trkpt lat="50.70531061732794" lon="3.1308007210108224"><ele>52.0</ele><time>2026-04-17T13:53:39Z</time></trkpt><trkpt lat="50.70547993625831" lon="3.130637490109808"><ele>52.0</ele><time>2026-04-17T13:53:43Z</time></trkpt><trkpt lat="50.70556491218384" lon="3.1305530675359785"><ele>52.2</ele><time>2026-04-17T13:53:45Z</time></trkpt><trkpt lat="50.705652148255496" lon="3.1304704179080236"><ele>52.400000000000006</ele><time>2026-04-17T13:53:47Z</time></trkpt><trkpt lat="50.70573528208871" lon="3.1303832535510288"><ele>52.599999999999994</ele><time>2026-04-17T13:53:49Z</time></trkpt><trkpt lat="50.70582622885964" lon="3.1302938521572847"><ele>52.8</ele><time>2026-04-17T13:53:51Z</time></trkpt><trkpt lat="50.70591788753793" lon="3.1302063667410787"><ele>53.0</ele><time>2026-04-17T13:53:53Z</time></trkpt><trkpt lat="50.70601355397333" lon="3.130109175316712"><ele>52.5</ele><time>2026-04-17T13:53:55Z</time></trkpt><trkpt lat="50.706115846006874" lon="3.130007307380389"><ele>52.0</ele><time>2026-04-17T13:53:57Z</time></trkpt><trkpt lat="50.706219844532825" lon="3.129906018032327"><ele>51.5</ele><time>2026-04-17T13:53:59Z</time></trkpt><trkpt lat="50.70627448165749" lon="3.1298522147029284"><ele>51.0</ele><time>2026-04-17T13:54:00Z</time></trkpt><trkpt lat="50.70643422721179" lon="3.1296957387905517"><ele>51.0</ele><time>2026-04-17T13:54:03Z</time></trkpt><trkpt lat="50.706493175135236" lon="3.1296469518631858"><ele>51.0</ele><time>2026-04-17T13:54:04Z</time></trkpt><trkpt lat="50.70660791123607" lon="3.1295619450930006"><ele>51.0</ele><time>2026-04-17T13:54:06Z</time></trkpt><trkpt lat="50.70666516597782" lon="3.1295067978991153"><ele>51.0</ele><time>2026-04-17T13:54:07Z</time></trkpt><trkpt lat="50.70672308012556" lon="3.129454357501256"><ele>51.0</ele><time>2026-04-17T13:54:08Z</time></trkpt><trkpt lat="50.70677891316395" lon="3.129395127047513"><ele>51.0</ele><time>2026-04-17T13:54:09Z</time></trkpt><trkpt lat="50.70683662373066" lon="3.1293385611731708"><ele>51.0</ele><time>2026-04-17T13:54:10Z</time></trkpt><trkpt lat="50.70689358611554" lon="3.1292790391305445"><ele>51.0</ele><time>2026-04-17T13:54:11Z</time></trkpt><trkpt lat="50.70694998298327" lon="3.129219461253106"><ele>51.0</ele><time>2026-04-17T13:54:11.999Z</time></trkpt><trkpt lat="50.707006155797664" lon="3.1291619679964024"><ele>51.0</ele><time>2026-04-17T13:54:12.999Z</time></trkpt><trkpt lat="50.707064600401814" lon="3.1291020785287285"><ele>51.0</ele><time>2026-04-17T13:54:13.999Z</time></trkpt><trkpt lat="50.70712148918388" lon="3.1290421859586917"><ele>51.0</ele><time>2026-04-17T13:54:14.999Z</time></trkpt><trkpt lat="50.707179121843495" lon="3.1289830623218884"><ele>51.0</ele><time>2026-04-17T13:54:15.999Z</time></trkpt><trkpt lat="50.7072360129097" lon="3.1289287814884608"><ele>51.5</ele><time>2026-04-17T13:54:16.999Z</time></trkpt><trkpt lat="50.70729478107414" lon="3.1288743246759045"><ele>52.0</ele><time>2026-04-17T13:54:17.999Z</time></trkpt><trkpt lat="50.707347995197445" lon="3.1288061192229817"><ele>52.5</ele><time>2026-04-17T13:54:18.999Z</time></trkpt><trkpt lat="50.7074009237458" lon="3.1287321948788405"><ele>53.0</ele><time>2026-04-17T13:54:19.999Z</time></trkpt><trkpt lat="50.707458896664065" lon="3.128662306434293"><ele>53.5</ele><time>2026-04-17T13:54:20.999Z</time></trkpt><trkpt lat="50.707576337979475" lon="3.1285462428847612"><ele>54.0</ele><time>2026-04-17T13:54:22.999Z</time></trkpt><trkpt lat="50.70763464038447" lon="3.1284948496395795"><ele>54.0</ele><time>2026-04-17T13:54:23.999Z</time></trkpt><trkpt lat="50.707692619446505" lon="3.128435441002375"><ele>54.0</ele><time>2026-04-17T13:54:24.999Z</time></trkpt><trkpt lat="50.707749948731426" lon="3.128377288192103"><ele>54.0</ele><time>2026-04-17T13:54:25.999Z</time></trkpt><trkpt lat="50.70780773647591" lon="3.1283197495497324"><ele>54.0</ele><time>2026-04-17T13:54:26.999Z</time></trkpt><trkpt lat="50.70786712301999" lon="3.128262113164479"><ele>54.0</ele><time>2026-04-17T13:54:27.999Z</time></trkpt><trkpt lat="50.70792340984518" lon="3.1282058298129627"><ele>54.0</ele><time>2026-04-17T13:54:28.999Z</time></trkpt><trkpt lat="50.70797945826839" lon="3.128151738404211"><ele>54.0</ele><time>2026-04-17T13:54:29.999Z</time></trkpt><trkpt lat="50.70803753746577" lon="3.1281072930364036"><ele>53.5</ele><time>2026-04-17T13:54:30.999Z</time></trkpt><trkpt lat="50.70809494261631" lon="3.128053915568348"><ele>53.0</ele><time>2026-04-17T13:54:31.999Z</time></trkpt><trkpt lat="50.70815023530543" lon="3.1279976316137805"><ele>52.5</ele><time>2026-04-17T13:54:32.999Z</time></trkpt><trkpt lat="50.70820636681699" lon="3.127942254920233"><ele>52.0</ele><time>2026-04-17T13:54:33.999Z</time></trkpt><trkpt lat="50.70826244278533" lon="3.127887909213787"><ele>51.5</ele><time>2026-04-17T13:54:34.999Z</time></trkpt><trkpt lat="50.708318715924136" lon="3.1278357326797597"><ele>51.0</ele><time>2026-04-17T13:54:35.999Z</time></trkpt><trkpt lat="50.708425295156935" lon="3.127745545024115"><ele>51.0</ele><time>2026-04-17T13:54:37.999Z</time></trkpt><trkpt lat="50.7085225606371" lon="3.1276667109059604"><ele>51.0</ele><time>2026-04-17T13:54:39.999Z</time></trkpt><trkpt lat="50.708624385488804" lon="3.127586507218776"><ele>51.0</ele><time>2026-04-17T13:54:41.999Z</time></trkpt><trkpt lat="50.70880441541367" lon="3.1274368212259596"><ele>51.0</ele><time>2026-04-17T13:54:45.999Z</time></trkpt><trkpt lat="50.708887288988976" lon="3.1273609479364435"><ele>50.599999999999994</ele><time>2026-04-17T13:54:47.999Z</time></trkpt><trkpt lat="50.708979618984856" lon="3.1272833901364194"><ele>50.2</ele><time>2026-04-17T13:54:49.999Z</time></trkpt><trkpt lat="50.70907415319933" lon="3.1272095259930115"><ele>49.8</ele><time>2026-04-17T13:54:52Z</time></trkpt><trkpt lat="50.709169450939775" lon="3.1271276584442718"><ele>49.400000000000006</ele><time>2026-04-17T13:54:54Z</time></trkpt><trkpt lat="50.70927503682081" lon="3.12707645610832"><ele>49.0</ele><time>2026-04-17T13:54:56Z</time></trkpt><trkpt lat="50.70935992534613" lon="3.126988552052165"><ele>49.0</ele><time>2026-04-17T13:54:58Z</time></trkpt><trkpt lat="50.70944714225335" lon="3.1269181544260944"><ele>49.0</ele><time>2026-04-17T13:55:00Z</time></trkpt><trkpt lat="50.709547707712495" lon="3.126841843513833"><ele>49.0</ele><time>2026-04-17T13:55:02Z</time></trkpt><trkpt lat="50.70964616334732" lon="3.12677290668566"><ele>49.0</ele><time>2026-04-17T13:55:04Z</time></trkpt><trkpt lat="50.70983994671273" lon="3.1266058128388825"><ele>49.0</ele><time>2026-04-17T13:55:08Z</time></trkpt><trkpt lat="50.709930965693786" lon="3.126514230230388"><ele>49.0</ele><time>2026-04-17T13:55:10Z</time></trkpt><trkpt lat="50.71002169434631" lon="3.1264273257729562"><ele>49.0</ele><time>2026-04-17T13:55:12Z</time></trkpt><trkpt lat="50.71011745688559" lon="3.126337076068496"><ele>49.0</ele><time>2026-04-17T13:55:14Z</time></trkpt><trkpt lat="50.710207231720375" lon="3.126246347877912"><ele>49.0</ele><time>2026-04-17T13:55:16Z</time></trkpt><trkpt lat="50.7102977159638" lon="3.126159763360451"><ele>49.0</ele><time>2026-04-17T13:55:18Z</time></trkpt><trkpt lat="50.71038530074819" lon="3.126079890399799"><ele>49.0</ele><time>2026-04-17T13:55:20Z</time></trkpt><trkpt lat="50.710479710749055" lon="3.126016882783115"><ele>49.0</ele><time>2026-04-17T13:55:22Z</time></trkpt><trkpt lat="50.710571239940805" lon="3.125976414336216"><ele>49.0</ele><time>2026-04-17T13:55:24Z</time></trkpt><trkpt lat="50.71066729757505" lon="3.1259458501733"><ele>49.0</ele><time>2026-04-17T13:55:26Z</time></trkpt><trkpt lat="50.710859937324535" lon="3.126001612946503"><ele>48.99999999999999</ele><time>2026-04-17T13:55:30Z</time></trkpt><trkpt lat="50.71096146169754" lon="3.1260036198242216"><ele>49.0</ele><time>2026-04-17T13:55:33Z</time></trkpt><trkpt lat="50.71100275901606" lon="3.1258977800895322"><ele>49.0</ele><time>2026-04-17T13:55:35Z</time></trkpt><trkpt lat="50.710979418512956" lon="3.125789547087357"><ele>49.0</ele><time>2026-04-17T13:55:37Z</time></trkpt><trkpt lat="50.71096371696713" lon="3.125657937188948"><ele>48.99999999999999</ele><time>2026-04-17T13:55:39Z</time></trkpt><trkpt lat="50.71096007473674" lon="3.125501472731309"><ele>49.0</ele><time>2026-04-17T13:55:41Z</time></trkpt><trkpt lat="50.710988164394266" lon="3.1253461465645365"><ele>49.0</ele><time>2026-04-17T13:55:43Z</time></trkpt><trkpt lat="50.711063772594265" lon="3.125200667598773"><ele>49.0</ele><time>2026-04-17T13:55:45Z</time></trkpt><trkpt lat="50.711158427055494" lon="3.1250656552385374"><ele>49.0</ele><time>2026-04-17T13:55:47Z</time></trkpt><trkpt lat="50.711314558648816" lon="3.1249019392839688"><ele>49.0</ele><time>2026-04-17T13:55:50Z</time></trkpt><trkpt lat="50.71136612667719" lon="3.124840227110728"><ele>49.400000000000006</ele><time>2026-04-17T13:55:51Z</time></trkpt><trkpt lat="50.71141881030652" lon="3.1247829873644486"><ele>49.8</ele><time>2026-04-17T13:55:52Z</time></trkpt><trkpt lat="50.71151919080453" lon="3.1246650067127333"><ele>50.2</ele><time>2026-04-17T13:55:54Z</time></trkpt><trkpt lat="50.711620199184964" lon="3.124558378675267"><ele>50.599999999999994</ele><time>2026-04-17T13:55:56Z</time></trkpt><trkpt lat="50.71171661714732" lon="3.1244550101281434"><ele>51.0</ele><time>2026-04-17T13:55:58Z</time></trkpt><trkpt lat="50.71180746895852" lon="3.1243534982587198"><ele>51.0</ele><time>2026-04-17T13:56:00Z</time></trkpt><trkpt lat="50.71189788001797" lon="3.1242521597883366"><ele>51.0</ele><time>2026-04-17T13:56:02Z</time></trkpt><trkpt lat="50.71198105749181" lon="3.124140949328608"><ele>51.0</ele><time>2026-04-17T13:56:04Z</time></trkpt><trkpt lat="50.71206639717707" lon="3.1240299312733386"><ele>51.0</ele><time>2026-04-17T13:56:06Z</time></trkpt><trkpt lat="50.71214379224179" lon="3.123898484682077"><ele>51.0</ele><time>2026-04-17T13:56:08Z</time></trkpt><trkpt lat="50.71226785440071" lon="3.123682121198658"><ele>51.0</ele><time>2026-04-17T13:56:10.999Z</time></trkpt><trkpt lat="50.712351611375915" lon="3.123539923349088"><ele>51.0</ele><time>2026-04-17T13:56:12.999Z</time></trkpt><trkpt lat="50.712435769574206" lon="3.1233963389161876"><ele>51.0</ele><time>2026-04-17T13:56:14.999Z</time></trkpt><trkpt lat="50.71252258274566" lon="3.1232593203130166"><ele>51.0</ele><time>2026-04-17T13:56:16.999Z</time></trkpt><trkpt lat="50.71256779367764" lon="3.1231899487812766"><ele>51.0</ele><time>2026-04-17T13:56:17.999Z</time></trkpt><trkpt lat="50.71261165554598" lon="3.123117448249488"><ele>50.85714285714286</ele><time>2026-04-17T13:56:18.999Z</time></trkpt><trkpt lat="50.71265714551014" lon="3.1230424185525267"><ele>50.714285714285715</ele><time>2026-04-17T13:56:19.999Z</time></trkpt><trkpt lat="50.71270316957686" lon="3.12296653495379"><ele>50.57142857142857</ele><time>2026-04-17T13:56:20.999Z</time></trkpt><trkpt lat="50.71274965828586" lon="3.1228856542870997"><ele>50.42857142857143</ele><time>2026-04-17T13:56:21.999Z</time></trkpt><trkpt lat="50.71279557318999" lon="3.12280427958291"><ele>50.285714285714285</ele><time>2026-04-17T13:56:22.999Z</time></trkpt><trkpt lat="50.71284467844407" lon="3.122721615338134"><ele>50.142857142857146</ele><time>2026-04-17T13:56:23.999Z</time></trkpt><trkpt lat="50.71289471884382" lon="3.122635374421908"><ele>50.0</ele><time>2026-04-17T13:56:24.999Z</time></trkpt><trkpt lat="50.71294125940287" lon="3.1225457650215187"><ele>49.8</ele><time>2026-04-17T13:56:25.999Z</time></trkpt><trkpt lat="50.71298575188747" lon="3.122453017767565"><ele>49.6</ele><time>2026-04-17T13:56:26.999Z</time></trkpt><trkpt lat="50.713030293828616" lon="3.122352608025813"><ele>49.400000000000006</ele><time>2026-04-17T13:56:27.999Z</time></trkpt><trkpt lat="50.7131367345648" lon="3.122157052964953"><ele>49.2</ele><time>2026-04-17T13:56:29.999Z</time></trkpt><trkpt lat="50.7131844304701" lon="3.122044888956873"><ele>49.0</ele><time>2026-04-17T13:56:30.999Z</time></trkpt><trkpt lat="50.71323645377945" lon="3.121933352645082"><ele>49.2</ele><time>2026-04-17T13:56:31.999Z</time></trkpt><trkpt lat="50.71328925807135" lon="3.1218183194872315"><ele>49.400000000000006</ele><time>2026-04-17T13:56:32.999Z</time></trkpt><trkpt lat="50.713345883472556" lon="3.121702221768798"><ele>49.6</ele><time>2026-04-17T13:56:33.999Z</time></trkpt><trkpt lat="50.71340074607736" lon="3.121583007120658"><ele>49.8</ele><time>2026-04-17T13:56:34.999Z</time></trkpt><trkpt lat="50.71345229482943" lon="3.1214586934190076"><ele>50.0</ele><time>2026-04-17T13:56:35.999Z</time></trkpt><trkpt lat="50.71350757551477" lon="3.121339361771073"><ele>49.4</ele><time>2026-04-17T13:56:36.999Z</time></trkpt><trkpt lat="50.71357221549614" lon="3.121218561276264"><ele>48.8</ele><time>2026-04-17T13:56:37.999Z</time></trkpt><trkpt lat="50.71362712509141" lon="3.121086583720473"><ele>48.2</ele><time>2026-04-17T13:56:38.999Z</time></trkpt><trkpt lat="50.71369151284219" lon="3.1209615496446554"><ele>47.6</ele><time>2026-04-17T13:56:39.999Z</time></trkpt><trkpt lat="50.71375346323639" lon="3.1208318252687683"><ele>47.0</ele><time>2026-04-17T13:56:40.999Z</time></trkpt><trkpt lat="50.7138154592779" lon="3.1207010618409745"><ele>46.8</ele><time>2026-04-17T13:56:41.999Z</time></trkpt><trkpt lat="50.71388371262324" lon="3.120571989930004"><ele>46.6</ele><time>2026-04-17T13:56:42.999Z</time></trkpt><trkpt lat="50.71394508569334" lon="3.1204404340942533"><ele>46.4</ele><time>2026-04-17T13:56:43.999Z</time></trkpt><trkpt lat="50.714006903546256" lon="3.1203079985007647"><ele>46.199999999999996</ele><time>2026-04-17T13:56:44.999Z</time></trkpt><trkpt lat="50.71407198311307" lon="3.120177700042078"><ele>46.0</ele><time>2026-04-17T13:56:45.999Z</time></trkpt><trkpt lat="50.71413009786189" lon="3.120043794165946"><ele>46.0</ele><time>2026-04-17T13:56:46.999Z</time></trkpt><trkpt lat="50.714185782687565" lon="3.1199093116412535"><ele>46.0</ele><time>2026-04-17T13:56:47.999Z</time></trkpt><trkpt lat="50.7142405458842" lon="3.119770594732021"><ele>46.0</ele><time>2026-04-17T13:56:48.999Z</time></trkpt><trkpt lat="50.71435087475138" lon="3.1195215680346027"><ele>46.0</ele><time>2026-04-17T13:56:50.999Z</time></trkpt><trkpt lat="50.714402064121316" lon="3.1193975360172144"><ele>46.16666666666667</ele><time>2026-04-17T13:56:51.999Z</time></trkpt><trkpt lat="50.71444529206962" lon="3.1192683873709917"><ele>46.333333333333336</ele><time>2026-04-17T13:56:52.999Z</time></trkpt><trkpt lat="50.71449113109483" lon="3.1191517714870955"><ele>46.5</ele><time>2026-04-17T13:56:53.999Z</time></trkpt><trkpt lat="50.714532162597564" lon="3.119031339038424"><ele>46.666666666666664</ele><time>2026-04-17T13:56:54.999Z</time></trkpt><trkpt lat="50.71457048970108" lon="3.1189176447856055"><ele>46.83333333333333</ele><time>2026-04-17T13:56:55.999Z</time></trkpt><trkpt lat="50.71460435871841" lon="3.1188081742851566"><ele>47.0</ele><time>2026-04-17T13:56:56.999Z</time></trkpt><trkpt lat="50.714636955915466" lon="3.118703402599931"><ele>47.0</ele><time>2026-04-17T13:56:58Z</time></trkpt><trkpt lat="50.71466643664997" lon="3.1186063900649206"><ele>47.0</ele><time>2026-04-17T13:56:59Z</time></trkpt><trkpt lat="50.71468958810786" lon="3.1185093720571264"><ele>47.0</ele><time>2026-04-17T13:57:00Z</time></trkpt><trkpt lat="50.71472952183613" lon="3.1183338323730587"><ele>47.0</ele><time>2026-04-17T13:57:02Z</time></trkpt><trkpt lat="50.71475993110296" lon="3.11817093019955"><ele>47.0</ele><time>2026-04-17T13:57:04Z</time></trkpt><trkpt lat="50.71480535655838" lon="3.118028584426444"><ele>46.25</ele><time>2026-04-17T13:57:06Z</time></trkpt><trkpt lat="50.71482891437133" lon="3.1178715739329586"><ele>45.5</ele><time>2026-04-17T13:57:08Z</time></trkpt><trkpt lat="50.71487098114229" lon="3.1177132879308314"><ele>44.75</ele><time>2026-04-17T13:57:10Z</time></trkpt><trkpt lat="50.7149538419853" lon="3.1173854075479244"><ele>44.0</ele><time>2026-04-17T13:57:14Z</time></trkpt><trkpt lat="50.71499258203702" lon="3.1172300822751784"><ele>44.0</ele><time>2026-04-17T13:57:16Z</time></trkpt><trkpt lat="50.715026355632766" lon="3.1170728126360525"><ele>44.0</ele><time>2026-04-17T13:57:18Z</time></trkpt><trkpt lat="50.71505654549524" lon="3.116920373034435"><ele>44.0</ele><time>2026-04-17T13:57:20Z</time></trkpt><trkpt lat="50.71508640296443" lon="3.1167659830238543"><ele>44.0</ele><time>2026-04-17T13:57:22Z</time></trkpt><trkpt lat="50.71512059410309" lon="3.116607237419787"><ele>44.0</ele><time>2026-04-17T13:57:24Z</time></trkpt><trkpt lat="50.71515565310233" lon="3.116452362170574"><ele>44.0</ele><time>2026-04-17T13:57:26Z</time></trkpt><trkpt lat="50.71519441340042" lon="3.116285756224395"><ele>44.0</ele><time>2026-04-17T13:57:28Z</time></trkpt><trkpt lat="50.71522609209798" lon="3.116121817598841"><ele>44.0</ele><time>2026-04-17T13:57:30Z</time></trkpt><trkpt lat="50.7152634531444" lon="3.1159635010260134"><ele>44.0</ele><time>2026-04-17T13:57:32Z</time></trkpt><trkpt lat="50.71536821545031" lon="3.115691561839622"><ele>45.0</ele><time>2026-04-17T13:57:36Z</time></trkpt><trkpt lat="50.71541525930084" lon="3.115555452454816"><ele>46.0</ele><time>2026-04-17T13:57:38Z</time></trkpt><trkpt lat="50.715474087909676" lon="3.115434109044845"><ele>47.0</ele><time>2026-04-17T13:57:40Z</time></trkpt><trkpt lat="50.71553567835961" lon="3.1153060784718583"><ele>48.0</ele><time>2026-04-17T13:57:42Z</time></trkpt><trkpt lat="50.71559955057399" lon="3.1151826276404564"><ele>49.0</ele><time>2026-04-17T13:57:44Z</time></trkpt><trkpt lat="50.71566191826986" lon="3.1150687063260407"><ele>49.0</ele><time>2026-04-17T13:57:46Z</time></trkpt><trkpt lat="50.71572700072021" lon="3.114960137283668"><ele>49.0</ele><time>2026-04-17T13:57:48Z</time></trkpt><trkpt lat="50.71580659392405" lon="3.1148648947100095"><ele>49.0</ele><time>2026-04-17T13:57:50Z</time></trkpt><trkpt lat="50.71587423339803" lon="3.114760905788781"><ele>49.0</ele><time>2026-04-17T13:57:52Z</time></trkpt><trkpt lat="50.7159495645449" lon="3.114662816347161"><ele>49.0</ele><time>2026-04-17T13:57:54Z</time></trkpt><trkpt lat="50.71608733728418" lon="3.1144581726537885"><ele>49.400000000000006</ele><time>2026-04-17T13:57:58Z</time></trkpt><trkpt lat="50.71615549835138" lon="3.114352039531738"><ele>49.8</ele><time>2026-04-17T13:58:00Z</time></trkpt><trkpt lat="50.71622525225501" lon="3.1142577764675523"><ele>50.2</ele><time>2026-04-17T13:58:02Z</time></trkpt><trkpt lat="50.71629534347918" lon="3.1141585010969153"><ele>50.599999999999994</ele><time>2026-04-17T13:58:04Z</time></trkpt><trkpt lat="50.716360602789116" lon="3.1140644359729945"><ele>51.0</ele><time>2026-04-17T13:58:06Z</time></trkpt><trkpt lat="50.71641919510816" lon="3.1139676768684694"><ele>51.199999999999996</ele><time>2026-04-17T13:58:08Z</time></trkpt><trkpt lat="50.7164835365074" lon="3.113878809697638"><ele>51.4</ele><time>2026-04-17T13:58:10Z</time></trkpt><trkpt lat="50.71654354631117" lon="3.1137920454958232"><ele>51.6</ele><time>2026-04-17T13:58:12Z</time></trkpt><trkpt lat="50.71661344694837" lon="3.1136942071540474"><ele>51.8</ele><time>2026-04-17T13:58:14Z</time></trkpt><trkpt lat="50.71668470536577" lon="3.113589955316267"><ele>52.0</ele><time>2026-04-17T13:58:16Z</time></trkpt><trkpt lat="50.71681728468518" lon="3.113386072936105"><ele>52.0</ele><time>2026-04-17T13:58:20Z</time></trkpt><trkpt lat="50.7168808467951" lon="3.113290092581977"><ele>52.0</ele><time>2026-04-17T13:58:22Z</time></trkpt><trkpt lat="50.71694783817231" lon="3.113183084974496"><ele>52.0</ele><time>2026-04-17T13:58:24Z</time></trkpt><trkpt lat="50.71701276624142" lon="3.11307849510479"><ele>52.0</ele><time>2026-04-17T13:58:25.999Z</time></trkpt><trkpt lat="50.71708348869898" lon="3.1129711876804667"><ele>52.0</ele><time>2026-04-17T13:58:27.999Z</time></trkpt><trkpt lat="50.71715115941928" lon="3.112863444382576"><ele>52.0</ele><time>2026-04-17T13:58:29.999Z</time></trkpt><trkpt lat="50.71722578595502" lon="3.1127542476821843"><ele>52.0</ele><time>2026-04-17T13:58:31.999Z</time></trkpt><trkpt lat="50.71729002351901" lon="3.112642402100105"><ele>52.0</ele><time>2026-04-17T13:58:33.999Z</time></trkpt><trkpt lat="50.71736332074705" lon="3.1125339368496214"><ele>52.0</ele><time>2026-04-17T13:58:35.999Z</time></trkpt><trkpt lat="50.71743643217594" lon="3.1124194960817397"><ele>52.0</ele><time>2026-04-17T13:58:37.999Z</time></trkpt><trkpt lat="50.71759666036126" lon="3.11218752981058"><ele>52.2</ele><time>2026-04-17T13:58:41.999Z</time></trkpt><trkpt lat="50.717681765474275" lon="3.1120827608106234"><ele>52.400000000000006</ele><time>2026-04-17T13:58:43.999Z</time></trkpt><trkpt lat="50.71776813754213" lon="3.1119904838139916"><ele>52.599999999999994</ele><time>2026-04-17T13:58:45.999Z</time></trkpt><trkpt lat="50.71785391796907" lon="3.1118910303157112"><ele>52.8</ele><time>2026-04-17T13:58:47.999Z</time></trkpt><trkpt lat="50.71793728054608" lon="3.111799188013007"><ele>53.0</ele><time>2026-04-17T13:58:49.999Z</time></trkpt><trkpt lat="50.718021366093815" lon="3.1117031732854596"><ele>53.0</ele><time>2026-04-17T13:58:51.999Z</time></trkpt><trkpt lat="50.718106865250206" lon="3.1115956509618266"><ele>53.0</ele><time>2026-04-17T13:58:53.999Z</time></trkpt><trkpt lat="50.71819038466544" lon="3.1114820930745593"><ele>53.0</ele><time>2026-04-17T13:58:55.999Z</time></trkpt><trkpt lat="50.7182684765734" lon="3.1113599606185467"><ele>53.0</ele><time>2026-04-17T13:58:57.999Z</time></trkpt><trkpt lat="50.718355688222495" lon="3.1112530018517157"><ele>53.0</ele><time>2026-04-17T13:58:59.999Z</time></trkpt><trkpt lat="50.718528572705786" lon="3.1110187532955593"><ele>53.0</ele><time>2026-04-17T13:59:04.001Z</time></trkpt><trkpt lat="50.71861505273006" lon="3.1108972659562286"><ele>53.0</ele><time>2026-04-17T13:59:06.001Z</time></trkpt><trkpt lat="50.71871186325991" lon="3.1107895775820684"><ele>53.0</ele><time>2026-04-17T13:59:08.001Z</time></trkpt><trkpt lat="50.7188101780921" lon="3.110689573589619"><ele>53.0</ele><time>2026-04-17T13:59:10.001Z</time></trkpt><trkpt lat="50.71890409652781" lon="3.1105930545443425"><ele>52.75</ele><time>2026-04-17T13:59:12.001Z</time></trkpt><trkpt lat="50.719003602146294" lon="3.1104962253082604"><ele>52.5</ele><time>2026-04-17T13:59:14.001Z</time></trkpt><trkpt lat="50.71909936713061" lon="3.1104005306635782"><ele>52.25</ele><time>2026-04-17T13:59:16.001Z</time></trkpt><trkpt lat="50.719193043052925" lon="3.110305633606348"><ele>52.0</ele><time>2026-04-17T13:59:18Z</time></trkpt><trkpt lat="50.719289026532074" lon="3.110207303893014"><ele>52.0</ele><time>2026-04-17T13:59:20Z</time></trkpt><trkpt lat="50.719367701412814" lon="3.1100953288876028"><ele>52.0</ele><time>2026-04-17T13:59:22Z</time></trkpt><trkpt lat="50.71950043933115" lon="3.1098664367477786"><ele>52.0</ele><time>2026-04-17T13:59:26Z</time></trkpt><trkpt lat="50.71956010376927" lon="3.1097650194657067"><ele>52.0</ele><time>2026-04-17T13:59:28Z</time></trkpt><trkpt lat="50.71963947690635" lon="3.109706875789822"><ele>51.99999999999999</ele><time>2026-04-17T13:59:30Z</time></trkpt><trkpt lat="50.71972684162832" lon="3.109684705631646"><ele>52.0</ele><time>2026-04-17T13:59:32Z</time></trkpt><trkpt lat="50.719782157342415" lon="3.10960671783311"><ele>52.0</ele><time>2026-04-17T13:59:36Z</time></trkpt><trkpt lat="50.71978764528374" lon="3.1094875034028213"><ele>52.0</ele><time>2026-04-17T13:59:39Z</time></trkpt><trkpt lat="50.719786383967126" lon="3.1093630121075453"><ele>51.99999999999999</ele><time>2026-04-17T13:59:41Z</time></trkpt><trkpt lat="50.71976511135615" lon="3.109247518143005"><ele>52.0</ele><time>2026-04-17T13:59:43Z</time></trkpt><trkpt lat="50.71988496290651" lon="3.109009481630044"><ele>51.83333333333333</ele><time>2026-04-17T13:59:47Z</time></trkpt><trkpt lat="50.71996185691946" lon="3.1088607030394666"><ele>51.666666666666664</ele><time>2026-04-17T13:59:49Z</time></trkpt><trkpt lat="50.71999994124597" lon="3.1087753042769255"><ele>51.5</ele><time>2026-04-17T13:59:50Z</time></trkpt><trkpt lat="50.72003904163683" lon="3.108688679993678"><ele>51.33333333333333</ele><time>2026-04-17T13:59:51Z</time></trkpt><trkpt lat="50.72008031789391" lon="3.108601804361248"><ele>51.166666666666664</ele><time>2026-04-17T13:59:52Z</time></trkpt><trkpt lat="50.72012083041876" lon="3.1085139173376026"><ele>51.0</ele><time>2026-04-17T13:59:53Z</time></trkpt><trkpt lat="50.72016439184537" lon="3.1084326535186597"><ele>51.0</ele><time>2026-04-17T13:59:54Z</time></trkpt><trkpt lat="50.72020675173158" lon="3.1083478912468405"><ele>51.0</ele><time>2026-04-17T13:59:55Z</time></trkpt><trkpt lat="50.72025300206106" lon="3.108260341906153"><ele>51.0</ele><time>2026-04-17T13:59:56Z</time></trkpt><trkpt lat="50.720299505954834" lon="3.108171846481835"><ele>51.0</ele><time>2026-04-17T13:59:57Z</time></trkpt><trkpt lat="50.72034092915813" lon="3.10808046905694"><ele>51.0</ele><time>2026-04-17T13:59:58Z</time></trkpt><trkpt lat="50.720384392606164" lon="3.107982969918681"><ele>51.0</ele><time>2026-04-17T13:59:59Z</time></trkpt><trkpt lat="50.720427693716324" lon="3.1078865148984387"><ele>51.0</ele><time>2026-04-17T14:00:00Z</time></trkpt><trkpt lat="50.72047854245937" lon="3.1077908718108707"><ele>50.4</ele><time>2026-04-17T14:00:01Z</time></trkpt><trkpt lat="50.72052785238827" lon="3.107696550990997"><ele>49.8</ele><time>2026-04-17T14:00:02Z</time></trkpt><trkpt lat="50.72057594290321" lon="3.107596885589758"><ele>49.199999999999996</ele><time>2026-04-17T14:00:03Z</time></trkpt><trkpt lat="50.720624174522705" lon="3.107492923292363"><ele>48.599999999999994</ele><time>2026-04-17T14:00:04Z</time></trkpt><trkpt lat="50.72072689160471" lon="3.107285584931036"><ele>48.0</ele><time>2026-04-17T14:00:06Z</time></trkpt><trkpt lat="50.72078133306959" lon="3.1071770168925847"><ele>47.4</ele><time>2026-04-17T14:00:07Z</time></trkpt><trkpt lat="50.72083782343847" lon="3.1070668338558702"><ele>46.8</ele><time>2026-04-17T14:00:08Z</time></trkpt><trkpt lat="50.720891467213" lon="3.1069569173202836"><ele>46.2</ele><time>2026-04-17T14:00:09Z</time></trkpt><trkpt lat="50.72094700630474" lon="3.1068432579459495"><ele>45.6</ele><time>2026-04-17T14:00:10Z</time></trkpt><trkpt lat="50.72100120921727" lon="3.1067280985912067"><ele>45.0</ele><time>2026-04-17T14:00:11Z</time></trkpt><trkpt lat="50.7210558856637" lon="3.1066097659616227"><ele>44.6</ele><time>2026-04-17T14:00:12Z</time></trkpt><trkpt lat="50.72110988326941" lon="3.1064875259801688"><ele>44.2</ele><time>2026-04-17T14:00:13Z</time></trkpt><trkpt lat="50.721169945880234" lon="3.1063730943384438"><ele>43.8</ele><time>2026-04-17T14:00:14Z</time></trkpt><trkpt lat="50.721227987770476" lon="3.106259857579022"><ele>43.4</ele><time>2026-04-17T14:00:15Z</time></trkpt><trkpt lat="50.721283173828404" lon="3.1061400827865198"><ele>43.0</ele><time>2026-04-17T14:00:16Z</time></trkpt><trkpt lat="50.721341325239024" lon="3.10602683691164"><ele>43.0</ele><time>2026-04-17T14:00:17Z</time></trkpt><trkpt lat="50.72139623294477" lon="3.105911594963557"><ele>43.0</ele><time>2026-04-17T14:00:18Z</time></trkpt><trkpt lat="50.72144940149088" lon="3.1057950338550353"><ele>43.0</ele><time>2026-04-17T14:00:19Z</time></trkpt><trkpt lat="50.721505020336345" lon="3.105681740448352"><ele>43.0</ele><time>2026-04-17T14:00:20Z</time></trkpt><trkpt lat="50.721559623471194" lon="3.105571992999448"><ele>43.0</ele><time>2026-04-17T14:00:21Z</time></trkpt><trkpt lat="50.72161436957085" lon="3.105457731934625"><ele>42.8</ele><time>2026-04-17T14:00:22Z</time></trkpt><trkpt lat="50.721668393848304" lon="3.105346418807912"><ele>42.599999999999994</ele><time>2026-04-17T14:00:23Z</time></trkpt><trkpt lat="50.72172184098053" lon="3.1052349132504915"><ele>42.400000000000006</ele><time>2026-04-17T14:00:24Z</time></trkpt><trkpt lat="50.721775518179726" lon="3.1051238926523492"><ele>42.2</ele><time>2026-04-17T14:00:25Z</time></trkpt><trkpt lat="50.72188733829389" lon="3.1049051146930644"><ele>42.0</ele><time>2026-04-17T14:00:26.999Z</time></trkpt><trkpt lat="50.72194005432991" lon="3.1047930186678463"><ele>41.666666666666664</ele><time>2026-04-17T14:00:27.999Z</time></trkpt><trkpt lat="50.72199165366756" lon="3.1046780846075728"><ele>41.333333333333336</ele><time>2026-04-17T14:00:28.999Z</time></trkpt><trkpt lat="50.72204327255356" lon="3.1045657776979563"><ele>41.0</ele><time>2026-04-17T14:00:29.999Z</time></trkpt><trkpt lat="50.72209519415175" lon="3.1044520163724925"><ele>40.66666666666667</ele><time>2026-04-17T14:00:30.999Z</time></trkpt><trkpt lat="50.722148923207456" lon="3.1043469322030472"><ele>40.333333333333336</ele><time>2026-04-17T14:00:31.999Z</time></trkpt><trkpt lat="50.722206348071076" lon="3.1042411183211436"><ele>40.0</ele><time>2026-04-17T14:00:32.999Z</time></trkpt><trkpt lat="50.72225918141724" lon="3.1041337704612375"><ele>39.66666666666667</ele><time>2026-04-17T14:00:33.999Z</time></trkpt><trkpt lat="50.722310992584866" lon="3.1040244546852542"><ele>39.333333333333336</ele><time>2026-04-17T14:00:34.999Z</time></trkpt><trkpt lat="50.7223629855126" lon="3.103915235620938"><ele>39.0</ele><time>2026-04-17T14:00:35.999Z</time></trkpt><trkpt lat="50.72241795486005" lon="3.103804639757074"><ele>38.666666666666664</ele><time>2026-04-17T14:00:36.999Z</time></trkpt><trkpt lat="50.72247357633151" lon="3.1036973691403773"><ele>38.33333333333333</ele><time>2026-04-17T14:00:37.999Z</time></trkpt><trkpt lat="50.722527060393475" lon="3.103584705383365"><ele>38.0</ele><time>2026-04-17T14:00:38.999Z</time></trkpt><trkpt lat="50.722580535203264" lon="3.1034730485509896"><ele>38.0</ele><time>2026-04-17T14:00:39.999Z</time></trkpt><trkpt lat="50.72263525882387" lon="3.1033611220317128"><ele>38.0</ele><time>2026-04-17T14:00:40.999Z</time></trkpt><trkpt lat="50.72269052171695" lon="3.103247410862407"><ele>38.0</ele><time>2026-04-17T14:00:41.999Z</time></trkpt><trkpt lat="50.722742668997995" lon="3.1031301390341754"><ele>38.0</ele><time>2026-04-17T14:00:42.999Z</time></trkpt><trkpt lat="50.722798205988006" lon="3.1030228360831513"><ele>38.0</ele><time>2026-04-17T14:00:43.999Z</time></trkpt><trkpt lat="50.7228512259892" lon="3.1029121997243525"><ele>38.0</ele><time>2026-04-17T14:00:44.999Z</time></trkpt><trkpt lat="50.72290620584417" lon="3.1028043285951292"><ele>37.8</ele><time>2026-04-17T14:00:45.999Z</time></trkpt><trkpt lat="50.72301553066273" lon="3.1025871821714293"><ele>37.599999999999994</ele><time>2026-04-17T14:00:47.999Z</time></trkpt><trkpt lat="50.72306947467298" lon="3.102479517832519"><ele>37.400000000000006</ele><time>2026-04-17T14:00:48.999Z</time></trkpt><trkpt lat="50.72312160473713" lon="3.1023712261217935"><ele>37.2</ele><time>2026-04-17T14:00:49.999Z</time></trkpt><trkpt lat="50.723172763138386" lon="3.1022594532419"><ele>37.0</ele><time>2026-04-17T14:00:50.999Z</time></trkpt><trkpt lat="50.72322325760493" lon="3.1021460392797264"><ele>36.833333333333336</ele><time>2026-04-17T14:00:51.999Z</time></trkpt><trkpt lat="50.72328044727632" lon="3.1020402980830433"><ele>36.66666666666667</ele><time>2026-04-17T14:00:52.999Z</time></trkpt><trkpt lat="50.72333532498413" lon="3.101938623694013"><ele>36.5</ele><time>2026-04-17T14:00:53.999Z</time></trkpt><trkpt lat="50.72339047499823" lon="3.101838149718312"><ele>36.333333333333336</ele><time>2026-04-17T14:00:54.999Z</time></trkpt><trkpt lat="50.7234494869848" lon="3.1017451992815546"><ele>36.166666666666664</ele><time>2026-04-17T14:00:55.999Z</time></trkpt><trkpt lat="50.723510704013584" lon="3.101652698395001"><ele>36.0</ele><time>2026-04-17T14:00:56.999Z</time></trkpt><trkpt lat="50.72356979894711" lon="3.101557259277185"><ele>35.5</ele><time>2026-04-17T14:00:57.999Z</time></trkpt><trkpt lat="50.72363248307587" lon="3.1014691495386724"><ele>35.0</ele><time>2026-04-17T14:00:58.999Z</time></trkpt><trkpt lat="50.723697520268665" lon="3.101384962763964"><ele>34.5</ele><time>2026-04-17T14:00:59.999Z</time></trkpt><trkpt lat="50.72376662087477" lon="3.1013041594077837"><ele>34.0</ele><time>2026-04-17T14:01:00.999Z</time></trkpt><trkpt lat="50.72383698991873" lon="3.101224139791141"><ele>33.5</ele><time>2026-04-17T14:01:01.999Z</time></trkpt><trkpt lat="50.72390617735457" lon="3.101148771426121"><ele>33.0</ele><time>2026-04-17T14:01:02.999Z</time></trkpt><trkpt lat="50.723976921100295" lon="3.1010737787185843"><ele>33.0</ele><time>2026-04-17T14:01:03.999Z</time></trkpt><trkpt lat="50.724048760687715" lon="3.101004027588368"><ele>33.0</ele><time>2026-04-17T14:01:04.999Z</time></trkpt><trkpt lat="50.72412094082065" lon="3.1009332531027347"><ele>33.0</ele><time>2026-04-17T14:01:05.999Z</time></trkpt><trkpt lat="50.724195824542996" lon="3.1008654130601463"><ele>33.0</ele><time>2026-04-17T14:01:06.999Z</time></trkpt><trkpt lat="50.72435208887374" lon="3.1007417532840296"><ele>33.0</ele><time>2026-04-17T14:01:09Z</time></trkpt><trkpt lat="50.72442952132254" lon="3.1006787455636595"><ele>33.0</ele><time>2026-04-17T14:01:10Z</time></trkpt><trkpt lat="50.72450292263761" lon="3.1006105369065287"><ele>33.0</ele><time>2026-04-17T14:01:11Z</time></trkpt><trkpt lat="50.724572409278856" lon="3.1005390234963937"><ele>33.0</ele><time>2026-04-17T14:01:12Z</time></trkpt><trkpt lat="50.72464386245208" lon="3.100476456035402"><ele>33.0</ele><time>2026-04-17T14:01:13Z</time></trkpt><trkpt lat="50.724715546610206" lon="3.100417050838825"><ele>33.0</ele><time>2026-04-17T14:01:14Z</time></trkpt><trkpt lat="50.724784020269404" lon="3.100353142354147"><ele>33.0</ele><time>2026-04-17T14:01:15Z</time></trkpt><trkpt lat="50.72485120803852" lon="3.100288225736422"><ele>33.0</ele><time>2026-04-17T14:01:16Z</time></trkpt><trkpt lat="50.72491923050075" lon="3.100227581589581"><ele>33.0</ele><time>2026-04-17T14:01:17Z</time></trkpt><trkpt lat="50.72498711057121" lon="3.10017034378702"><ele>33.0</ele><time>2026-04-17T14:01:18Z</time></trkpt><trkpt lat="50.72505096852677" lon="3.100108568986316"><ele>33.0</ele><time>2026-04-17T14:01:19Z</time></trkpt><trkpt lat="50.72511453632327" lon="3.1000480234260404"><ele>33.0</ele><time>2026-04-17T14:01:20Z</time></trkpt><trkpt lat="50.72517594621693" lon="3.099992870685446"><ele>33.0</ele><time>2026-04-17T14:01:21Z</time></trkpt><trkpt lat="50.7252379593011" lon="3.099936977002986"><ele>33.0</ele><time>2026-04-17T14:01:22Z</time></trkpt><trkpt lat="50.725294094798464" lon="3.099881045008043"><ele>33.8</ele><time>2026-04-17T14:01:23Z</time></trkpt><trkpt lat="50.72535074540419" lon="3.099826518490066"><ele>34.599999999999994</ele><time>2026-04-17T14:01:24Z</time></trkpt><trkpt lat="50.72540632799953" lon="3.0997787872813154"><ele>35.400000000000006</ele><time>2026-04-17T14:01:25Z</time></trkpt><trkpt lat="50.725513787680235" lon="3.099679061695667"><ele>36.2</ele><time>2026-04-17T14:01:27Z</time></trkpt><trkpt lat="50.725615740271536" lon="3.0995873426612772"><ele>37.0</ele><time>2026-04-17T14:01:29Z</time></trkpt><trkpt lat="50.72581092054993" lon="3.0993982138845673"><ele>37.0</ele><time>2026-04-17T14:01:33Z</time></trkpt><trkpt lat="50.72590045632404" lon="3.0993122165507634"><ele>37.0</ele><time>2026-04-17T14:01:35Z</time></trkpt><trkpt lat="50.725987373051915" lon="3.0992341872411315"><ele>37.0</ele><time>2026-04-17T14:01:37Z</time></trkpt><trkpt lat="50.726076777497305" lon="3.099139579178436"><ele>37.0</ele><time>2026-04-17T14:01:39Z</time></trkpt><trkpt lat="50.72615510929515" lon="3.099063341290012"><ele>37.0</ele><time>2026-04-17T14:01:41Z</time></trkpt><trkpt lat="50.72623676518816" lon="3.0989821290084416"><ele>36.800000000000004</ele><time>2026-04-17T14:01:43Z</time></trkpt><trkpt lat="50.7263260738607" lon="3.0988886303513983"><ele>36.6</ele><time>2026-04-17T14:01:45Z</time></trkpt><trkpt lat="50.72641856656892" lon="3.098795825702162"><ele>36.400000000000006</ele><time>2026-04-17T14:01:47Z</time></trkpt><trkpt lat="50.726507477647964" lon="3.0986909425655944"><ele>36.2</ele><time>2026-04-17T14:01:49Z</time></trkpt><trkpt lat="50.72659975803587" lon="3.098588850941334"><ele>36.0</ele><time>2026-04-17T14:01:51Z</time></trkpt><trkpt lat="50.726788097964516" lon="3.098369969654206"><ele>35.833333333333336</ele><time>2026-04-17T14:01:55Z</time></trkpt><trkpt lat="50.726882881759536" lon="3.0982506755913386"><ele>35.666666666666664</ele><time>2026-04-17T14:01:57Z</time></trkpt><trkpt lat="50.72693167844015" lon="3.0981877190308227"><ele>35.5</ele><time>2026-04-17T14:01:58Z</time></trkpt><trkpt lat="50.72698441960284" lon="3.098125563443274"><ele>35.33333333333333</ele><time>2026-04-17T14:01:59Z</time></trkpt><trkpt lat="50.727038456884074" lon="3.098061207961813"><ele>35.166666666666664</ele><time>2026-04-17T14:02:00Z</time></trkpt><trkpt lat="50.727091367418666" lon="3.097989697036284"><ele>35.0</ele><time>2026-04-17T14:02:01Z</time></trkpt><trkpt lat="50.727149027928874" lon="3.097918960927331"><ele>35.0</ele><time>2026-04-17T14:02:02Z</time></trkpt><trkpt lat="50.72720339805601" lon="3.0978434412271523"><ele>35.0</ele><time>2026-04-17T14:02:03Z</time></trkpt><trkpt lat="50.72725953928438" lon="3.0977711419145115"><ele>35.0</ele><time>2026-04-17T14:02:04Z</time></trkpt><trkpt lat="50.72731865344487" lon="3.0976939148596476"><ele>35.0</ele><time>2026-04-17T14:02:05Z</time></trkpt><trkpt lat="50.727378429292685" lon="3.0976140114728725"><ele>35.0</ele><time>2026-04-17T14:02:06Z</time></trkpt><trkpt lat="50.727435119500804" lon="3.097531046674806"><ele>35.0</ele><time>2026-04-17T14:02:07Z</time></trkpt><trkpt lat="50.72749058252542" lon="3.0974452782811195"><ele>34.83333333333333</ele><time>2026-04-17T14:02:08Z</time></trkpt><trkpt lat="50.72754448362066" lon="3.097354874328819"><ele>34.666666666666664</ele><time>2026-04-17T14:02:09Z</time></trkpt><trkpt lat="50.72759707786289" lon="3.0972696415375554"><ele>34.5</ele><time>2026-04-17T14:02:10Z</time></trkpt><trkpt lat="50.72765099764697" lon="3.0971889119798757"><ele>34.333333333333336</ele><time>2026-04-17T14:02:11Z</time></trkpt><trkpt lat="50.72769659536949" lon="3.0970950473731156"><ele>34.16666666666667</ele><time>2026-04-17T14:02:12Z</time></trkpt><trkpt lat="50.72779020649177" lon="3.096924556563745"><ele>34.0</ele><time>2026-04-17T14:02:14Z</time></trkpt><trkpt lat="50.727830508609344" lon="3.0968392824229625"><ele>34.4</ele><time>2026-04-17T14:02:15Z</time></trkpt><trkpt lat="50.72787008844791" lon="3.096757372706482"><ele>34.8</ele><time>2026-04-17T14:02:16Z</time></trkpt><trkpt lat="50.72794493799498" lon="3.0966073694579834"><ele>35.2</ele><time>2026-04-17T14:02:18Z</time></trkpt><trkpt lat="50.72800403761226" lon="3.0964626060719738"><ele>35.6</ele><time>2026-04-17T14:02:20Z</time></trkpt><trkpt lat="50.72806506055362" lon="3.0963189703727663"><ele>36.0</ele><time>2026-04-17T14:02:22Z</time></trkpt><trkpt lat="50.728122310790376" lon="3.0961718098393356"><ele>36.0</ele><time>2026-04-17T14:02:24Z</time></trkpt><trkpt lat="50.72818458943901" lon="3.096019220115587"><ele>36.0</ele><time>2026-04-17T14:02:25.999Z</time></trkpt><trkpt lat="50.728241314840936" lon="3.095861629442387"><ele>36.0</ele><time>2026-04-17T14:02:27.999Z</time></trkpt><trkpt lat="50.728304186286294" lon="3.0957122681168867"><ele>36.0</ele><time>2026-04-17T14:02:29.999Z</time></trkpt><trkpt lat="50.728366862451516" lon="3.0955648455132065"><ele>36.0</ele><time>2026-04-17T14:02:31.999Z</time></trkpt><trkpt lat="50.72842485026282" lon="3.095410801464337"><ele>36.0</ele><time>2026-04-17T14:02:33.999Z</time></trkpt><trkpt lat="50.72853095600009" lon="3.0951278956736368"><ele>36.0</ele><time>2026-04-17T14:02:37.999Z</time></trkpt><trkpt lat="50.72858136792764" lon="3.0949941486082335"><ele>36.0</ele><time>2026-04-17T14:02:39.999Z</time></trkpt><trkpt lat="50.72864128175561" lon="3.094862435657741"><ele>36.0</ele><time>2026-04-17T14:02:41.999Z</time></trkpt><trkpt lat="50.728693544667046" lon="3.0947282935744407"><ele>36.0</ele><time>2026-04-17T14:02:43.999Z</time></trkpt><trkpt lat="50.72875376702908" lon="3.0946003087819514"><ele>36.0</ele><time>2026-04-17T14:02:45.999Z</time></trkpt><trkpt lat="50.72881401689687" lon="3.094466187802871"><ele>36.0</ele><time>2026-04-17T14:02:47.999Z</time></trkpt><trkpt lat="50.72887021520373" lon="3.0943517274237813"><ele>36.0</ele><time>2026-04-17T14:02:49.999Z</time></trkpt><trkpt lat="50.72893200071544" lon="3.094230688082358"><ele>36.0</ele><time>2026-04-17T14:02:51.999Z</time></trkpt><trkpt lat="50.72900165184298" lon="3.0941066005759073"><ele>36.0</ele><time>2026-04-17T14:02:53.999Z</time></trkpt><trkpt lat="50.72907583049386" lon="3.0939782100585567"><ele>36.0</ele><time>2026-04-17T14:02:55.999Z</time></trkpt><trkpt lat="50.729238453527195" lon="3.0937354812246687"><ele>36.0</ele><time>2026-04-17T14:02:59.999Z</time></trkpt><trkpt lat="50.729325936427635" lon="3.0936140504535814"><ele>35.75</ele><time>2026-04-17T14:03:01.999Z</time></trkpt><trkpt lat="50.72941733478075" lon="3.0934900098085403"><ele>35.5</ele><time>2026-04-17T14:03:03.999Z</time></trkpt><trkpt lat="50.72951456284882" lon="3.0933715393873986"><ele>35.25</ele><time>2026-04-17T14:03:05.999Z</time></trkpt><trkpt lat="50.72960553949146" lon="3.0932413710141073"><ele>35.0</ele><time>2026-04-17T14:03:07.999Z</time></trkpt><trkpt lat="50.72970082382121" lon="3.0931222761557677"><ele>35.0</ele><time>2026-04-17T14:03:09.999Z</time></trkpt><trkpt lat="50.72979374415322" lon="3.092995377087646"><ele>35.0</ele><time>2026-04-17T14:03:11.999Z</time></trkpt><trkpt lat="50.729888107126996" lon="3.092871017895484"><ele>35.0</ele><time>2026-04-17T14:03:13.999Z</time></trkpt><trkpt lat="50.72997735187747" lon="3.092741699309931"><ele>35.0</ele><time>2026-04-17T14:03:16Z</time></trkpt><trkpt lat="50.7300662076603" lon="3.092625599636196"><ele>35.75</ele><time>2026-04-17T14:03:18Z</time></trkpt><trkpt lat="50.730228882251566" lon="3.0923991668402904"><ele>36.5</ele><time>2026-04-17T14:03:22Z</time></trkpt><trkpt lat="50.73030631957406" lon="3.0922843574186545"><ele>37.25</ele><time>2026-04-17T14:03:24Z</time></trkpt><trkpt lat="50.73039337079209" lon="3.092177893278374"><ele>38.0</ele><time>2026-04-17T14:03:26Z</time></trkpt><trkpt lat="50.73047902965842" lon="3.092060446203353"><ele>38.0</ele><time>2026-04-17T14:03:28Z</time></trkpt><trkpt lat="50.73056499119848" lon="3.091953425810391"><ele>38.0</ele><time>2026-04-17T14:03:30Z</time></trkpt><trkpt lat="50.730659826157314" lon="3.0918469618098015"><ele>38.0</ele><time>2026-04-17T14:03:32Z</time></trkpt><trkpt lat="50.73074385813205" lon="3.0917460601050943"><ele>38.0</ele><time>2026-04-17T14:03:34Z</time></trkpt><trkpt lat="50.73083029623623" lon="3.0916435040954897"><ele>38.0</ele><time>2026-04-17T14:03:36Z</time></trkpt><trkpt lat="50.73091116322775" lon="3.0915490000388157"><ele>38.0</ele><time>2026-04-17T14:03:38Z</time></trkpt><trkpt lat="50.73098806057247" lon="3.091448942575864"><ele>38.0</ele><time>2026-04-17T14:03:40Z</time></trkpt><trkpt lat="50.73111383531659" lon="3.0912770217396535"><ele>38.0</ele><time>2026-04-17T14:03:44Z</time></trkpt><trkpt lat="50.731166117525845" lon="3.0912125219186737"><ele>38.0</ele><time>2026-04-17T14:03:46Z</time></trkpt><trkpt lat="50.73122673616035" lon="3.0911201479180677"><ele>38.0</ele><time>2026-04-17T14:03:49Z</time></trkpt><trkpt lat="50.73128609695717" lon="3.0910461541944825"><ele>38.599999999999994</ele><time>2026-04-17T14:03:51Z</time></trkpt><trkpt lat="50.73135787802285" lon="3.090951417260299"><ele>39.199999999999996</ele><time>2026-04-17T14:03:53Z</time></trkpt><trkpt lat="50.73143392329522" lon="3.090850445597092"><ele>39.8</ele><time>2026-04-17T14:03:55Z</time></trkpt><trkpt lat="50.73150790125316" lon="3.0907458900999276"><ele>40.4</ele><time>2026-04-17T14:03:57Z</time></trkpt><trkpt lat="50.7315891546236" lon="3.09063624011288"><ele>41.0</ele><time>2026-04-17T14:03:59Z</time></trkpt><trkpt lat="50.73166633486914" lon="3.090519251196789"><ele>41.25</ele><time>2026-04-17T14:04:01Z</time></trkpt><trkpt lat="50.73182022917738" lon="3.0902884557635413"><ele>41.5</ele><time>2026-04-17T14:04:05Z</time></trkpt><trkpt lat="50.73189788870359" lon="3.090182286758003"><ele>41.75</ele><time>2026-04-17T14:04:07Z</time></trkpt><trkpt lat="50.73197176871838" lon="3.0900839413223355"><ele>42.0</ele><time>2026-04-17T14:04:09Z</time></trkpt><trkpt lat="50.73204861674446" lon="3.089982321039596"><ele>41.6</ele><time>2026-04-17T14:04:11Z</time></trkpt><trkpt lat="50.732121525290204" lon="3.089883765996466"><ele>41.2</ele><time>2026-04-17T14:04:13Z</time></trkpt><trkpt lat="50.73219084813229" lon="3.0897789880164512"><ele>40.8</ele><time>2026-04-17T14:04:15Z</time></trkpt><trkpt lat="50.73226765984163" lon="3.089676783170546"><ele>40.4</ele><time>2026-04-17T14:04:17Z</time></trkpt><trkpt lat="50.73234101819785" lon="3.0895618921621244"><ele>40.0</ele><time>2026-04-17T14:04:19Z</time></trkpt><trkpt lat="50.73241449711972" lon="3.0894420429003118"><ele>40.0</ele><time>2026-04-17T14:04:21Z</time></trkpt><trkpt lat="50.73249683614822" lon="3.089326856775275"><ele>40.0</ele><time>2026-04-17T14:04:23Z</time></trkpt><trkpt lat="50.732667482498975" lon="3.0890654080227105"><ele>40.0</ele><time>2026-04-17T14:04:27Z</time></trkpt><trkpt lat="50.732711520025696" lon="3.088994101135701"><ele>40.0</ele><time>2026-04-17T14:04:27.999Z</time></trkpt><trkpt lat="50.73275787571034" lon="3.088922329092852"><ele>40.0</ele><time>2026-04-17T14:04:28.999Z</time></trkpt><trkpt lat="50.73280412247972" lon="3.0888544925019836"><ele>40.0</ele><time>2026-04-17T14:04:29.999Z</time></trkpt><trkpt lat="50.73285070282506" lon="3.0887796044582383"><ele>40.0</ele><time>2026-04-17T14:04:30.999Z</time></trkpt><trkpt lat="50.732902202739005" lon="3.0887090589484063"><ele>40.0</ele><time>2026-04-17T14:04:31.999Z</time></trkpt><trkpt lat="50.73295162486822" lon="3.0886368618059628"><ele>40.0</ele><time>2026-04-17T14:04:32.999Z</time></trkpt><trkpt lat="50.73300168756286" lon="3.0885615134999522"><ele>40.0</ele><time>2026-04-17T14:04:33.999Z</time></trkpt><trkpt lat="50.73305650065337" lon="3.0884875431419916"><ele>40.0</ele><time>2026-04-17T14:04:34.999Z</time></trkpt><trkpt lat="50.73311026037639" lon="3.0884171889975742"><ele>40.0</ele><time>2026-04-17T14:04:35.999Z</time></trkpt><trkpt lat="50.73317054913447" lon="3.0883517593529137"><ele>40.0</ele><time>2026-04-17T14:04:36.999Z</time></trkpt><trkpt lat="50.73323032417663" lon="3.088288549711971"><ele>40.0</ele><time>2026-04-17T14:04:37.999Z</time></trkpt><trkpt lat="50.73329314218697" lon="3.088226971633424"><ele>40.0</ele><time>2026-04-17T14:04:38.999Z</time></trkpt><trkpt lat="50.73335469368483" lon="3.0881673870501447"><ele>40.0</ele><time>2026-04-17T14:04:39.999Z</time></trkpt><trkpt lat="50.73341969825213" lon="3.088115698705015"><ele>40.0</ele><time>2026-04-17T14:04:40.999Z</time></trkpt><trkpt lat="50.733485596326176" lon="3.088069175527122"><ele>40.0</ele><time>2026-04-17T14:04:41.999Z</time></trkpt><trkpt lat="50.7335576714641" lon="3.088028250990975"><ele>40.0</ele><time>2026-04-17T14:04:42.999Z</time></trkpt><trkpt lat="50.733624237406886" lon="3.087983150780229"><ele>40.0</ele><time>2026-04-17T14:04:43.999Z</time></trkpt><trkpt lat="50.73375381951493" lon="3.087906272008174"><ele>40.0</ele><time>2026-04-17T14:04:45.999Z</time></trkpt><trkpt lat="50.73382093972183" lon="3.0878761696006802"><ele>40.0</ele><time>2026-04-17T14:04:46.999Z</time></trkpt><trkpt lat="50.73388788286988" lon="3.0878524932828886"><ele>40.0</ele><time>2026-04-17T14:04:47.999Z</time></trkpt><trkpt lat="50.733954849092406" lon="3.087831683033838"><ele>40.0</ele><time>2026-04-17T14:04:48.999Z</time></trkpt><trkpt lat="50.73402184179967" lon="3.0878099729457826"><ele>40.0</ele><time>2026-04-17T14:04:49.999Z</time></trkpt><trkpt lat="50.73408731842107" lon="3.0877917864905133"><ele>40.0</ele><time>2026-04-17T14:04:50.999Z</time></trkpt><trkpt lat="50.73415419807643" lon="3.0877748030155554"><ele>40.0</ele><time>2026-04-17T14:04:51.999Z</time></trkpt><trkpt lat="50.734220678966985" lon="3.0877623733673647"><ele>40.0</ele><time>2026-04-17T14:04:52.999Z</time></trkpt><trkpt lat="50.734285595113995" lon="3.0877489658978052"><ele>40.0</ele><time>2026-04-17T14:04:53.999Z</time></trkpt><trkpt lat="50.73435057821991" lon="3.0877383772224345"><ele>40.0</ele><time>2026-04-17T14:04:54.999Z</time></trkpt><trkpt lat="50.734416346644934" lon="3.087732023934729"><ele>40.0</ele><time>2026-04-17T14:04:55.999Z</time></trkpt><trkpt lat="50.734480705699475" lon="3.087728393209425"><ele>39.8</ele><time>2026-04-17T14:04:56.999Z</time></trkpt><trkpt lat="50.73454571995326" lon="3.0877300234505007"><ele>39.6</ele><time>2026-04-17T14:04:57.999Z</time></trkpt><trkpt lat="50.73467088399438" lon="3.0877326024734213"><ele>39.4</ele><time>2026-04-17T14:04:59.999Z</time></trkpt><trkpt lat="50.7347337133795" lon="3.0877408078394897"><ele>39.2</ele><time>2026-04-17T14:05:00.999Z</time></trkpt><trkpt lat="50.734864957299784" lon="3.087761229067075"><ele>39.0</ele><time>2026-04-17T14:05:02.999Z</time></trkpt><trkpt lat="50.7349986143372" lon="3.087789760594367"><ele>39.0</ele><time>2026-04-17T14:05:04.999Z</time></trkpt><trkpt lat="50.735192859922265" lon="3.0878590626112103"><ele>39.0</ele><time>2026-04-17T14:05:07.999Z</time></trkpt><trkpt lat="50.73525680762341" lon="3.0878838991033533"><ele>39.0</ele><time>2026-04-17T14:05:08.999Z</time></trkpt><trkpt lat="50.73531899364688" lon="3.0879133415308186"><ele>39.0</ele><time>2026-04-17T14:05:09.999Z</time></trkpt><trkpt lat="50.73537992579017" lon="3.087941925095211"><ele>39.0</ele><time>2026-04-17T14:05:10.999Z</time></trkpt><trkpt lat="50.73549782835097" lon="3.0880048193397833"><ele>38.833333333333336</ele><time>2026-04-17T14:05:12.999Z</time></trkpt><trkpt lat="50.73562003769223" lon="3.0880630862572747"><ele>38.666666666666664</ele><time>2026-04-17T14:05:14.999Z</time></trkpt><trkpt lat="50.735683084381925" lon="3.088094016190706"><ele>38.5</ele><time>2026-04-17T14:05:15.999Z</time></trkpt><trkpt lat="50.73574369684738" lon="3.088127933306279"><ele>38.33333333333333</ele><time>2026-04-17T14:05:16.999Z</time></trkpt><trkpt lat="50.73580701457345" lon="3.088154470804163"><ele>38.166666666666664</ele><time>2026-04-17T14:05:17.999Z</time></trkpt><trkpt lat="50.73586961259694" lon="3.088186725654896"><ele>38.0</ele><time>2026-04-17T14:05:18.999Z</time></trkpt><trkpt lat="50.7359321148885" lon="3.0882208596645944"><ele>38.0</ele><time>2026-04-17T14:05:19.999Z</time></trkpt><trkpt lat="50.735996523022145" lon="3.088245738916344"><ele>38.0</ele><time>2026-04-17T14:05:21Z</time></trkpt><trkpt lat="50.73606243941177" lon="3.08827489670658"><ele>38.0</ele><time>2026-04-17T14:05:22Z</time></trkpt><trkpt lat="50.73612602781125" lon="3.088308388255289"><ele>38.0</ele><time>2026-04-17T14:05:23Z</time></trkpt><trkpt lat="50.7361896969802" lon="3.0883387422745336"><ele>38.0</ele><time>2026-04-17T14:05:24Z</time></trkpt><trkpt lat="50.736254773593515" lon="3.0883615753096514"><ele>38.0</ele><time>2026-04-17T14:05:25Z</time></trkpt><trkpt lat="50.73631931866992" lon="3.088389395203157"><ele>38.0</ele><time>2026-04-17T14:05:26Z</time></trkpt><trkpt lat="50.736446187886074" lon="3.0884291134873467"><ele>38.0</ele><time>2026-04-17T14:05:28Z</time></trkpt><trkpt lat="50.736510027078516" lon="3.0884468847305273"><ele>38.0</ele><time>2026-04-17T14:05:29Z</time></trkpt><trkpt lat="50.73657246533099" lon="3.0884667691303336"><ele>38.0</ele><time>2026-04-17T14:05:30Z</time></trkpt><trkpt lat="50.736636873435295" lon="3.0884815350877353"><ele>38.0</ele><time>2026-04-17T14:05:31Z</time></trkpt><trkpt lat="50.73670202044706" lon="3.088495254319765"><ele>38.0</ele><time>2026-04-17T14:05:32Z</time></trkpt><trkpt lat="50.736768037361706" lon="3.0885065763591437"><ele>38.0</ele><time>2026-04-17T14:05:33Z</time></trkpt><trkpt lat="50.736836123308024" lon="3.088512290852322"><ele>38.0</ele><time>2026-04-17T14:05:34Z</time></trkpt><trkpt lat="50.73690417849248" lon="3.0885098802764586"><ele>38.0</ele><time>2026-04-17T14:05:35Z</time></trkpt><trkpt lat="50.73697226334817" lon="3.088510861896122"><ele>38.0</ele><time>2026-04-17T14:05:36Z</time></trkpt><trkpt lat="50.73704425277051" lon="3.0885058914073915"><ele>38.0</ele><time>2026-04-17T14:05:37Z</time></trkpt><trkpt lat="50.737115332042976" lon="3.088501265761097"><ele>38.0</ele><time>2026-04-17T14:05:38Z</time></trkpt><trkpt lat="50.73718641207876" lon="3.088490679637597"><ele>38.0</ele><time>2026-04-17T14:05:39Z</time></trkpt><trkpt lat="50.73725599799069" lon="3.088475307663933"><ele>38.0</ele><time>2026-04-17T14:05:40Z</time></trkpt><trkpt lat="50.7373277882318" lon="3.0884579283906137"><ele>38.0</ele><time>2026-04-17T14:05:41Z</time></trkpt><trkpt lat="50.73739513151417" lon="3.0884333575849725"><ele>38.0</ele><time>2026-04-17T14:05:42Z</time></trkpt><trkpt lat="50.737463413734694" lon="3.088408342363638"><ele>38.0</ele><time>2026-04-17T14:05:43Z</time></trkpt><trkpt lat="50.737528438838844" lon="3.0883788389555207"><ele>38.0</ele><time>2026-04-17T14:05:44Z</time></trkpt><trkpt lat="50.73759703849051" lon="3.0883497353735345"><ele>38.0</ele><time>2026-04-17T14:05:45Z</time></trkpt><trkpt lat="50.737661594047324" lon="3.088321428858544"><ele>38.0</ele><time>2026-04-17T14:05:46Z</time></trkpt><trkpt lat="50.73772474737931" lon="3.0883063785155187"><ele>38.0</ele><time>2026-04-17T14:05:47Z</time></trkpt><trkpt lat="50.7378543903325" lon="3.088250977168464"><ele>38.199999999999996</ele><time>2026-04-17T14:05:49Z</time></trkpt><trkpt lat="50.73796382452933" lon="3.0881590229889424"><ele>38.4</ele><time>2026-04-17T14:05:51Z</time></trkpt><trkpt lat="50.73802062959255" lon="3.088112466620375"><ele>38.599999999999994</ele><time>2026-04-17T14:05:52Z</time></trkpt><trkpt lat="50.73808003684005" lon="3.088063282575822"><ele>38.8</ele><time>2026-04-17T14:05:53Z</time></trkpt><trkpt lat="50.73818540770936" lon="3.0879536150061067"><ele>39.0</ele><time>2026-04-17T14:05:55Z</time></trkpt><trkpt lat="50.73828536056164" lon="3.087839249882572"><ele>39.0</ele><time>2026-04-17T14:05:57Z</time></trkpt><trkpt lat="50.73833576677116" lon="3.087778102172393"><ele>39.0</ele><time>2026-04-17T14:05:58Z</time></trkpt><trkpt lat="50.73837977463926" lon="3.0877063319847124"><ele>39.0</ele><time>2026-04-17T14:05:59Z</time></trkpt><trkpt lat="50.73845544518508" lon="3.0875549395044093"><ele>39.0</ele><time>2026-04-17T14:06:01Z</time></trkpt><trkpt lat="50.738546662374226" lon="3.0874311722481242"><ele>39.0</ele><time>2026-04-17T14:06:03Z</time></trkpt><trkpt lat="50.73862605467545" lon="3.0872975531060374"><ele>39.0</ele><time>2026-04-17T14:06:05Z</time></trkpt><trkpt lat="50.738700116381814" lon="3.087162443819828"><ele>39.0</ele><time>2026-04-17T14:06:07Z</time></trkpt><trkpt lat="50.73876908542781" lon="3.0870238460632593"><ele>39.0</ele><time>2026-04-17T14:06:09Z</time></trkpt><trkpt lat="50.73890133065432" lon="3.0867401209165317"><ele>39.0</ele><time>2026-04-17T14:06:13Z</time></trkpt><trkpt lat="50.73896180283049" lon="3.086598630837091"><ele>39.4</ele><time>2026-04-17T14:06:15Z</time></trkpt><trkpt lat="50.73901741049831" lon="3.0864635471698034"><ele>39.8</ele><time>2026-04-17T14:06:17Z</time></trkpt><trkpt lat="50.739077746484455" lon="3.0863203219332402"><ele>40.199999999999996</ele><time>2026-04-17T14:06:19Z</time></trkpt><trkpt lat="50.73914329829417" lon="3.0861688142088406"><ele>40.599999999999994</ele><time>2026-04-17T14:06:20.999Z</time></trkpt><trkpt lat="50.73920970843485" lon="3.0860148965415264"><ele>41.0</ele><time>2026-04-17T14:06:22.999Z</time></trkpt><trkpt lat="50.7392769239691" lon="3.085857521942093"><ele>41.0</ele><time>2026-04-17T14:06:24.999Z</time></trkpt><trkpt lat="50.73934279886871" lon="3.085697508001399"><ele>41.0</ele><time>2026-04-17T14:06:26.999Z</time></trkpt><trkpt lat="50.739403123721246" lon="3.085548382957911"><ele>41.0</ele><time>2026-04-17T14:06:28.999Z</time></trkpt><trkpt lat="50.73945834973474" lon="3.0854061734372222"><ele>41.0</ele><time>2026-04-17T14:06:30.999Z</time></trkpt><trkpt lat="50.73956650086556" lon="3.085137714404669"><ele>41.199999999999996</ele><time>2026-04-17T14:06:34.999Z</time></trkpt><trkpt lat="50.739622805023195" lon="3.0850056234629393"><ele>41.4</ele><time>2026-04-17T14:06:36.999Z</time></trkpt><trkpt lat="50.73967987409138" lon="3.084869167942807"><ele>41.6</ele><time>2026-04-17T14:06:38.999Z</time></trkpt><trkpt lat="50.73973475807803" lon="3.0847302061815296"><ele>41.8</ele><time>2026-04-17T14:06:40.999Z</time></trkpt><trkpt lat="50.73978599983293" lon="3.0845842354512785"><ele>42.0</ele><time>2026-04-17T14:06:42.999Z</time></trkpt><trkpt lat="50.739851819836474" lon="3.084447099993981"><ele>42.0</ele><time>2026-04-17T14:06:44.999Z</time></trkpt><trkpt lat="50.73991254059259" lon="3.0842954768227284"><ele>42.0</ele><time>2026-04-17T14:06:46.999Z</time></trkpt><trkpt lat="50.73997740318337" lon="3.0841443482033384"><ele>42.0</ele><time>2026-04-17T14:06:48.999Z</time></trkpt><trkpt lat="50.740038009068066" lon="3.084001688228272"><ele>42.0</ele><time>2026-04-17T14:06:50.999Z</time></trkpt><trkpt lat="50.74010324520664" lon="3.083865746973625"><ele>42.0</ele><time>2026-04-17T14:06:52.999Z</time></trkpt><trkpt lat="50.74036670692368" lon="3.0834350969143296"><ele>41.75</ele><time>2026-04-17T14:07:45Z</time></trkpt><trkpt lat="50.74043682857058" lon="3.0833273173584312"><ele>41.5</ele><time>2026-04-17T14:07:47Z</time></trkpt><trkpt lat="50.740522526895106" lon="3.083223772897187"><ele>41.25</ele><time>2026-04-17T14:07:49Z</time></trkpt><trkpt lat="50.740706863656925" lon="3.083006314929102"><ele>41.0</ele><time>2026-04-17T14:07:53Z</time></trkpt><trkpt lat="50.74079810735405" lon="3.0828887060462637"><ele>41.0</ele><time>2026-04-17T14:07:55Z</time></trkpt><trkpt lat="50.740893617758374" lon="3.0827799171151065"><ele>41.0</ele><time>2026-04-17T14:07:57Z</time></trkpt><trkpt lat="50.74098162883077" lon="3.0826719702883136"><ele>41.0</ele><time>2026-04-17T14:07:59Z</time></trkpt><trkpt lat="50.74106870018714" lon="3.0825757924497017"><ele>41.0</ele><time>2026-04-17T14:08:01Z</time></trkpt><trkpt lat="50.741147911898324" lon="3.082480908888839"><ele>41.0</ele><time>2026-04-17T14:08:03Z</time></trkpt><trkpt lat="50.74123836695025" lon="3.082386854061022"><ele>40.8</ele><time>2026-04-17T14:08:05Z</time></trkpt><trkpt lat="50.74133963089129" lon="3.0822852833828245"><ele>40.599999999999994</ele><time>2026-04-17T14:08:07Z</time></trkpt><trkpt lat="50.74145244751326" lon="3.0821984368323547"><ele>40.4</ele><time>2026-04-17T14:08:09Z</time></trkpt><trkpt lat="50.74151105958848" lon="3.0821574389908664"><ele>40.2</ele><time>2026-04-17T14:08:10Z</time></trkpt><trkpt lat="50.74163015978281" lon="3.0820715187286285"><ele>40.0</ele><time>2026-04-17T14:08:12Z</time></trkpt><trkpt lat="50.74175411089092" lon="3.081995826668398"><ele>40.0</ele><time>2026-04-17T14:08:14Z</time></trkpt><trkpt lat="50.74187584607525" lon="3.0819377015563747"><ele>40.0</ele><time>2026-04-17T14:08:16Z</time></trkpt><trkpt lat="50.741990383220106" lon="3.0818784017510166"><ele>40.0</ele><time>2026-04-17T14:08:18Z</time></trkpt><trkpt lat="50.74210483596933" lon="3.081827579815036"><ele>40.0</ele><time>2026-04-17T14:08:20Z</time></trkpt><trkpt lat="50.742170264318446" lon="3.081847296004205"><ele>40.0</ele><time>2026-04-17T14:08:22Z</time></trkpt><trkpt lat="50.74223742550221" lon="3.081931925935204"><ele>39.0</ele><time>2026-04-17T14:08:24Z</time></trkpt><trkpt lat="50.74233765655572" lon="3.081943782208152"><ele>38.0</ele><time>2026-04-17T14:08:26Z</time></trkpt><trkpt lat="50.74241652392967" lon="3.082044915161243"><ele>37.0</ele><time>2026-04-17T14:08:28Z</time></trkpt><trkpt lat="50.742491243548244" lon="3.0820037762461263"><ele>36.0</ele><time>2026-04-17T14:08:30.999Z</time></trkpt><trkpt lat="50.74259332730191" lon="3.0818267122624743"><ele>35.0</ele><time>2026-04-17T14:08:34.999Z</time></trkpt><trkpt lat="50.742646090928325" lon="3.081706402425544"><ele>34.666666666666664</ele><time>2026-04-17T14:08:36.999Z</time></trkpt><trkpt lat="50.74273897288295" lon="3.0816266211817727"><ele>34.33333333333333</ele><time>2026-04-17T14:08:38.999Z</time></trkpt><trkpt lat="50.74285819285243" lon="3.0815920835997463"><ele>34.0</ele><time>2026-04-17T14:08:40.999Z</time></trkpt><trkpt lat="50.74292168415293" lon="3.081584467045968"><ele>33.666666666666664</ele><time>2026-04-17T14:08:41.999Z</time></trkpt><trkpt lat="50.74298842873159" lon="3.0815573614144385"><ele>33.333333333333336</ele><time>2026-04-17T14:08:42.999Z</time></trkpt><trkpt lat="50.74305623622692" lon="3.0815309780490687"><ele>33.0</ele><time>2026-04-17T14:08:43.999Z</time></trkpt><trkpt lat="50.74312681303107" lon="3.0815010622427623"><ele>33.14285714285714</ele><time>2026-04-17T14:08:44.999Z</time></trkpt><trkpt lat="50.74319760386367" lon="3.0814731942542566"><ele>33.285714285714285</ele><time>2026-04-17T14:08:45.999Z</time></trkpt><trkpt lat="50.743268108376476" lon="3.081447179743422"><ele>33.42857142857143</ele><time>2026-04-17T14:08:46.999Z</time></trkpt><trkpt lat="50.74333791977639" lon="3.081421145264946"><ele>33.57142857142857</ele><time>2026-04-17T14:08:47.999Z</time></trkpt><trkpt lat="50.74340799212758" lon="3.081397337932957"><ele>33.714285714285715</ele><time>2026-04-17T14:08:48.999Z</time></trkpt><trkpt lat="50.74347815521669" lon="3.081369081178275"><ele>33.857142857142854</ele><time>2026-04-17T14:08:49.999Z</time></trkpt><trkpt lat="50.74354630784884" lon="3.08134009897317"><ele>34.0</ele><time>2026-04-17T14:08:50.999Z</time></trkpt><trkpt lat="50.743615289495104" lon="3.08131331416926"><ele>34.0</ele><time>2026-04-17T14:08:51.999Z</time></trkpt><trkpt lat="50.74375341819071" lon="3.081259679798008"><ele>34.0</ele><time>2026-04-17T14:08:53.999Z</time></trkpt><trkpt lat="50.743819884247706" lon="3.0812289142602123"><ele>34.0</ele><time>2026-04-17T14:08:54.999Z</time></trkpt><trkpt lat="50.743886914086666" lon="3.0811987742393514"><ele>34.0</ele><time>2026-04-17T14:08:55.999Z</time></trkpt><trkpt lat="50.743951212927854" lon="3.081163460747475"><ele>34.0</ele><time>2026-04-17T14:08:56.999Z</time></trkpt><trkpt lat="50.744015659437366" lon="3.0811249869682866"><ele>34.0</ele><time>2026-04-17T14:08:57.999Z</time></trkpt><trkpt lat="50.74407995263149" lon="3.0810873923342337"><ele>34.0</ele><time>2026-04-17T14:08:58.999Z</time></trkpt><trkpt lat="50.744141555932885" lon="3.081035288411964"><ele>34.0</ele><time>2026-04-17T14:08:59.999Z</time></trkpt><trkpt lat="50.74419830822405" lon="3.080977832853903"><ele>34.0</ele><time>2026-04-17T14:09:00.999Z</time></trkpt><trkpt lat="50.744257276186794" lon="3.080922667596588"><ele>34.0</ele><time>2026-04-17T14:09:01.999Z</time></trkpt><trkpt lat="50.744307470516624" lon="3.0808625262871483"><ele>34.0</ele><time>2026-04-17T14:09:02.999Z</time></trkpt><trkpt lat="50.74436252638597" lon="3.080794794609644"><ele>34.0</ele><time>2026-04-17T14:09:03.999Z</time></trkpt><trkpt lat="50.74445621982385" lon="3.0806566287798285"><ele>33.857142857142854</ele><time>2026-04-17T14:09:05.999Z</time></trkpt><trkpt lat="50.744503243007856" lon="3.080581703004641"><ele>33.714285714285715</ele><time>2026-04-17T14:09:06.999Z</time></trkpt><trkpt lat="50.744545309202046" lon="3.0805035476771185"><ele>33.57142857142857</ele><time>2026-04-17T14:09:07.999Z</time></trkpt><trkpt lat="50.744590672593084" lon="3.0804263261802767"><ele>33.42857142857143</ele><time>2026-04-17T14:09:08.999Z</time></trkpt><trkpt lat="50.744636916528776" lon="3.08035118545302"><ele>33.285714285714285</ele><time>2026-04-17T14:09:09.999Z</time></trkpt><trkpt lat="50.744684737755165" lon="3.0802779898507846"><ele>33.14285714285714</ele><time>2026-04-17T14:09:10.999Z</time></trkpt><trkpt lat="50.744732530652804" lon="3.080206361734006"><ele>33.0</ele><time>2026-04-17T14:09:11.999Z</time></trkpt><trkpt lat="50.744779067254605" lon="3.080133619275984"><ele>33.0</ele><time>2026-04-17T14:09:12.999Z</time></trkpt><trkpt lat="50.744868307347076" lon="3.079980492153082"><ele>33.0</ele><time>2026-04-17T14:09:14.999Z</time></trkpt><trkpt lat="50.744916038228595" lon="3.0799023159602883"><ele>33.0</ele><time>2026-04-17T14:09:15.999Z</time></trkpt><trkpt lat="50.744963843661914" lon="3.079822333086864"><ele>33.0</ele><time>2026-04-17T14:09:16.999Z</time></trkpt><trkpt lat="50.745011722522655" lon="3.0797400703080857"><ele>33.0</ele><time>2026-04-17T14:09:17.999Z</time></trkpt><trkpt lat="50.745058612278044" lon="3.079661440598945"><ele>33.0</ele><time>2026-04-17T14:09:18.999Z</time></trkpt><trkpt lat="50.74510828015968" lon="3.079585905963148"><ele>32.714285714285715</ele><time>2026-04-17T14:09:19.999Z</time></trkpt><trkpt lat="50.74515609171296" lon="3.0795043922737824"><ele>32.42857142857143</ele><time>2026-04-17T14:09:20.999Z</time></trkpt><trkpt lat="50.74520207884472" lon="3.0794236039725815"><ele>32.142857142857146</ele><time>2026-04-17T14:09:21.999Z</time></trkpt><trkpt lat="50.7452491443174" lon="3.0793504349024645"><ele>31.857142857142858</ele><time>2026-04-17T14:09:22.999Z</time></trkpt><trkpt lat="50.74529992586908" lon="3.079283208484668"><ele>31.571428571428577</ele><time>2026-04-17T14:09:23.999Z</time></trkpt><trkpt lat="50.74535285153594" lon="3.079216456819785"><ele>31.28571428571429</ele><time>2026-04-17T14:09:24.999Z</time></trkpt><trkpt lat="50.74540574236796" lon="3.079159184229776"><ele>31.0</ele><time>2026-04-17T14:09:25.999Z</time></trkpt><trkpt lat="50.74546312693235" lon="3.0791022441205"><ele>31.166666666666668</ele><time>2026-04-17T14:09:26.999Z</time></trkpt><trkpt lat="50.745520024640335" lon="3.07904898694517"><ele>31.333333333333336</ele><time>2026-04-17T14:09:27.999Z</time></trkpt><trkpt lat="50.74557953184243" lon="3.078999832090884"><ele>31.5</ele><time>2026-04-17T14:09:28.999Z</time></trkpt><trkpt lat="50.74563815981981" lon="3.078955584067958"><ele>31.666666666666664</ele><time>2026-04-17T14:09:29.999Z</time></trkpt><trkpt lat="50.74569865349145" lon="3.0789165608727815"><ele>31.833333333333332</ele><time>2026-04-17T14:09:30.999Z</time></trkpt><trkpt lat="50.74575956716318" lon="3.078883899592415"><ele>32.0</ele><time>2026-04-17T14:09:32Z</time></trkpt><trkpt lat="50.74587820869759" lon="3.0788176926062123"><ele>32.0</ele><time>2026-04-17T14:09:34Z</time></trkpt><trkpt lat="50.7460032876434" lon="3.078757263892016"><ele>32.0</ele><time>2026-04-17T14:09:36Z</time></trkpt><trkpt lat="50.74611896152445" lon="3.0786897131856046"><ele>32.0</ele><time>2026-04-17T14:09:38Z</time></trkpt><trkpt lat="50.74623736289118" lon="3.078635620701322"><ele>32.0</ele><time>2026-04-17T14:09:40Z</time></trkpt><trkpt lat="50.746353772124245" lon="3.078577382717498"><ele>32.75</ele><time>2026-04-17T14:09:42Z</time></trkpt><trkpt lat="50.74646761563936" lon="3.078516421432383"><ele>33.5</ele><time>2026-04-17T14:09:44Z</time></trkpt><trkpt lat="50.746582230309784" lon="3.0784629725759896"><ele>34.25</ele><time>2026-04-17T14:09:46Z</time></trkpt><trkpt lat="50.74669219003507" lon="3.07840767900712"><ele>35.0</ele><time>2026-04-17T14:09:48Z</time></trkpt><trkpt lat="50.74680518967869" lon="3.078351608064312"><ele>35.5</ele><time>2026-04-17T14:09:50Z</time></trkpt><trkpt lat="50.746918214293245" lon="3.078300500427938"><ele>36.0</ele><time>2026-04-17T14:09:52Z</time></trkpt><trkpt lat="50.74703019672978" lon="3.0782482977381362"><ele>36.5</ele><time>2026-04-17T14:09:54Z</time></trkpt><trkpt lat="50.747139661705184" lon="3.078196240105815"><ele>37.0</ele><time>2026-04-17T14:09:56Z</time></trkpt><trkpt lat="50.74735924287055" lon="3.0780971824057497"><ele>37.5</ele><time>2026-04-17T14:10:00Z</time></trkpt><trkpt lat="50.747473438275534" lon="3.0780548172767848"><ele>38.0</ele><time>2026-04-17T14:10:02Z</time></trkpt><trkpt lat="50.747590128838944" lon="3.078014497429571"><ele>38.5</ele><time>2026-04-17T14:10:04Z</time></trkpt><trkpt lat="50.74770749874469" lon="3.0779769515339455"><ele>39.0</ele><time>2026-04-17T14:10:06Z</time></trkpt><trkpt lat="50.74782772901894" lon="3.0779322430343217"><ele>39.0</ele><time>2026-04-17T14:10:08Z</time></trkpt><trkpt lat="50.74795099569756" lon="3.0778955318231733"><ele>39.0</ele><time>2026-04-17T14:10:10Z</time></trkpt><trkpt lat="50.74807272827295" lon="3.0778516773792974"><ele>39.0</ele><time>2026-04-17T14:10:12Z</time></trkpt><trkpt lat="50.748135457246775" lon="3.0778301033654896"><ele>39.0</ele><time>2026-04-17T14:10:13Z</time></trkpt><trkpt lat="50.748256688060174" lon="3.0777902268916275"><ele>39.0</ele><time>2026-04-17T14:10:15Z</time></trkpt><trkpt lat="50.74837894396803" lon="3.077748990170301"><ele>38.8</ele><time>2026-04-17T14:10:17Z</time></trkpt><trkpt lat="50.74856609764234" lon="3.0776860359136258"><ele>38.599999999999994</ele><time>2026-04-17T14:10:20Z</time></trkpt><trkpt lat="50.74863330805248" lon="3.0776704098251164"><ele>38.4</ele><time>2026-04-17T14:10:21Z</time></trkpt><trkpt lat="50.748755096404636" lon="3.077627484456594"><ele>38.199999999999996</ele><time>2026-04-17T14:10:23Z</time></trkpt><trkpt lat="50.74881832947796" lon="3.0776075383188317"><ele>38.0</ele><time>2026-04-17T14:10:24Z</time></trkpt><trkpt lat="50.74888126799364" lon="3.0775868958686554"><ele>38.0</ele><time>2026-04-17T14:10:25Z</time></trkpt><trkpt lat="50.74900287127174" lon="3.0775522833234437"><ele>38.0</ele><time>2026-04-17T14:10:27Z</time></trkpt><trkpt lat="50.749066803979595" lon="3.0775357886694725"><ele>38.0</ele><time>2026-04-17T14:10:27.999Z</time></trkpt><trkpt lat="50.74918433077832" lon="3.077510020747301"><ele>38.0</ele><time>2026-04-17T14:10:29.999Z</time></trkpt><trkpt lat="50.74930401439895" lon="3.0774859948836926"><ele>38.0</ele><time>2026-04-17T14:10:31.999Z</time></trkpt><trkpt lat="50.74942276882167" lon="3.077463983031764"><ele>38.5</ele><time>2026-04-17T14:10:33.999Z</time></trkpt><trkpt lat="50.74953971356367" lon="3.0774482069087266"><ele>39.0</ele><time>2026-04-17T14:10:35.999Z</time></trkpt><trkpt lat="50.74965141655804" lon="3.0774332543584713"><ele>39.5</ele><time>2026-04-17T14:10:37.999Z</time></trkpt><trkpt lat="50.74986875670097" lon="3.0774072487686106"><ele>40.0</ele><time>2026-04-17T14:10:41.999Z</time></trkpt><trkpt lat="50.74996404227334" lon="3.077399984678943"><ele>40.2</ele><time>2026-04-17T14:10:43.999Z</time></trkpt><trkpt lat="50.75006429438153" lon="3.077400265107373"><ele>40.4</ele><time>2026-04-17T14:10:45.999Z</time></trkpt><trkpt lat="50.750170234318034" lon="3.0773997422066763"><ele>40.599999999999994</ele><time>2026-04-17T14:10:47.999Z</time></trkpt><trkpt lat="50.75027465699143" lon="3.077411938206728"><ele>40.8</ele><time>2026-04-17T14:10:49.999Z</time></trkpt><trkpt lat="50.750383512591284" lon="3.077422179470967"><ele>41.0</ele><time>2026-04-17T14:10:51.999Z</time></trkpt><trkpt lat="50.75049373669187" lon="3.077436033612081"><ele>41.0</ele><time>2026-04-17T14:10:53.999Z</time></trkpt><trkpt lat="50.75059935727503" lon="3.0774429668870393"><ele>41.0</ele><time>2026-04-17T14:10:55.999Z</time></trkpt><trkpt lat="50.750703338768524" lon="3.0774720163936604"><ele>41.0</ele><time>2026-04-17T14:10:57.999Z</time></trkpt><trkpt lat="50.75080819211078" lon="3.0774954241214267"><ele>41.0</ele><time>2026-04-17T14:10:59.999Z</time></trkpt><trkpt lat="50.75101816590314" lon="3.077554664746015"><ele>41.5</ele><time>2026-04-17T14:11:03.999Z</time></trkpt><trkpt lat="50.7511273353743" lon="3.0775881935182334"><ele>42.0</ele><time>2026-04-17T14:11:05.999Z</time></trkpt><trkpt lat="50.75123799791547" lon="3.0776270741871072"><ele>42.5</ele><time>2026-04-17T14:11:07.999Z</time></trkpt><trkpt lat="50.751347592559824" lon="3.077670187906875"><ele>43.0</ele><time>2026-04-17T14:11:09.999Z</time></trkpt><trkpt lat="50.75146140102154" lon="3.0777204932032247"><ele>43.0</ele><time>2026-04-17T14:11:11.999Z</time></trkpt><trkpt lat="50.75152554102796" lon="3.0777434204065117"><ele>43.0</ele><time>2026-04-17T14:11:12.999Z</time></trkpt><trkpt lat="50.75164664704829" lon="3.077795605633186"><ele>43.0</ele><time>2026-04-17T14:11:14.999Z</time></trkpt><trkpt lat="50.75170799255585" lon="3.0778240789120934"><ele>43.0</ele><time>2026-04-17T14:11:15.999Z</time></trkpt><trkpt lat="50.75177123171357" lon="3.077854564803914"><ele>43.0</ele><time>2026-04-17T14:11:16.999Z</time></trkpt><trkpt lat="50.75183891387553" lon="3.07788077879737"><ele>43.0</ele><time>2026-04-17T14:11:17.999Z</time></trkpt><trkpt lat="50.751907032113785" lon="3.0779108110007494"><ele>43.2</ele><time>2026-04-17T14:11:18.999Z</time></trkpt><trkpt lat="50.75197407186417" lon="3.0779424032623623"><ele>43.4</ele><time>2026-04-17T14:11:19.999Z</time></trkpt><trkpt lat="50.75204432744779" lon="3.0779761190249473"><ele>43.6</ele><time>2026-04-17T14:11:20.999Z</time></trkpt><trkpt lat="50.75218624586442" lon="3.078035672285497"><ele>43.800000000000004</ele><time>2026-04-17T14:11:22.999Z</time></trkpt><trkpt lat="50.75226069508013" lon="3.0780670902346166"><ele>44.0</ele><time>2026-04-17T14:11:23.999Z</time></trkpt><trkpt lat="50.75233947198355" lon="3.0781052286980555"><ele>44.0</ele><time>2026-04-17T14:11:24.999Z</time></trkpt><trkpt lat="50.752420430683564" lon="3.078138748936828"><ele>44.0</ele><time>2026-04-17T14:11:25.999Z</time></trkpt><trkpt lat="50.752501206641725" lon="3.0781722869681603"><ele>44.0</ele><time>2026-04-17T14:11:26.999Z</time></trkpt><trkpt lat="50.75258167304218" lon="3.078209469013452"><ele>44.0</ele><time>2026-04-17T14:11:27.999Z</time></trkpt><trkpt lat="50.75266263595264" lon="3.078244958849121"><ele>44.0</ele><time>2026-04-17T14:11:28.999Z</time></trkpt><trkpt lat="50.75274848376669" lon="3.078281588368096"><ele>44.0</ele><time>2026-04-17T14:11:29.999Z</time></trkpt><trkpt lat="50.752834190352665" lon="3.07831569017425"><ele>43.0</ele><time>2026-04-17T14:11:30.999Z</time></trkpt><trkpt lat="50.75292025223156" lon="3.078351390266261"><ele>42.0</ele><time>2026-04-17T14:11:31.999Z</time></trkpt><trkpt lat="50.75300824846261" lon="3.0783893462220804"><ele>41.0</ele><time>2026-04-17T14:11:32.999Z</time></trkpt><trkpt lat="50.75309719894768" lon="3.078427863072297"><ele>40.0</ele><time>2026-04-17T14:11:33.999Z</time></trkpt><trkpt lat="50.753186885997835" lon="3.07846586003758"><ele>39.0</ele><time>2026-04-17T14:11:34.999Z</time></trkpt><trkpt lat="50.753275695274276" lon="3.0785054223998016"><ele>39.0</ele><time>2026-04-17T14:11:35.999Z</time></trkpt><trkpt lat="50.75336655239829" lon="3.0785444392683123"><ele>39.0</ele><time>2026-04-17T14:11:36.999Z</time></trkpt><trkpt lat="50.75345686292846" lon="3.0785833899810884"><ele>39.0</ele><time>2026-04-17T14:11:38Z</time></trkpt><trkpt lat="50.75354720706753" lon="3.078623761131313"><ele>39.0</ele><time>2026-04-17T14:11:39Z</time></trkpt><trkpt lat="50.75363909173311" lon="3.078659666746976"><ele>39.0</ele><time>2026-04-17T14:11:40Z</time></trkpt><trkpt lat="50.75373369128782" lon="3.0786999994639674"><ele>38.75</ele><time>2026-04-17T14:11:41Z</time></trkpt><trkpt lat="50.75382114654661" lon="3.0787384255133783"><ele>38.5</ele><time>2026-04-17T14:11:42Z</time></trkpt><trkpt lat="50.75400157945337" lon="3.0788096926157786"><ele>38.25</ele><time>2026-04-17T14:11:44Z</time></trkpt><trkpt lat="50.75409189484913" lon="3.0788437105155135"><ele>38.0</ele><time>2026-04-17T14:11:45Z</time></trkpt><trkpt lat="50.7541794715516" lon="3.07887244251377"><ele>38.0</ele><time>2026-04-17T14:11:46Z</time></trkpt><trkpt lat="50.75426939230812" lon="3.0788957250720372"><ele>38.0</ele><time>2026-04-17T14:11:47Z</time></trkpt><trkpt lat="50.754357096011574" lon="3.078913619453089"><ele>38.0</ele><time>2026-04-17T14:11:48Z</time></trkpt><trkpt lat="50.75444200102603" lon="3.078936098616526"><ele>38.0</ele><time>2026-04-17T14:11:49Z</time></trkpt><trkpt lat="50.75453095937462" lon="3.0789499519501344"><ele>38.0</ele><time>2026-04-17T14:11:50Z</time></trkpt><trkpt lat="50.75461651327255" lon="3.0789550982907015"><ele>38.0</ele><time>2026-04-17T14:11:51Z</time></trkpt><trkpt lat="50.754700744318534" lon="3.0789508534743795"><ele>37.5</ele><time>2026-04-17T14:11:52Z</time></trkpt><trkpt lat="50.754787009549716" lon="3.078950644504387"><ele>37.0</ele><time>2026-04-17T14:11:53Z</time></trkpt><trkpt lat="50.75487294088115" lon="3.078951021359721"><ele>36.5</ele><time>2026-04-17T14:11:54Z</time></trkpt><trkpt lat="50.754958704247194" lon="3.0789427385792862"><ele>36.0</ele><time>2026-04-17T14:11:55Z</time></trkpt><trkpt lat="50.7550453888888" lon="3.0789318322171186"><ele>35.5</ele><time>2026-04-17T14:11:56Z</time></trkpt><trkpt lat="50.75513074996891" lon="3.0789143557837"><ele>35.0</ele><time>2026-04-17T14:11:57Z</time></trkpt><trkpt lat="50.75521854173765" lon="3.0788999955240794"><ele>34.83333333333333</ele><time>2026-04-17T14:11:58Z</time></trkpt><trkpt lat="50.7553017034726" lon="3.078883793360132"><ele>34.666666666666664</ele><time>2026-04-17T14:11:59Z</time></trkpt><trkpt lat="50.75538515341981" lon="3.078868568346973"><ele>34.5</ele><time>2026-04-17T14:12:00Z</time></trkpt><trkpt lat="50.75546699589217" lon="3.078843528930109"><ele>34.333333333333336</ele><time>2026-04-17T14:12:01Z</time></trkpt><trkpt lat="50.75555285742363" lon="3.0788261715744882"><ele>34.16666666666667</ele><time>2026-04-17T14:12:02Z</time></trkpt><trkpt lat="50.75563437710077" lon="3.078810033107339"><ele>34.0</ele><time>2026-04-17T14:12:03Z</time></trkpt><trkpt lat="50.75579268735208" lon="3.0787636628939357"><ele>34.0</ele><time>2026-04-17T14:12:05Z</time></trkpt><trkpt lat="50.755871450459075" lon="3.0787355906030305"><ele>34.0</ele><time>2026-04-17T14:12:06Z</time></trkpt><trkpt lat="50.75594829846749" lon="3.078711487546932"><ele>34.0</ele><time>2026-04-17T14:12:07Z</time></trkpt><trkpt lat="50.75602468874474" lon="3.078684228532601"><ele>34.0</ele><time>2026-04-17T14:12:08Z</time></trkpt><trkpt lat="50.75609803449946" lon="3.078654580175182"><ele>34.0</ele><time>2026-04-17T14:12:09Z</time></trkpt><trkpt lat="50.75617143213451" lon="3.0786185123213836"><ele>34.0</ele><time>2026-04-17T14:12:10Z</time></trkpt><trkpt lat="50.756239756313775" lon="3.0785798294091262"><ele>33.857142857142854</ele><time>2026-04-17T14:12:11Z</time></trkpt><trkpt lat="50.75630897044334" lon="3.078542104290089"><ele>33.714285714285715</ele><time>2026-04-17T14:12:12Z</time></trkpt><trkpt lat="50.756377605133856" lon="3.0785040125220853"><ele>33.57142857142857</ele><time>2026-04-17T14:12:13Z</time></trkpt><trkpt lat="50.756446376382776" lon="3.0784660964665234"><ele>33.42857142857143</ele><time>2026-04-17T14:12:14Z</time></trkpt><trkpt lat="50.75651551310992" lon="3.078422804159671"><ele>33.285714285714285</ele><time>2026-04-17T14:12:15Z</time></trkpt><trkpt lat="50.756583727112336" lon="3.078378847177928"><ele>33.14285714285714</ele><time>2026-04-17T14:12:16Z</time></trkpt><trkpt lat="50.756649648300446" lon="3.078334008137674"><ele>33.0</ele><time>2026-04-17T14:12:17Z</time></trkpt><trkpt lat="50.75671673412469" lon="3.078290803144117"><ele>33.285714285714285</ele><time>2026-04-17T14:12:18Z</time></trkpt><trkpt lat="50.75678276625914" lon="3.078245354044183"><ele>33.57142857142857</ele><time>2026-04-17T14:12:19Z</time></trkpt><trkpt lat="50.75684796119189" lon="3.078198101817402"><ele>33.85714285714286</ele><time>2026-04-17T14:12:20Z</time></trkpt><trkpt lat="50.756912743003745" lon="3.0781570531556977"><ele>34.14285714285714</ele><time>2026-04-17T14:12:21Z</time></trkpt><trkpt lat="50.756977074694554" lon="3.078113623052939"><ele>34.42857142857143</ele><time>2026-04-17T14:12:22Z</time></trkpt><trkpt lat="50.757045861703745" lon="3.0780704631564406"><ele>34.714285714285715</ele><time>2026-04-17T14:12:22.999Z</time></trkpt><trkpt lat="50.75711014789721" lon="3.078031170995584"><ele>35.0</ele><time>2026-04-17T14:12:23.999Z</time></trkpt><trkpt lat="50.757240025882545" lon="3.077948703500755"><ele>35.0</ele><time>2026-04-17T14:12:25.999Z</time></trkpt><trkpt lat="50.757300455714365" lon="3.077910492770382"><ele>35.0</ele><time>2026-04-17T14:12:26.999Z</time></trkpt><trkpt lat="50.757366912115316" lon="3.0778773850869268"><ele>35.0</ele><time>2026-04-17T14:12:27.999Z</time></trkpt><trkpt lat="50.757428105179685" lon="3.0778455251234296"><ele>35.0</ele><time>2026-04-17T14:12:28.999Z</time></trkpt><trkpt lat="50.75748914614648" lon="3.0778123235051535"><ele>35.0</ele><time>2026-04-17T14:12:29.999Z</time></trkpt><trkpt lat="50.75755057230461" lon="3.077784497789863"><ele>35.0</ele><time>2026-04-17T14:12:30.999Z</time></trkpt><trkpt lat="50.75761317912676" lon="3.0777586075163987"><ele>35.0</ele><time>2026-04-17T14:12:31.999Z</time></trkpt><trkpt lat="50.75767644087562" lon="3.0777305078253216"><ele>34.83333333333333</ele><time>2026-04-17T14:12:32.999Z</time></trkpt><trkpt lat="50.757738392636" lon="3.0777106394266505"><ele>34.666666666666664</ele><time>2026-04-17T14:12:33.999Z</time></trkpt><trkpt lat="50.757802576030834" lon="3.0776943738524585"><ele>34.5</ele><time>2026-04-17T14:12:34.999Z</time></trkpt><trkpt lat="50.75792834068645" lon="3.0776587451463677"><ele>34.333333333333336</ele><time>2026-04-17T14:12:36.999Z</time></trkpt><trkpt lat="50.75799398646289" lon="3.077642616174913"><ele>34.16666666666667</ele><time>2026-04-17T14:12:37.999Z</time></trkpt><trkpt lat="50.75805968024926" lon="3.077631303832663"><ele>34.0</ele><time>2026-04-17T14:12:38.999Z</time></trkpt><trkpt lat="50.75812741163334" lon="3.077619474286103"><ele>34.0</ele><time>2026-04-17T14:12:39.999Z</time></trkpt><trkpt lat="50.75819388037081" lon="3.077610001113894"><ele>34.0</ele><time>2026-04-17T14:12:40.999Z</time></trkpt><trkpt lat="50.75826235680404" lon="3.0776062057203335"><ele>34.0</ele><time>2026-04-17T14:12:41.999Z</time></trkpt><trkpt lat="50.758328333749915" lon="3.077604114718602"><ele>34.0</ele><time>2026-04-17T14:12:42.999Z</time></trkpt><trkpt lat="50.75839682566132" lon="3.0776045450327367"><ele>34.0</ele><time>2026-04-17T14:12:43.999Z</time></trkpt><trkpt lat="50.758463993360394" lon="3.0776043369095856"><ele>34.0</ele><time>2026-04-17T14:12:44.999Z</time></trkpt><trkpt lat="50.75860018118763" lon="3.0776189137635663"><ele>34.14285714285714</ele><time>2026-04-17T14:12:46.999Z</time></trkpt><trkpt lat="50.75867227252598" lon="3.0776241525161017"><ele>34.285714285714285</ele><time>2026-04-17T14:12:47.999Z</time></trkpt><trkpt lat="50.758743632185755" lon="3.077635755613217"><ele>34.42857142857143</ele><time>2026-04-17T14:12:48.999Z</time></trkpt><trkpt lat="50.75881713956259" lon="3.0776472027302706"><ele>34.57142857142857</ele><time>2026-04-17T14:12:49.999Z</time></trkpt><trkpt lat="50.758889922059346" lon="3.077655293542573"><ele>34.714285714285715</ele><time>2026-04-17T14:12:50.999Z</time></trkpt><trkpt lat="50.75896499761509" lon="3.0776638315425666"><ele>34.857142857142854</ele><time>2026-04-17T14:12:51.999Z</time></trkpt><trkpt lat="50.759038334554546" lon="3.07767728357517"><ele>35.0</ele><time>2026-04-17T14:12:52.999Z</time></trkpt><trkpt lat="50.75911150600187" lon="3.0776891509909854"><ele>35.0</ele><time>2026-04-17T14:12:53.999Z</time></trkpt><trkpt lat="50.759186795390576" lon="3.077696170995145"><ele>35.0</ele><time>2026-04-17T14:12:54.999Z</time></trkpt><trkpt lat="50.75926243087998" lon="3.0777044773605433"><ele>35.0</ele><time>2026-04-17T14:12:55.999Z</time></trkpt><trkpt lat="50.759335701450254" lon="3.077716389796684"><ele>35.0</ele><time>2026-04-17T14:12:56.999Z</time></trkpt><trkpt lat="50.75941361731819" lon="3.077735599494196"><ele>35.0</ele><time>2026-04-17T14:12:57.999Z</time></trkpt><trkpt lat="50.75949141643937" lon="3.0777502644398744"><ele>35.0</ele><time>2026-04-17T14:12:58.999Z</time></trkpt><trkpt lat="50.75957335942088" lon="3.0777598786035933"><ele>34.83333333333333</ele><time>2026-04-17T14:12:59.999Z</time></trkpt><trkpt lat="50.75965363061914" lon="3.077769397868523"><ele>34.666666666666664</ele><time>2026-04-17T14:13:00.999Z</time></trkpt><trkpt lat="50.75973420503759" lon="3.0777820430504237"><ele>34.5</ele><time>2026-04-17T14:13:01.999Z</time></trkpt><trkpt lat="50.7598157656641" lon="3.0777903676550395"><ele>34.333333333333336</ele><time>2026-04-17T14:13:02.999Z</time></trkpt><trkpt lat="50.759898230269826" lon="3.0778032391804184"><ele>34.16666666666667</ele><time>2026-04-17T14:13:03.999Z</time></trkpt><trkpt lat="50.75998115491676" lon="3.0778162024864173"><ele>34.0</ele><time>2026-04-17T14:13:04.999Z</time></trkpt><trkpt lat="50.76006315360456" lon="3.077826232788759"><ele>33.4</ele><time>2026-04-17T14:13:05.999Z</time></trkpt><trkpt lat="50.76022917037377" lon="3.077854883081424"><ele>32.8</ele><time>2026-04-17T14:13:07.999Z</time></trkpt><trkpt lat="50.760309455254415" lon="3.0778666261918572"><ele>32.2</ele><time>2026-04-17T14:13:08.999Z</time></trkpt><trkpt lat="50.760392778344254" lon="3.0778819822550645"><ele>31.6</ele><time>2026-04-17T14:13:09.999Z</time></trkpt><trkpt lat="50.76047638085859" lon="3.077894699302561"><ele>31.0</ele><time>2026-04-17T14:13:10.999Z</time></trkpt><trkpt lat="50.76055952525692" lon="3.077906247080346"><ele>31.000000000000004</ele><time>2026-04-17T14:13:11.999Z</time></trkpt><trkpt lat="50.76064643785672" lon="3.077921933572489"><ele>31.0</ele><time>2026-04-17T14:13:12.999Z</time></trkpt><trkpt lat="50.760734165015684" lon="3.0779354555841034"><ele>31.0</ele><time>2026-04-17T14:13:13.999Z</time></trkpt><trkpt lat="50.760820729816224" lon="3.077946262261959"><ele>31.0</ele><time>2026-04-17T14:13:14.999Z</time></trkpt><trkpt lat="50.760911829985034" lon="3.077961131724722"><ele>31.000000000000004</ele><time>2026-04-17T14:13:15.999Z</time></trkpt><trkpt lat="50.761001546752254" lon="3.0779753461962986"><ele>31.0</ele><time>2026-04-17T14:13:16.999Z</time></trkpt><trkpt lat="50.761094548439196" lon="3.077990104024968"><ele>30.4</ele><time>2026-04-17T14:13:17.999Z</time></trkpt><trkpt lat="50.761188277587706" lon="3.0780039060513835"><ele>29.8</ele><time>2026-04-17T14:13:18.999Z</time></trkpt><trkpt lat="50.761282383121525" lon="3.0780168305538385"><ele>29.199999999999996</ele><time>2026-04-17T14:13:19.999Z</time></trkpt><trkpt lat="50.76137856099487" lon="3.0780294037221094"><ele>28.599999999999998</ele><time>2026-04-17T14:13:20.999Z</time></trkpt><trkpt lat="50.76147224786806" lon="3.0780443187652597"><ele>28.0</ele><time>2026-04-17T14:13:21.999Z</time></trkpt><trkpt lat="50.76157000326353" lon="3.0780590234478504"><ele>28.0</ele><time>2026-04-17T14:13:22.999Z</time></trkpt><trkpt lat="50.76166802792763" lon="3.0780765921316227"><ele>27.999999999999996</ele><time>2026-04-17T14:13:23.999Z</time></trkpt><trkpt lat="50.7617666378064" lon="3.07808555982013"><ele>27.999999999999996</ele><time>2026-04-17T14:13:24.999Z</time></trkpt><trkpt lat="50.76186464703905" lon="3.0780923273897325"><ele>28.0</ele><time>2026-04-17T14:13:25.999Z</time></trkpt><trkpt lat="50.76196363571303" lon="3.0781024941572066"><ele>28.0</ele><time>2026-04-17T14:13:26.999Z</time></trkpt><trkpt lat="50.76216920385109" lon="3.0780862318853366"><ele>27.799999999999997</ele><time>2026-04-17T14:13:28.999Z</time></trkpt><trkpt lat="50.76227188971387" lon="3.0780840726958587"><ele>27.599999999999998</ele><time>2026-04-17T14:13:29.999Z</time></trkpt><trkpt lat="50.76236994747902" lon="3.078070839825664"><ele>27.400000000000002</ele><time>2026-04-17T14:13:30.999Z</time></trkpt><trkpt lat="50.762466389054666" lon="3.0780481822511243"><ele>27.200000000000003</ele><time>2026-04-17T14:13:31.999Z</time></trkpt><trkpt lat="50.76256239826979" lon="3.0780092095636307"><ele>27.0</ele><time>2026-04-17T14:13:32.999Z</time></trkpt><trkpt lat="50.76264807846748" lon="3.077974088851303"><ele>26.333333333333332</ele><time>2026-04-17T14:13:33.999Z</time></trkpt><trkpt lat="50.76273400142041" lon="3.0779303794880026"><ele>25.666666666666668</ele><time>2026-04-17T14:13:34.999Z</time></trkpt><trkpt lat="50.76282069657014" lon="3.077870502912725"><ele>25.0</ele><time>2026-04-17T14:13:35.998Z</time></trkpt><trkpt lat="50.762900277008455" lon="3.077816090274332"><ele>24.333333333333336</ele><time>2026-04-17T14:13:36.998Z</time></trkpt><trkpt lat="50.76298097998779" lon="3.0777635509820893"><ele>23.666666666666668</ele><time>2026-04-17T14:13:37.998Z</time></trkpt><trkpt lat="50.763062352651446" lon="3.0777149566279167"><ele>23.0</ele><time>2026-04-17T14:13:38.998Z</time></trkpt><trkpt lat="50.763137606103975" lon="3.0776802514150354"><ele>23.0</ele><time>2026-04-17T14:13:39.998Z</time></trkpt><trkpt lat="50.76321622768903" lon="3.077659250830216"><ele>23.0</ele><time>2026-04-17T14:13:40.998Z</time></trkpt><trkpt lat="50.76333199187156" lon="3.077676598668717"><ele>23.0</ele><time>2026-04-17T14:13:43Z</time></trkpt><trkpt lat="50.76343818095967" lon="3.077766964410609"><ele>23.0</ele><time>2026-04-17T14:13:45Z</time></trkpt><trkpt lat="50.76354991587897" lon="3.077828393022801"><ele>23.0</ele><time>2026-04-17T14:13:47Z</time></trkpt><trkpt lat="50.763640191153314" lon="3.077844607179406"><ele>23.0</ele><time>2026-04-17T14:13:49Z</time></trkpt><trkpt lat="50.7637648297167" lon="3.077728444744619"><ele>23.0</ele><time>2026-04-17T14:13:54Z</time></trkpt><trkpt lat="50.763801542806824" lon="3.0776081080909083"><ele>23.0</ele><time>2026-04-17T14:13:57Z</time></trkpt><trkpt lat="50.76384622304922" lon="3.077486168324087"><ele>23.0</ele><time>2026-04-17T14:14:00Z</time></trkpt><trkpt lat="50.76389446841553" lon="3.0774080112436377"><ele>23.0</ele><time>2026-04-17T14:14:02Z</time></trkpt><trkpt lat="50.7639822986561" lon="3.077391761156393"><ele>23.0</ele><time>2026-04-17T14:14:04Z</time></trkpt><trkpt lat="50.764084183640435" lon="3.07737113437319"><ele>23.0</ele><time>2026-04-17T14:14:06Z</time></trkpt><trkpt lat="50.764202353443714" lon="3.0773614537855094"><ele>23.0</ele><time>2026-04-17T14:14:08Z</time></trkpt><trkpt lat="50.764266590166535" lon="3.077356712882567"><ele>23.0</ele><time>2026-04-17T14:14:09Z</time></trkpt><trkpt lat="50.764330499364796" lon="3.077343390818498"><ele>23.0</ele><time>2026-04-17T14:14:10Z</time></trkpt><trkpt lat="50.764520756825846" lon="3.077315434371171"><ele>23.0</ele><time>2026-04-17T14:14:13Z</time></trkpt><trkpt lat="50.76458936161765" lon="3.0772968376561276"><ele>23.0</ele><time>2026-04-17T14:14:14Z</time></trkpt><trkpt lat="50.764713547925886" lon="3.0772804954150974"><ele>23.0</ele><time>2026-04-17T14:14:16Z</time></trkpt><trkpt lat="50.76477770154644" lon="3.0772665065018243"><ele>23.0</ele><time>2026-04-17T14:14:17Z</time></trkpt><trkpt lat="50.76484301238304" lon="3.0772517006452134"><ele>23.0</ele><time>2026-04-17T14:14:18Z</time></trkpt><trkpt lat="50.76491042247168" lon="3.0772440727526726"><ele>23.0</ele><time>2026-04-17T14:14:19Z</time></trkpt><trkpt lat="50.76497663290936" lon="3.0772379585587104"><ele>23.0</ele><time>2026-04-17T14:14:20Z</time></trkpt><trkpt lat="50.765049052798034" lon="3.077236130129127"><ele>23.0</ele><time>2026-04-17T14:14:21Z</time></trkpt><trkpt lat="50.765116897331076" lon="3.0772367170593284"><ele>23.0</ele><time>2026-04-17T14:14:22Z</time></trkpt><trkpt lat="50.765182590877586" lon="3.0772430521485172"><ele>23.0</ele><time>2026-04-17T14:14:23Z</time></trkpt><trkpt lat="50.76528771731978" lon="3.0772599517357833"><ele>23.0</ele><time>2026-04-17T14:14:24.999Z</time></trkpt><trkpt lat="50.76538282565381" lon="3.0773114998746416"><ele>23.0</ele><time>2026-04-17T14:14:28.999Z</time></trkpt><trkpt lat="50.76543805186786" lon="3.077245638986739"><ele>22.25</ele><time>2026-04-17T14:14:32.999Z</time></trkpt><trkpt lat="50.76561696326866" lon="3.0772830892042804"><ele>21.5</ele><time>2026-04-17T14:14:37.999Z</time></trkpt><trkpt lat="50.76572055993212" lon="3.0773367488262124"><ele>20.75</ele><time>2026-04-17T14:14:39.999Z</time></trkpt><trkpt lat="50.76581663826314" lon="3.0774158396397002"><ele>20.0</ele><time>2026-04-17T14:14:41.999Z</time></trkpt><trkpt lat="50.76591686570787" lon="3.077520619153207"><ele>20.0</ele><time>2026-04-17T14:14:43.999Z</time></trkpt><trkpt lat="50.76602772581314" lon="3.077626420770191"><ele>20.0</ele><time>2026-04-17T14:14:45.999Z</time></trkpt><trkpt lat="50.76608415067767" lon="3.0776749474864946"><ele>20.0</ele><time>2026-04-17T14:14:46.999Z</time></trkpt><trkpt lat="50.76614413649587" lon="3.0777322204920323"><ele>20.0</ele><time>2026-04-17T14:14:47.999Z</time></trkpt><trkpt lat="50.766195385856825" lon="3.077801321813483"><ele>20.0</ele><time>2026-04-17T14:14:48.999Z</time></trkpt><trkpt lat="50.76624627626706" lon="3.077881706501991"><ele>20.0</ele><time>2026-04-17T14:14:49.999Z</time></trkpt><trkpt lat="50.76630537049993" lon="3.0779500523098657"><ele>20.0</ele><time>2026-04-17T14:14:50.999Z</time></trkpt><trkpt lat="50.76636876434774" lon="3.078014664668299"><ele>20.0</ele><time>2026-04-17T14:14:51.999Z</time></trkpt><trkpt lat="50.76642472859207" lon="3.0780908510032203"><ele>20.0</ele><time>2026-04-17T14:14:52.999Z</time></trkpt><trkpt lat="50.766478034818086" lon="3.0781793244031697"><ele>20.0</ele><time>2026-04-17T14:14:53.999Z</time></trkpt><trkpt lat="50.76660674877142" lon="3.078309658633221"><ele>20.0</ele><time>2026-04-17T14:14:55.999Z</time></trkpt><trkpt lat="50.76667169951948" lon="3.0783749186740734"><ele>20.0</ele><time>2026-04-17T14:14:56.999Z</time></trkpt><trkpt lat="50.76673723882584" lon="3.0784335922295605"><ele>20.0</ele><time>2026-04-17T14:14:57.999Z</time></trkpt><trkpt lat="50.76680785327719" lon="3.0784767137106033"><ele>20.0</ele><time>2026-04-17T14:14:58.999Z</time></trkpt><trkpt lat="50.766885249693736" lon="3.0785059487695916"><ele>20.0</ele><time>2026-04-17T14:14:59.999Z</time></trkpt><trkpt lat="50.76696475149786" lon="3.078521927643808"><ele>20.0</ele><time>2026-04-17T14:15:00.999Z</time></trkpt><trkpt lat="50.767046982383064" lon="3.0785391783083"><ele>20.0</ele><time>2026-04-17T14:15:01.999Z</time></trkpt><trkpt lat="50.76712658538337" lon="3.078538502355381"><ele>20.0</ele><time>2026-04-17T14:15:02.999Z</time></trkpt><trkpt lat="50.76720776332282" lon="3.0785324627739428"><ele>20.0</ele><time>2026-04-17T14:15:03.999Z</time></trkpt><trkpt lat="50.76728895554524" lon="3.078526047164583"><ele>20.0</ele><time>2026-04-17T14:15:04.999Z</time></trkpt><trkpt lat="50.7673679268586" lon="3.0785242724085298"><ele>20.0</ele><time>2026-04-17T14:15:05.999Z</time></trkpt><trkpt lat="50.7674463368778" lon="3.0785154720587657"><ele>20.0</ele><time>2026-04-17T14:15:06.999Z</time></trkpt><trkpt lat="50.76752605345523" lon="3.0785058294819674"><ele>20.0</ele><time>2026-04-17T14:15:07.999Z</time></trkpt><trkpt lat="50.7676054332227" lon="3.078504705703798"><ele>20.0</ele><time>2026-04-17T14:15:08.999Z</time></trkpt><trkpt lat="50.767684755260554" lon="3.0785127364680087"><ele>20.0</ele><time>2026-04-17T14:15:09.999Z</time></trkpt><trkpt lat="50.76776213737347" lon="3.078510844891909"><ele>20.0</ele><time>2026-04-17T14:15:10.999Z</time></trkpt><trkpt lat="50.767840511614786" lon="3.078505009736134"><ele>20.0</ele><time>2026-04-17T14:15:11.999Z</time></trkpt><trkpt lat="50.76791513441689" lon="3.0784969913240032"><ele>20.0</ele><time>2026-04-17T14:15:12.999Z</time></trkpt><trkpt lat="50.76799191423055" lon="3.0784994722662002"><ele>20.0</ele><time>2026-04-17T14:15:13.999Z</time></trkpt><trkpt lat="50.768066846693095" lon="3.0784950962811903"><ele>20.0</ele><time>2026-04-17T14:15:14.999Z</time></trkpt><trkpt lat="50.76821436788351" lon="3.0784880427122787"><ele>20.0</ele><time>2026-04-17T14:15:16.999Z</time></trkpt><trkpt lat="50.76829002319846" lon="3.0784864610099074"><ele>20.0</ele><time>2026-04-17T14:15:17.999Z</time></trkpt><trkpt lat="50.76836305312424" lon="3.0784798978459658"><ele>20.0</ele><time>2026-04-17T14:15:18.999Z</time></trkpt><trkpt lat="50.768435948314576" lon="3.078468487260991"><ele>20.0</ele><time>2026-04-17T14:15:19.999Z</time></trkpt><trkpt lat="50.76850581920269" lon="3.0784603678211178"><ele>20.0</ele><time>2026-04-17T14:15:20.999Z</time></trkpt><trkpt lat="50.76857766929799" lon="3.0784603137440127"><ele>20.0</ele><time>2026-04-17T14:15:21.999Z</time></trkpt><trkpt lat="50.768648725499276" lon="3.078457211919549"><ele>20.0</ele><time>2026-04-17T14:15:22.999Z</time></trkpt><trkpt lat="50.7687230795064" lon="3.0784552011452573"><ele>20.0</ele><time>2026-04-17T14:15:23.999Z</time></trkpt><trkpt lat="50.768794518561705" lon="3.078451382818959"><ele>20.0</ele><time>2026-04-17T14:15:24.999Z</time></trkpt><trkpt lat="50.76886999279069" lon="3.0784474117396665"><ele>20.0</ele><time>2026-04-17T14:15:25.999Z</time></trkpt><trkpt lat="50.7689411272223" lon="3.0784488734517734"><ele>20.0</ele><time>2026-04-17T14:15:26.999Z</time></trkpt><trkpt lat="50.76901383586573" lon="3.0784502033797936"><ele>20.0</ele><time>2026-04-17T14:15:27.999Z</time></trkpt><trkpt lat="50.769081378407506" lon="3.0784440144020278"><ele>20.0</ele><time>2026-04-17T14:15:28.999Z</time></trkpt><trkpt lat="50.76915092492134" lon="3.0784439194128423"><ele>20.0</ele><time>2026-04-17T14:15:29.999Z</time></trkpt><trkpt lat="50.769218905029376" lon="3.0784457148962026"><ele>20.0</ele><time>2026-04-17T14:15:30.999Z</time></trkpt><trkpt lat="50.76928800551013" lon="3.078444545147686"><ele>20.0</ele><time>2026-04-17T14:15:31.999Z</time></trkpt><trkpt lat="50.76935637027187" lon="3.078440117688222"><ele>20.0</ele><time>2026-04-17T14:15:32.999Z</time></trkpt><trkpt lat="50.76942306975038" lon="3.078439012889098"><ele>20.0</ele><time>2026-04-17T14:15:33.999Z</time></trkpt><trkpt lat="50.769491840440836" lon="3.0784349350711473"><ele>20.0</ele><time>2026-04-17T14:15:34.999Z</time></trkpt><trkpt lat="50.76956041269922" lon="3.078432779880856"><ele>20.4</ele><time>2026-04-17T14:15:35.999Z</time></trkpt><trkpt lat="50.76969675263942" lon="3.0784366654405657"><ele>20.8</ele><time>2026-04-17T14:15:37.999Z</time></trkpt><trkpt lat="50.76976285827443" lon="3.0784312237238463"><ele>21.200000000000003</ele><time>2026-04-17T14:15:38.998Z</time></trkpt><trkpt lat="50.769827240020746" lon="3.0784279129618857"><ele>21.6</ele><time>2026-04-17T14:15:39.998Z</time></trkpt><trkpt lat="50.76989385986121" lon="3.0784312408508407"><ele>22.0</ele><time>2026-04-17T14:15:40.998Z</time></trkpt><trkpt lat="50.77001437034773" lon="3.0784354528657043"><ele>22.0</ele><time>2026-04-17T14:15:42.998Z</time></trkpt><trkpt lat="50.77007926716273" lon="3.078439217436487"><ele>22.0</ele><time>2026-04-17T14:15:43.998Z</time></trkpt><trkpt lat="50.770147030720985" lon="3.078446318483012"><ele>22.0</ele><time>2026-04-17T14:15:44.998Z</time></trkpt><trkpt lat="50.77021652896442" lon="3.0784467257816743"><ele>22.0</ele><time>2026-04-17T14:15:45.998Z</time></trkpt><trkpt lat="50.77028232780284" lon="3.078450573365334"><ele>22.0</ele><time>2026-04-17T14:15:46.998Z</time></trkpt><trkpt lat="50.77034748138147" lon="3.078457036335368"><ele>22.0</ele><time>2026-04-17T14:15:48Z</time></trkpt><trkpt lat="50.77045879807209" lon="3.0784528669138496"><ele>22.0</ele><time>2026-04-17T14:15:50Z</time></trkpt><trkpt lat="50.77052776745026" lon="3.078453499951381"><ele>21.714285714285715</ele><time>2026-04-17T14:15:51Z</time></trkpt><trkpt lat="50.770591079029046" lon="3.0784532837238383"><ele>21.428571428571427</ele><time>2026-04-17T14:15:52Z</time></trkpt><trkpt lat="50.77065472145692" lon="3.078446578599162"><ele>21.142857142857142</ele><time>2026-04-17T14:15:53Z</time></trkpt><trkpt lat="50.77072024709535" lon="3.0784410892907"><ele>20.857142857142858</ele><time>2026-04-17T14:15:54Z</time></trkpt><trkpt lat="50.77078980257879" lon="3.078432660767967"><ele>20.571428571428573</ele><time>2026-04-17T14:15:55Z</time></trkpt><trkpt lat="50.77085721548193" lon="3.0784198134887184"><ele>20.285714285714285</ele><time>2026-04-17T14:15:56Z</time></trkpt><trkpt lat="50.77092553036863" lon="3.0784017613342236"><ele>20.0</ele><time>2026-04-17T14:15:57Z</time></trkpt><trkpt lat="50.77105364441443" lon="3.0783589235360767"><ele>20.0</ele><time>2026-04-17T14:15:59Z</time></trkpt><trkpt lat="50.77111505883914" lon="3.078326114161208"><ele>20.0</ele><time>2026-04-17T14:16:00Z</time></trkpt><trkpt lat="50.77122044424493" lon="3.0782729734246352"><ele>20.0</ele><time>2026-04-17T14:16:02Z</time></trkpt><trkpt lat="50.77128073565537" lon="3.078181415459337"><ele>20.0</ele><time>2026-04-17T14:16:04Z</time></trkpt><trkpt lat="50.771260489755356" lon="3.078044609899499"><ele>20.0</ele><time>2026-04-17T14:16:06Z</time></trkpt><trkpt lat="50.77122698438819" lon="3.0779032813883473"><ele>20.0</ele><time>2026-04-17T14:16:08Z</time></trkpt><trkpt lat="50.77118889651639" lon="3.077769482806141"><ele>20.0</ele><time>2026-04-17T14:16:10Z</time></trkpt><trkpt lat="50.771150545066824" lon="3.0776297601313107"><ele>20.0</ele><time>2026-04-17T14:16:12Z</time></trkpt><trkpt lat="50.771107293213646" lon="3.0774735434289644"><ele>20.0</ele><time>2026-04-17T14:16:14Z</time></trkpt><trkpt lat="50.77106024679676" lon="3.0773072530621963"><ele>20.0</ele><time>2026-04-17T14:16:16Z</time></trkpt><trkpt lat="50.77102674402499" lon="3.077139647772109"><ele>20.0</ele><time>2026-04-17T14:16:18Z</time></trkpt><trkpt lat="50.7709634651287" lon="3.076794700077978"><ele>20.0</ele><time>2026-04-17T14:16:22Z</time></trkpt><trkpt lat="50.77093873333345" lon="3.0766178151541723"><ele>20.0</ele><time>2026-04-17T14:16:24Z</time></trkpt><trkpt lat="50.77091221345595" lon="3.076433513635716"><ele>20.0</ele><time>2026-04-17T14:16:26Z</time></trkpt><trkpt lat="50.77088813607021" lon="3.076263432259158"><ele>20.0</ele><time>2026-04-17T14:16:28Z</time></trkpt><trkpt lat="50.77085189089916" lon="3.076092722773917"><ele>20.75</ele><time>2026-04-17T14:16:30Z</time></trkpt><trkpt lat="50.770836061313446" lon="3.075918127138071"><ele>21.5</ele><time>2026-04-17T14:16:31.999Z</time></trkpt><trkpt lat="50.77081016639337" lon="3.075740306203351"><ele>22.25</ele><time>2026-04-17T14:16:33.999Z</time></trkpt><trkpt lat="50.77078319697069" lon="3.075560032653324"><ele>23.0</ele><time>2026-04-17T14:16:35.999Z</time></trkpt><trkpt lat="50.77076947429241" lon="3.0753820531345735"><ele>23.0</ele><time>2026-04-17T14:16:37.999Z</time></trkpt><trkpt lat="50.77075804659287" lon="3.0752048081189227"><ele>23.0</ele><time>2026-04-17T14:16:39.999Z</time></trkpt><trkpt lat="50.770723902499405" lon="3.0748316618395126"><ele>23.0</ele><time>2026-04-17T14:16:43.999Z</time></trkpt><trkpt lat="50.77070531650943" lon="3.074640683116171"><ele>22.5</ele><time>2026-04-17T14:16:45.999Z</time></trkpt><trkpt lat="50.77069468388572" lon="3.0744529444994506"><ele>22.0</ele><time>2026-04-17T14:16:47.999Z</time></trkpt><trkpt lat="50.77067335739429" lon="3.074256859149352"><ele>21.5</ele><time>2026-04-17T14:16:49.999Z</time></trkpt><trkpt lat="50.77065814432429" lon="3.074071591290093"><ele>21.0</ele><time>2026-04-17T14:16:51.999Z</time></trkpt><trkpt lat="50.77064831171694" lon="3.0738842518865876"><ele>20.8</ele><time>2026-04-17T14:16:53.999Z</time></trkpt><trkpt lat="50.77063198811884" lon="3.073698319871944"><ele>20.6</ele><time>2026-04-17T14:16:55.999Z</time></trkpt><trkpt lat="50.77061162259381" lon="3.0735271347677"><ele>20.4</ele><time>2026-04-17T14:16:57.999Z</time></trkpt><trkpt lat="50.770583752966786" lon="3.073372115745537"><ele>20.2</ele><time>2026-04-17T14:16:59.999Z</time></trkpt><trkpt lat="50.77057495665961" lon="3.0732028870240575"><ele>20.0</ele><time>2026-04-17T14:17:01.999Z</time></trkpt><trkpt lat="50.770542517888515" lon="3.07286972364199"><ele>20.0</ele><time>2026-04-17T14:17:05.999Z</time></trkpt><trkpt lat="50.770528378022576" lon="3.0727056552761933"><ele>20.0</ele><time>2026-04-17T14:17:07.999Z</time></trkpt><trkpt lat="50.77051481738107" lon="3.072548326265153"><ele>20.0</ele><time>2026-04-17T14:17:09.999Z</time></trkpt><trkpt lat="50.77049900020302" lon="3.0723921666661407"><ele>20.0</ele><time>2026-04-17T14:17:11.999Z</time></trkpt><trkpt lat="50.77048501927289" lon="3.0722332355927064"><ele>20.0</ele><time>2026-04-17T14:17:13.999Z</time></trkpt><trkpt lat="50.770469314119545" lon="3.072083231972257"><ele>20.0</ele><time>2026-04-17T14:17:15.999Z</time></trkpt><trkpt lat="50.770453443954445" lon="3.0719162651386447"><ele>20.0</ele><time>2026-04-17T14:17:17.999Z</time></trkpt><trkpt lat="50.77042927931905" lon="3.0717552059691258"><ele>20.0</ele><time>2026-04-17T14:17:19.999Z</time></trkpt><trkpt lat="50.77041844721436" lon="3.0715994579431336"><ele>20.0</ele><time>2026-04-17T14:17:21.999Z</time></trkpt><trkpt lat="50.770385749684344" lon="3.0714445744723307"><ele>20.0</ele><time>2026-04-17T14:17:23.999Z</time></trkpt><trkpt lat="50.7703321267433" lon="3.0711385295105478"><ele>20.0</ele><time>2026-04-17T14:17:27.999Z</time></trkpt><trkpt lat="50.77029931310682" lon="3.0709748090940208"><ele>20.0</ele><time>2026-04-17T14:17:29.999Z</time></trkpt><trkpt lat="50.77028277371709" lon="3.070808386697111"><ele>20.0</ele><time>2026-04-17T14:17:31.999Z</time></trkpt><trkpt lat="50.77025398143256" lon="3.0706384606876846"><ele>20.0</ele><time>2026-04-17T14:17:33.999Z</time></trkpt><trkpt lat="50.77022425568364" lon="3.070469655041508"><ele>20.0</ele><time>2026-04-17T14:17:35.999Z</time></trkpt><trkpt lat="50.770191998611566" lon="3.070295038058218"><ele>19.5</ele><time>2026-04-17T14:17:37.999Z</time></trkpt><trkpt lat="50.77015212740595" lon="3.0701247701886025"><ele>19.0</ele><time>2026-04-17T14:17:39.999Z</time></trkpt><trkpt lat="50.770106983064665" lon="3.0699606278238654"><ele>18.5</ele><time>2026-04-17T14:17:41.999Z</time></trkpt><trkpt lat="50.77006792441892" lon="3.0697963140988715"><ele>18.0</ele><time>2026-04-17T14:17:43.999Z</time></trkpt><trkpt lat="50.77002660355799" lon="3.0696272730139955"><ele>18.0</ele><time>2026-04-17T14:17:45.999Z</time></trkpt><trkpt lat="50.769937413433716" lon="3.0693072017224474"><ele>18.0</ele><time>2026-04-17T14:17:49.998Z</time></trkpt><trkpt lat="50.76989879830101" lon="3.0691414760784994"><ele>18.0</ele><time>2026-04-17T14:17:51.998Z</time></trkpt><trkpt lat="50.7698572743646" lon="3.0689874752810886"><ele>18.0</ele><time>2026-04-17T14:17:54Z</time></trkpt><trkpt lat="50.769817871235865" lon="3.0688278329348173"><ele>18.2</ele><time>2026-04-17T14:17:56Z</time></trkpt><trkpt lat="50.76980501361028" lon="3.068659749807597"><ele>18.4</ele><time>2026-04-17T14:17:58Z</time></trkpt><trkpt lat="50.76978796745843" lon="3.06850216220791"><ele>18.599999999999998</ele><time>2026-04-17T14:18:00Z</time></trkpt><trkpt lat="50.769776133207635" lon="3.0683440750675786"><ele>18.8</ele><time>2026-04-17T14:18:02Z</time></trkpt><trkpt lat="50.76975860456164" lon="3.0681947240463967"><ele>19.0</ele><time>2026-04-17T14:18:04Z</time></trkpt><trkpt lat="50.76974154737897" lon="3.068048139917124"><ele>19.0</ele><time>2026-04-17T14:18:06Z</time></trkpt><trkpt lat="50.7697190910246" lon="3.067900980551372"><ele>19.0</ele><time>2026-04-17T14:18:08Z</time></trkpt><trkpt lat="50.76968833845624" lon="3.0676166801527227"><ele>19.0</ele><time>2026-04-17T14:18:12Z</time></trkpt><trkpt lat="50.769675027220856" lon="3.067478683832741"><ele>19.0</ele><time>2026-04-17T14:18:14Z</time></trkpt><trkpt lat="50.76966129365519" lon="3.0673343760275777"><ele>19.0</ele><time>2026-04-17T14:18:16Z</time></trkpt><trkpt lat="50.76964012513928" lon="3.0671817141559385"><ele>19.0</ele><time>2026-04-17T14:18:18Z</time></trkpt><trkpt lat="50.769618070604835" lon="3.0670292675464936"><ele>19.0</ele><time>2026-04-17T14:18:20Z</time></trkpt><trkpt lat="50.76959856475324" lon="3.0668850713005504"><ele>19.0</ele><time>2026-04-17T14:18:22Z</time></trkpt><trkpt lat="50.769564057241965" lon="3.0667428371134404"><ele>19.0</ele><time>2026-04-17T14:18:24Z</time></trkpt><trkpt lat="50.769526243304576" lon="3.0666063276776203"><ele>18.75</ele><time>2026-04-17T14:18:26Z</time></trkpt><trkpt lat="50.76948518307895" lon="3.0664707148996944"><ele>18.5</ele><time>2026-04-17T14:18:28Z</time></trkpt><trkpt lat="50.76943963456101" lon="3.066329641856446"><ele>18.25</ele><time>2026-04-17T14:18:30Z</time></trkpt><trkpt lat="50.769363370492925" lon="3.0660446887881156"><ele>18.0</ele><time>2026-04-17T14:18:34Z</time></trkpt><trkpt lat="50.76933352623511" lon="3.0658920749210576"><ele>18.2</ele><time>2026-04-17T14:18:35.999Z</time></trkpt><trkpt lat="50.76931227547718" lon="3.0657422878283764"><ele>18.4</ele><time>2026-04-17T14:18:37.999Z</time></trkpt><trkpt lat="50.76929914556426" lon="3.0655959676718503"><ele>18.599999999999998</ele><time>2026-04-17T14:18:39.999Z</time></trkpt><trkpt lat="50.769281203551756" lon="3.0654485634965987"><ele>18.8</ele><time>2026-04-17T14:18:41.999Z</time></trkpt><trkpt lat="50.7692632020806" lon="3.065314468852567"><ele>19.0</ele><time>2026-04-17T14:18:43.999Z</time></trkpt><trkpt lat="50.76924542107671" lon="3.0651747139495136"><ele>19.0</ele><time>2026-04-17T14:18:45.999Z</time></trkpt><trkpt lat="50.769231521969296" lon="3.0650446997809966"><ele>19.0</ele><time>2026-04-17T14:18:47.999Z</time></trkpt><trkpt lat="50.76921643146808" lon="3.064910611500529"><ele>19.0</ele><time>2026-04-17T14:18:49.999Z</time></trkpt><trkpt lat="50.76919750666766" lon="3.06477038425948"><ele>19.0</ele><time>2026-04-17T14:18:51.999Z</time></trkpt><trkpt lat="50.769156586112665" lon="3.0644866113564944"><ele>19.0</ele><time>2026-04-17T14:18:55.999Z</time></trkpt><trkpt lat="50.769138738111586" lon="3.064349564035629"><ele>19.166666666666664</ele><time>2026-04-17T14:18:57.999Z</time></trkpt><trkpt lat="50.76911338245071" lon="3.0642136373998206"><ele>19.333333333333332</ele><time>2026-04-17T14:18:59.999Z</time></trkpt><trkpt lat="50.769085160864336" lon="3.064077119929662"><ele>19.5</ele><time>2026-04-17T14:19:01.999Z</time></trkpt><trkpt lat="50.76906011201383" lon="3.063939330669956"><ele>19.666666666666668</ele><time>2026-04-17T14:19:03.999Z</time></trkpt><trkpt lat="50.769032842650724" lon="3.0638072391603135"><ele>19.833333333333336</ele><time>2026-04-17T14:19:05.999Z</time></trkpt><trkpt lat="50.76900552986753" lon="3.063674069489192"><ele>20.0</ele><time>2026-04-17T14:19:07.999Z</time></trkpt><trkpt lat="50.76897845323404" lon="3.0635323067490865"><ele>20.0</ele><time>2026-04-17T14:19:09.999Z</time></trkpt><trkpt lat="50.76895369763824" lon="3.0633889663215714"><ele>20.0</ele><time>2026-04-17T14:19:11.999Z</time></trkpt><trkpt lat="50.76892783492575" lon="3.063242283282038"><ele>20.0</ele><time>2026-04-17T14:19:13.999Z</time></trkpt><trkpt lat="50.768863155828846" lon="3.0629495946716254"><ele>20.0</ele><time>2026-04-17T14:19:17.999Z</time></trkpt><trkpt lat="50.76883660892227" lon="3.0628052195039626"><ele>19.8</ele><time>2026-04-17T14:19:19.999Z</time></trkpt><trkpt lat="50.768810259071756" lon="3.0626611156388126"><ele>19.6</ele><time>2026-04-17T14:19:21.999Z</time></trkpt><trkpt lat="50.76877745266289" lon="3.0625148021428164"><ele>19.4</ele><time>2026-04-17T14:19:23.999Z</time></trkpt><trkpt lat="50.768749310556565" lon="3.062362513127362"><ele>19.2</ele><time>2026-04-17T14:19:25.999Z</time></trkpt><trkpt lat="50.76872129201823" lon="3.0622113342005104"><ele>19.0</ele><time>2026-04-17T14:19:27.999Z</time></trkpt><trkpt lat="50.76869165461524" lon="3.062047291943586"><ele>19.0</ele><time>2026-04-17T14:19:29.999Z</time></trkpt><trkpt lat="50.76866230322335" lon="3.0618747081339484"><ele>19.0</ele><time>2026-04-17T14:19:31.999Z</time></trkpt><trkpt lat="50.76862265061389" lon="3.0617104597448908"><ele>19.0</ele><time>2026-04-17T14:19:33.999Z</time></trkpt><trkpt lat="50.768593594805694" lon="3.0615520203094952"><ele>19.0</ele><time>2026-04-17T14:19:35.999Z</time></trkpt><trkpt lat="50.76854375651687" lon="3.061247822592741"><ele>19.0</ele><time>2026-04-17T14:19:39.999Z</time></trkpt><trkpt lat="50.76852489097743" lon="3.0610998570544248"><ele>19.0</ele><time>2026-04-17T14:19:41.999Z</time></trkpt><trkpt lat="50.768505302615544" lon="3.060956731165543"><ele>19.0</ele><time>2026-04-17T14:19:43.999Z</time></trkpt><trkpt lat="50.76848392440624" lon="3.0608116123511895"><ele>19.0</ele><time>2026-04-17T14:19:45.999Z</time></trkpt><trkpt lat="50.76847896963407" lon="3.0606611532883394"><ele>19.0</ele><time>2026-04-17T14:19:47.999Z</time></trkpt><trkpt lat="50.768471539547576" lon="3.0605078280213265"><ele>19.0</ele><time>2026-04-17T14:19:49.999Z</time></trkpt><trkpt lat="50.76848254115002" lon="3.0603560569894253"><ele>19.0</ele><time>2026-04-17T14:19:51.999Z</time></trkpt><trkpt lat="50.76850149479245" lon="3.060195596662048"><ele>19.0</ele><time>2026-04-17T14:19:53.998Z</time></trkpt><trkpt lat="50.76852268588576" lon="3.060031196193882"><ele>19.0</ele><time>2026-04-17T14:19:55.998Z</time></trkpt><trkpt lat="50.76855006896069" lon="3.05986396101936"><ele>19.0</ele><time>2026-04-17T14:19:58Z</time></trkpt><trkpt lat="50.76861788612348" lon="3.0595302852063213"><ele>19.0</ele><time>2026-04-17T14:20:02Z</time></trkpt><trkpt lat="50.76866257083428" lon="3.059362615535484"><ele>19.0</ele><time>2026-04-17T14:20:04Z</time></trkpt><trkpt lat="50.768711888220324" lon="3.0592056679171558"><ele>19.0</ele><time>2026-04-17T14:20:06Z</time></trkpt><trkpt lat="50.76876053019608" lon="3.059061310028822"><ele>19.0</ele><time>2026-04-17T14:20:08Z</time></trkpt><trkpt lat="50.76879921518938" lon="3.0589169341803646"><ele>19.0</ele><time>2026-04-17T14:20:10Z</time></trkpt><trkpt lat="50.76883697075452" lon="3.058773858125103"><ele>19.0</ele><time>2026-04-17T14:20:12Z</time></trkpt><trkpt lat="50.768862034697584" lon="3.0586186157016795"><ele>19.0</ele><time>2026-04-17T14:20:14Z</time></trkpt><trkpt lat="50.76887725491875" lon="3.0584535142682117"><ele>19.0</ele><time>2026-04-17T14:20:16Z</time></trkpt><trkpt lat="50.768881866732485" lon="3.058280293322143"><ele>19.0</ele><time>2026-04-17T14:20:18Z</time></trkpt><trkpt lat="50.768877802421144" lon="3.0581099286689604"><ele>19.0</ele><time>2026-04-17T14:20:20Z</time></trkpt><trkpt lat="50.7688677708566" lon="3.0577804559862716"><ele>19.0</ele><time>2026-04-17T14:20:24Z</time></trkpt><trkpt lat="50.768866743116476" lon="3.0576140769323312"><ele>19.0</ele><time>2026-04-17T14:20:26Z</time></trkpt><trkpt lat="50.76886433312007" lon="3.0574405414903834"><ele>19.0</ele><time>2026-04-17T14:20:28Z</time></trkpt><trkpt lat="50.76886204296871" lon="3.057266173087912"><ele>19.0</ele><time>2026-04-17T14:20:30Z</time></trkpt><trkpt lat="50.76886333183256" lon="3.0570880517557564"><ele>19.0</ele><time>2026-04-17T14:20:32Z</time></trkpt><trkpt lat="50.7688589322809" lon="3.056908320771468"><ele>18.8</ele><time>2026-04-17T14:20:34Z</time></trkpt><trkpt lat="50.768858690979386" lon="3.0567292682867837"><ele>18.599999999999998</ele><time>2026-04-17T14:20:35.999Z</time></trkpt><trkpt lat="50.76885464230809" lon="3.0565470459296913"><ele>18.4</ele><time>2026-04-17T14:20:37.999Z</time></trkpt><trkpt lat="50.76885061743059" lon="3.056375037907582"><ele>18.2</ele><time>2026-04-17T14:20:39.999Z</time></trkpt><trkpt lat="50.76885310634733" lon="3.0562060107136264"><ele>18.0</ele><time>2026-04-17T14:20:41.999Z</time></trkpt><trkpt lat="50.76884335475221" lon="3.055881484680331"><ele>18.8</ele><time>2026-04-17T14:20:45.999Z</time></trkpt><trkpt lat="50.76884208243985" lon="3.055715086535941"><ele>19.6</ele><time>2026-04-17T14:20:47.999Z</time></trkpt><trkpt lat="50.76884030358894" lon="3.0555488332004104"><ele>20.400000000000002</ele><time>2026-04-17T14:20:49.999Z</time></trkpt><trkpt lat="50.76884054683025" lon="3.0553675957183044"><ele>21.200000000000003</ele><time>2026-04-17T14:20:51.999Z</time></trkpt><trkpt lat="50.76883849521342" lon="3.055186349838121"><ele>22.0</ele><time>2026-04-17T14:20:53.999Z</time></trkpt><trkpt lat="50.76883109028006" lon="3.054995581521129"><ele>21.8</ele><time>2026-04-17T14:20:55.999Z</time></trkpt><trkpt lat="50.768830186318546" lon="3.054802136129662"><ele>21.6</ele><time>2026-04-17T14:20:57.999Z</time></trkpt><trkpt lat="50.76882793766691" lon="3.054611710295447"><ele>21.400000000000002</ele><time>2026-04-17T14:20:59.999Z</time></trkpt><trkpt lat="50.76882901348381" lon="3.054512076634581"><ele>21.200000000000003</ele><time>2026-04-17T14:21:00.999Z</time></trkpt><trkpt lat="50.7688251362111" lon="3.0543127239289296"><ele>21.0</ele><time>2026-04-17T14:21:02.999Z</time></trkpt><trkpt lat="50.76882590526946" lon="3.0541103478633174"><ele>21.0</ele><time>2026-04-17T14:21:04.999Z</time></trkpt><trkpt lat="50.76882001106884" lon="3.0539195211453474"><ele>21.0</ele><time>2026-04-17T14:21:06.999Z</time></trkpt><trkpt lat="50.76881598856136" lon="3.053736364106875"><ele>21.0</ele><time>2026-04-17T14:21:08.999Z</time></trkpt><trkpt lat="50.76889869222967" lon="3.053611678074435"><ele>21.0</ele><time>2026-04-17T14:21:10.999Z</time></trkpt><trkpt lat="50.76901246770296" lon="3.0535936202627063"><ele>21.0</ele><time>2026-04-17T14:21:12.999Z</time></trkpt><trkpt lat="50.76912160824089" lon="3.053591386174173"><ele>21.0</ele><time>2026-04-17T14:21:14.999Z</time></trkpt><trkpt lat="50.76921591396121" lon="3.0536113743150715"><ele>21.0</ele><time>2026-04-17T14:21:16.999Z</time></trkpt><trkpt lat="50.769188568823296" lon="3.0535179445980147"><ele>21.0</ele><time>2026-04-17T14:21:19.999Z</time></trkpt><trkpt lat="50.76911347276266" lon="3.0535427525568695"><ele>21.0</ele><time>2026-04-17T14:21:21.999Z</time></trkpt><trkpt lat="50.769026582998876" lon="3.0535498275805963"><ele>21.0</ele><time>2026-04-17T14:21:23.999Z</time></trkpt><trkpt lat="50.768841119578475" lon="3.053483952597599"><ele>21.0</ele><time>2026-04-17T14:21:27.999Z</time></trkpt><trkpt lat="50.76880230265931" lon="3.0533587342900477"><ele>21.0</ele><time>2026-04-17T14:21:29.999Z</time></trkpt><trkpt lat="50.76881281831423" lon="3.0531762483638016"><ele>21.0</ele><time>2026-04-17T14:21:31.999Z</time></trkpt><trkpt lat="50.768812895844086" lon="3.0530724129916025"><ele>21.0</ele><time>2026-04-17T14:21:32.999Z</time></trkpt><trkpt lat="50.7688085090821" lon="3.0529708384568166"><ele>21.0</ele><time>2026-04-17T14:21:33.999Z</time></trkpt><trkpt lat="50.768804463271174" lon="3.0528503186197176"><ele>21.0</ele><time>2026-04-17T14:21:34.999Z</time></trkpt><trkpt lat="50.76880801516569" lon="3.0527497530217063"><ele>20.8</ele><time>2026-04-17T14:21:35.999Z</time></trkpt><trkpt lat="50.76880302273529" lon="3.0525600242502735"><ele>20.6</ele><time>2026-04-17T14:21:37.999Z</time></trkpt><trkpt lat="50.76878840794965" lon="3.052381566918029"><ele>20.4</ele><time>2026-04-17T14:21:39.999Z</time></trkpt><trkpt lat="50.76879852497103" lon="3.0522255059456236"><ele>20.2</ele><time>2026-04-17T14:21:41.999Z</time></trkpt><trkpt lat="50.7688784025144" lon="3.0521315182399666"><ele>20.0</ele><time>2026-04-17T14:21:43.999Z</time></trkpt><trkpt lat="50.76898728115955" lon="3.052078268090794"><ele>20.0</ele><time>2026-04-17T14:21:45.999Z</time></trkpt><trkpt lat="50.76919544690552" lon="3.051920368379622"><ele>20.0</ele><time>2026-04-17T14:21:49.999Z</time></trkpt><trkpt lat="50.76930577009845" lon="3.051830732664809"><ele>20.0</ele><time>2026-04-17T14:21:51.998Z</time></trkpt><trkpt lat="50.76936503138861" lon="3.051778924146232"><ele>20.0</ele><time>2026-04-17T14:21:52.998Z</time></trkpt><trkpt lat="50.76942676057076" lon="3.0517380265912504"><ele>20.0</ele><time>2026-04-17T14:21:53.998Z</time></trkpt><trkpt lat="50.7694899026161" lon="3.0517000635438283"><ele>20.0</ele><time>2026-04-17T14:21:54.998Z</time></trkpt><trkpt lat="50.76954662246622" lon="3.0516558336074677"><ele>20.0</ele><time>2026-04-17T14:21:55.998Z</time></trkpt><trkpt lat="50.769606433677104" lon="3.051618500096045"><ele>20.0</ele><time>2026-04-17T14:21:56.998Z</time></trkpt><trkpt lat="50.76971048603243" lon="3.051530481127426"><ele>20.0</ele><time>2026-04-17T14:21:58.998Z</time></trkpt><trkpt lat="50.76978199727113" lon="3.0514823046520196"><ele>20.0</ele><time>2026-04-17T14:22:00.998Z</time></trkpt><trkpt lat="50.76984586430479" lon="3.0514388909336154"><ele>19.5</ele><time>2026-04-17T14:22:02.998Z</time></trkpt><trkpt lat="50.76992723955137" lon="3.0513586767380723"><ele>19.0</ele><time>2026-04-17T14:22:05Z</time></trkpt><trkpt lat="50.77119014148439" lon="3.050513821331021"><ele>18.8</ele><time>2026-04-17T14:25:25.999Z</time></trkpt><trkpt lat="50.771131659981094" lon="3.0505922135770116"><ele>18.599999999999998</ele><time>2026-04-17T14:25:30.999Z</time></trkpt><trkpt lat="50.77105886068455" lon="3.0506074065600437"><ele>18.4</ele><time>2026-04-17T14:25:32.999Z</time></trkpt><trkpt lat="50.7709002937036" lon="3.050695224387767"><ele>18.2</ele><time>2026-04-17T14:25:36.999Z</time></trkpt><trkpt lat="50.77080438976026" lon="3.0507209365443826"><ele>18.0</ele><time>2026-04-17T14:25:38.999Z</time></trkpt><trkpt lat="50.77070867754534" lon="3.0507858520692475"><ele>17.8</ele><time>2026-04-17T14:25:40.999Z</time></trkpt><trkpt lat="50.770613691206734" lon="3.0508530957057203"><ele>17.6</ele><time>2026-04-17T14:25:42.999Z</time></trkpt><trkpt lat="50.77051348154136" lon="3.050931338384438"><ele>17.4</ele><time>2026-04-17T14:25:44.999Z</time></trkpt><trkpt lat="50.77040949295209" lon="3.05100869565426"><ele>17.2</ele><time>2026-04-17T14:25:46.999Z</time></trkpt><trkpt lat="50.77030421251054" lon="3.0510916786639255"><ele>17.0</ele><time>2026-04-17T14:25:48.999Z</time></trkpt><trkpt lat="50.77019454258883" lon="3.0511796056774876"><ele>17.5</ele><time>2026-04-17T14:25:50.999Z</time></trkpt><trkpt lat="50.77008735905751" lon="3.0512702148524915"><ele>18.0</ele><time>2026-04-17T14:25:52.999Z</time></trkpt><trkpt lat="50.76998329251734" lon="3.051349625652946"><ele>18.5</ele><time>2026-04-17T14:25:54.999Z</time></trkpt><trkpt lat="50.769806226914596" lon="3.051467746979057"><ele>19.0</ele><time>2026-04-17T14:25:58.999Z</time></trkpt><trkpt lat="50.76971454592731" lon="3.051534645169692"><ele>19.0</ele><time>2026-04-17T14:26:00.999Z</time></trkpt><trkpt lat="50.76961971383901" lon="3.05160539903129"><ele>19.0</ele><time>2026-04-17T14:26:02.998Z</time></trkpt><trkpt lat="50.769530382268876" lon="3.051679054486652"><ele>19.0</ele><time>2026-04-17T14:26:04.998Z</time></trkpt><trkpt lat="50.76944065381338" lon="3.051752548985238"><ele>19.0</ele><time>2026-04-17T14:26:06.998Z</time></trkpt><trkpt lat="50.76935410775528" lon="3.0518309790516382"><ele>19.0</ele><time>2026-04-17T14:26:08.998Z</time></trkpt><trkpt lat="50.76926289156755" lon="3.0518910637817185"><ele>19.0</ele><time>2026-04-17T14:26:10.998Z</time></trkpt><trkpt lat="50.76917490154681" lon="3.0519538597849545"><ele>19.0</ele><time>2026-04-17T14:26:12.998Z</time></trkpt><trkpt lat="50.76908429036594" lon="3.0520232925489013"><ele>19.0</ele><time>2026-04-17T14:26:15Z</time></trkpt><trkpt lat="50.768994758668576" lon="3.0520781560556802"><ele>19.0</ele><time>2026-04-17T14:26:17Z</time></trkpt><trkpt lat="50.7688347888128" lon="3.052120049050448"><ele>19.0</ele><time>2026-04-17T14:26:21Z</time></trkpt><trkpt lat="50.76877780521896" lon="3.052048331648204"><ele>19.0</ele><time>2026-04-17T14:26:23Z</time></trkpt><trkpt lat="50.76875472242345" lon="3.0519065481066985"><ele>19.0</ele><time>2026-04-17T14:26:25Z</time></trkpt><trkpt lat="50.76876948516737" lon="3.0517569927393646"><ele>19.0</ele><time>2026-04-17T14:26:27Z</time></trkpt><trkpt lat="50.76878072473748" lon="3.0515901367602525"><ele>19.0</ele><time>2026-04-17T14:26:29Z</time></trkpt><trkpt lat="50.768789854494926" lon="3.051424653126095"><ele>19.0</ele><time>2026-04-17T14:26:31Z</time></trkpt><trkpt lat="50.768786166346715" lon="3.05126751686884"><ele>19.0</ele><time>2026-04-17T14:26:33Z</time></trkpt><trkpt lat="50.76878274697349" lon="3.051109493100599"><ele>19.0</ele><time>2026-04-17T14:26:35Z</time></trkpt><trkpt lat="50.76877278817077" lon="3.0509439830178122"><ele>19.0</ele><time>2026-04-17T14:26:37Z</time></trkpt><trkpt lat="50.76877468247477" lon="3.0507859279786538"><ele>19.0</ele><time>2026-04-17T14:26:39Z</time></trkpt><trkpt lat="50.76876240923086" lon="3.0504594083917977"><ele>19.0</ele><time>2026-04-17T14:26:43Z</time></trkpt><trkpt lat="50.76877208559262" lon="3.0502854856505137"><ele>19.0</ele><time>2026-04-17T14:26:45Z</time></trkpt><trkpt lat="50.768774549016655" lon="3.050111670453904"><ele>19.0</ele><time>2026-04-17T14:26:47Z</time></trkpt><trkpt lat="50.7687697886326" lon="3.0499399800778004"><ele>19.0</ele><time>2026-04-17T14:26:49Z</time></trkpt><trkpt lat="50.76875721160062" lon="3.0497589173539654"><ele>19.0</ele><time>2026-04-17T14:26:50.999Z</time></trkpt><trkpt lat="50.76873284815374" lon="3.0495885802839666"><ele>19.0</ele><time>2026-04-17T14:26:52.999Z</time></trkpt><trkpt lat="50.76870483009316" lon="3.049421516878381"><ele>19.0</ele><time>2026-04-17T14:26:54.999Z</time></trkpt><trkpt lat="50.76866515696077" lon="3.0492597525527017"><ele>19.0</ele><time>2026-04-17T14:26:56.999Z</time></trkpt><trkpt lat="50.768631078059535" lon="3.0491001766077828"><ele>19.0</ele><time>2026-04-17T14:26:58.999Z</time></trkpt><trkpt lat="50.768598072883286" lon="3.0489512021902754"><ele>19.0</ele><time>2026-04-17T14:27:00.999Z</time></trkpt><trkpt lat="50.76853983185753" lon="3.04867233741789"><ele>19.0</ele><time>2026-04-17T14:27:04.999Z</time></trkpt><trkpt lat="50.768508182999426" lon="3.048520756940419"><ele>19.0</ele><time>2026-04-17T14:27:06.999Z</time></trkpt><trkpt lat="50.76847348817392" lon="3.0483657142577596"><ele>19.0</ele><time>2026-04-17T14:27:08.999Z</time></trkpt><trkpt lat="50.76844374571477" lon="3.048207834624464"><ele>19.0</ele><time>2026-04-17T14:27:10.999Z</time></trkpt><trkpt lat="50.76841037090748" lon="3.048049398855104"><ele>19.0</ele><time>2026-04-17T14:27:12.999Z</time></trkpt><trkpt lat="50.76836371223511" lon="3.0478919152721065"><ele>19.0</ele><time>2026-04-17T14:27:14.999Z</time></trkpt><trkpt lat="50.768327771521946" lon="3.0477334952463147"><ele>19.0</ele><time>2026-04-17T14:27:16.999Z</time></trkpt><trkpt lat="50.768292981910164" lon="3.0475799907282006"><ele>19.0</ele><time>2026-04-17T14:27:18.999Z</time></trkpt><trkpt lat="50.76825206343639" lon="3.0474308527570755"><ele>19.0</ele><time>2026-04-17T14:27:20.999Z</time></trkpt><trkpt lat="50.768221222806176" lon="3.0472786111012837"><ele>19.0</ele><time>2026-04-17T14:27:22.999Z</time></trkpt><trkpt lat="50.7681265096725" lon="3.0470456180503938"><ele>18.8</ele><time>2026-04-17T14:27:26.999Z</time></trkpt><trkpt lat="50.76803240813025" lon="3.047131690693198"><ele>18.599999999999998</ele><time>2026-04-17T14:27:28.999Z</time></trkpt><trkpt lat="50.76797099362432" lon="3.0472536220559863"><ele>18.4</ele><time>2026-04-17T14:27:30.999Z</time></trkpt><trkpt lat="50.76787601241856" lon="3.047280210788978"><ele>18.2</ele><time>2026-04-17T14:27:32.999Z</time></trkpt><trkpt lat="50.767785570149925" lon="3.047313054991423"><ele>18.0</ele><time>2026-04-17T14:27:34.999Z</time></trkpt><trkpt lat="50.767690480012995" lon="3.0473465090277916"><ele>18.6</ele><time>2026-04-17T14:27:36.999Z</time></trkpt><trkpt lat="50.767589315438116" lon="3.047382116419898"><ele>19.200000000000003</ele><time>2026-04-17T14:27:38.999Z</time></trkpt><trkpt lat="50.767481432540144" lon="3.0474152890910005"><ele>19.8</ele><time>2026-04-17T14:27:40.999Z</time></trkpt><trkpt lat="50.76738006917001" lon="3.047456689020868"><ele>20.400000000000002</ele><time>2026-04-17T14:27:42.999Z</time></trkpt><trkpt lat="50.767277498654494" lon="3.0475061403371395"><ele>21.0</ele><time>2026-04-17T14:27:44.999Z</time></trkpt><trkpt lat="50.76708718837201" lon="3.047556577145559"><ele>21.200000000000003</ele><time>2026-04-17T14:27:48.999Z</time></trkpt><trkpt lat="50.766989250718275" lon="3.047593423357104"><ele>21.400000000000002</ele><time>2026-04-17T14:27:50.999Z</time></trkpt><trkpt lat="50.766895715949836" lon="3.0476163609492017"><ele>21.6</ele><time>2026-04-17T14:27:52.999Z</time></trkpt><trkpt lat="50.766804829735754" lon="3.0476320239780286"><ele>21.8</ele><time>2026-04-17T14:27:54.999Z</time></trkpt><trkpt lat="50.76671841595934" lon="3.0476447738613213"><ele>22.0</ele><time>2026-04-17T14:27:56.999Z</time></trkpt><trkpt lat="50.766633472041114" lon="3.047647197204044"><ele>23.200000000000003</ele><time>2026-04-17T14:27:58.999Z</time></trkpt><trkpt lat="50.766551382384975" lon="3.047642370169975"><ele>24.4</ele><time>2026-04-17T14:28:00.999Z</time></trkpt><trkpt lat="50.766471488355855" lon="3.0476330663012656"><ele>25.599999999999998</ele><time>2026-04-17T14:28:02.999Z</time></trkpt><trkpt lat="50.76639652857753" lon="3.0476358693099765"><ele>26.799999999999997</ele><time>2026-04-17T14:28:04.998Z</time></trkpt><trkpt lat="50.76631714468503" lon="3.047624215615445"><ele>28.0</ele><time>2026-04-17T14:28:06.998Z</time></trkpt><trkpt lat="50.76615931453836" lon="3.0476167253978286"><ele>28.000000000000004</ele><time>2026-04-17T14:28:10.998Z</time></trkpt><trkpt lat="50.76608000003737" lon="3.0476223776695592"><ele>28.0</ele><time>2026-04-17T14:28:12.998Z</time></trkpt><trkpt lat="50.766000502202814" lon="3.047607056389761"><ele>28.0</ele><time>2026-04-17T14:28:14.998Z</time></trkpt><trkpt lat="50.76592173325921" lon="3.047607598170918"><ele>28.0</ele><time>2026-04-17T14:28:16.998Z</time></trkpt><trkpt lat="50.765844040960296" lon="3.047611843075028"><ele>28.000000000000004</ele><time>2026-04-17T14:28:18.998Z</time></trkpt><trkpt lat="50.76575581129971" lon="3.047601471679153"><ele>28.0</ele><time>2026-04-17T14:28:21Z</time></trkpt><trkpt lat="50.76567195298836" lon="3.0476004031927286"><ele>30.2</ele><time>2026-04-17T14:28:23Z</time></trkpt><trkpt lat="50.76558510413071" lon="3.047593808071087"><ele>32.4</ele><time>2026-04-17T14:28:25Z</time></trkpt><trkpt lat="50.7655004815274" lon="3.047585080862216"><ele>34.599999999999994</ele><time>2026-04-17T14:28:27Z</time></trkpt><trkpt lat="50.76542916712903" lon="3.047575608879946"><ele>36.8</ele><time>2026-04-17T14:28:29Z</time></trkpt><trkpt lat="50.76527313209438" lon="3.047578448073604"><ele>39.0</ele><time>2026-04-17T14:28:33Z</time></trkpt><trkpt lat="50.76519426918695" lon="3.047564056801226"><ele>40.142857142857146</ele><time>2026-04-17T14:28:35Z</time></trkpt><trkpt lat="50.76512590545939" lon="3.0475581969168233"><ele>41.285714285714285</ele><time>2026-04-17T14:28:37Z</time></trkpt><trkpt lat="50.765071783071775" lon="3.0476349214684717"><ele>42.42857142857143</ele><time>2026-04-17T14:28:39Z</time></trkpt><trkpt lat="50.764989695455604" lon="3.047624581426282"><ele>43.57142857142857</ele><time>2026-04-17T14:28:41Z</time></trkpt><trkpt lat="50.76492476600904" lon="3.0476214765560425"><ele>44.71428571428571</ele><time>2026-04-17T14:28:43Z</time></trkpt><trkpt lat="50.764851781815416" lon="3.0476228952805515"><ele>45.857142857142854</ele><time>2026-04-17T14:28:45Z</time></trkpt><trkpt lat="50.764787924901874" lon="3.0476332609767782"><ele>47.0</ele><time>2026-04-17T14:28:47Z</time></trkpt><trkpt lat="50.76471969052439" lon="3.047627042910085"><ele>47.0</ele><time>2026-04-17T14:28:48.999Z</time></trkpt><trkpt lat="50.764631965324476" lon="3.047608935913144"><ele>47.0</ele><time>2026-04-17T14:28:51.999Z</time></trkpt><trkpt lat="50.764433014601515" lon="3.0475540692112055"><ele>47.0</ele><time>2026-04-17T14:28:56.999Z</time></trkpt><trkpt lat="50.76435133970529" lon="3.0475330017917246"><ele>47.0</ele><time>2026-04-17T14:28:59.999Z</time></trkpt><trkpt lat="50.76425480464176" lon="3.0475345512197474"><ele>47.33333333333333</ele><time>2026-04-17T14:29:02.999Z</time></trkpt><trkpt lat="50.76418100425395" lon="3.047514232727847"><ele>47.666666666666664</ele><time>2026-04-17T14:29:04.999Z</time></trkpt><trkpt lat="50.76411699789305" lon="3.0475123462237335"><ele>48.0</ele><time>2026-04-17T14:29:06.999Z</time></trkpt><trkpt lat="50.76403748510624" lon="3.0475294347615436"><ele>48.33333333333333</ele><time>2026-04-17T14:29:10.999Z</time></trkpt><trkpt lat="50.76395433954538" lon="3.047524735145882"><ele>48.666666666666664</ele><time>2026-04-17T14:29:13.999Z</time></trkpt><trkpt lat="50.763812203734936" lon="3.0475396028520754"><ele>49.0</ele><time>2026-04-17T14:29:18.999Z</time></trkpt><trkpt lat="50.763728884738505" lon="3.047536056682863"><ele>48.99999999999999</ele><time>2026-04-17T14:29:21.999Z</time></trkpt><trkpt lat="50.76364064520441" lon="3.047547771206298"><ele>49.0</ele><time>2026-04-17T14:29:24.999Z</time></trkpt><trkpt lat="50.76356216986604" lon="3.0475661127137355"><ele>49.0</ele><time>2026-04-17T14:29:27.999Z</time></trkpt><trkpt lat="50.76348782006209" lon="3.047593685393718"><ele>49.0</ele><time>2026-04-17T14:29:30.999Z</time></trkpt><trkpt lat="50.76340632331498" lon="3.047619514215412"><ele>48.99999999999999</ele><time>2026-04-17T14:29:33.999Z</time></trkpt><trkpt lat="50.7633392836847" lon="3.0476511115008273"><ele>49.0</ele><time>2026-04-17T14:29:36.999Z</time></trkpt><trkpt lat="50.763186599252776" lon="3.0477110593222436"><ele>49.49999999999999</ele><time>2026-04-17T14:29:43.999Z</time></trkpt><trkpt lat="50.76311291378758" lon="3.0477317359804563"><ele>50.0</ele><time>2026-04-17T14:29:46.999Z</time></trkpt><trkpt lat="50.76304613998864" lon="3.0477739771595664"><ele>50.5</ele><time>2026-04-17T14:29:49.999Z</time></trkpt><trkpt lat="50.7629672881664" lon="3.047796479288892"><ele>51.0</ele><time>2026-04-17T14:29:52.999Z</time></trkpt><trkpt lat="50.76288105967371" lon="3.0478207270979123"><ele>51.49999999999999</ele><time>2026-04-17T14:29:55.999Z</time></trkpt><trkpt lat="50.762799311462814" lon="3.0478558658875534"><ele>52.0</ele><time>2026-04-17T14:29:58.999Z</time></trkpt><trkpt lat="50.76264866005478" lon="3.0478993108070207"><ele>52.83333333333333</ele><time>2026-04-17T14:30:04.998Z</time></trkpt><trkpt lat="50.76257911834263" lon="3.0479236245708425"><ele>53.666666666666664</ele><time>2026-04-17T14:30:07.998Z</time></trkpt><trkpt lat="50.762494506997456" lon="3.047949464371003"><ele>54.5</ele><time>2026-04-17T14:30:10.998Z</time></trkpt><trkpt lat="50.762412245864155" lon="3.0479569642085798"><ele>55.33333333333333</ele><time>2026-04-17T14:30:13.998Z</time></trkpt><trkpt lat="50.762338593761406" lon="3.047978360792301"><ele>56.166666666666664</ele><time>2026-04-17T14:30:15.998Z</time></trkpt><trkpt lat="50.762270437759334" lon="3.0479878341777153"><ele>57.0</ele><time>2026-04-17T14:30:17.998Z</time></trkpt><trkpt lat="50.762196917853906" lon="3.0479992973069696"><ele>57.0</ele><time>2026-04-17T14:30:19.998Z</time></trkpt><trkpt lat="50.76204634119872" lon="3.048017170715926"><ele>57.0</ele><time>2026-04-17T14:30:23.998Z</time></trkpt><trkpt lat="50.76196197119358" lon="3.0480211716490997"><ele>57.0</ele><time>2026-04-17T14:30:25.998Z</time></trkpt><trkpt lat="50.76185970590991" lon="3.0480095738741233"><ele>57.0</ele><time>2026-04-17T14:30:28Z</time></trkpt><trkpt lat="50.7617492710399" lon="3.0480144891429215"><ele>57.0</ele><time>2026-04-17T14:30:30Z</time></trkpt><trkpt lat="50.76162839609786" lon="3.0479904703065923"><ele>57.14285714285714</ele><time>2026-04-17T14:30:32Z</time></trkpt><trkpt lat="50.76156524359682" lon="3.047988869214041"><ele>57.28571428571428</ele><time>2026-04-17T14:30:33Z</time></trkpt><trkpt lat="50.761498626838744" lon="3.0479829398106175"><ele>57.42857142857143</ele><time>2026-04-17T14:30:34Z</time></trkpt><trkpt lat="50.76143590690061" lon="3.0479588170601"><ele>57.57142857142857</ele><time>2026-04-17T14:30:35Z</time></trkpt><trkpt lat="50.76137199445345" lon="3.047951866663787"><ele>57.714285714285715</ele><time>2026-04-17T14:30:36Z</time></trkpt><trkpt lat="50.761301107364446" lon="3.0479343771867335"><ele>57.85714285714286</ele><time>2026-04-17T14:30:37Z</time></trkpt><trkpt lat="50.761223141243676" lon="3.0479330881365643"><ele>58.00000000000001</ele><time>2026-04-17T14:30:38Z</time></trkpt><trkpt lat="50.76114948767227" lon="3.0479110252795034"><ele>58.0</ele><time>2026-04-17T14:30:39Z</time></trkpt><trkpt lat="50.76107769639469" lon="3.0479148676710173"><ele>58.0</ele><time>2026-04-17T14:30:40Z</time></trkpt><trkpt lat="50.761002135115994" lon="3.0478877018256036"><ele>58.0</ele><time>2026-04-17T14:30:41Z</time></trkpt><trkpt lat="50.76083501950467" lon="3.047857613455625"><ele>58.0</ele><time>2026-04-17T14:30:43Z</time></trkpt><trkpt lat="50.76075237944552" lon="3.047829566557525"><ele>58.0</ele><time>2026-04-17T14:30:44Z</time></trkpt><trkpt lat="50.76066781063059" lon="3.047804135488267"><ele>57.33333333333333</ele><time>2026-04-17T14:30:45Z</time></trkpt><trkpt lat="50.76058342463034" lon="3.0477719583252285"><ele>56.666666666666664</ele><time>2026-04-17T14:30:46Z</time></trkpt><trkpt lat="50.760492600963374" lon="3.0477426950558852"><ele>56.0</ele><time>2026-04-17T14:30:47Z</time></trkpt><trkpt lat="50.76040360134653" lon="3.047720623086843"><ele>55.33333333333333</ele><time>2026-04-17T14:30:48Z</time></trkpt><trkpt lat="50.760316944218815" lon="3.047691722877557"><ele>54.666666666666664</ele><time>2026-04-17T14:30:49Z</time></trkpt><trkpt lat="50.760228057072815" lon="3.0476673577575726"><ele>54.0</ele><time>2026-04-17T14:30:50Z</time></trkpt><trkpt lat="50.760140414963175" lon="3.0476505848656363"><ele>52.400000000000006</ele><time>2026-04-17T14:30:51Z</time></trkpt><trkpt lat="50.76004785913836" lon="3.0476420349796913"><ele>50.800000000000004</ele><time>2026-04-17T14:30:52Z</time></trkpt><trkpt lat="50.75995590963331" lon="3.047652021212611"><ele>49.2</ele><time>2026-04-17T14:30:53Z</time></trkpt><trkpt lat="50.759863307143966" lon="3.0476724877816523"><ele>47.599999999999994</ele><time>2026-04-17T14:30:53.999Z</time></trkpt><trkpt lat="50.75976874277618" lon="3.047703957162914"><ele>46.0</ele><time>2026-04-17T14:30:54.999Z</time></trkpt><trkpt lat="50.75967524627504" lon="3.0477386296937885"><ele>46.0</ele><time>2026-04-17T14:30:55.999Z</time></trkpt><trkpt lat="50.759585507080835" lon="3.047772172159328"><ele>46.0</ele><time>2026-04-17T14:30:56.999Z</time></trkpt><trkpt lat="50.759492212732994" lon="3.0478070979426373"><ele>46.0</ele><time>2026-04-17T14:30:57.999Z</time></trkpt><trkpt lat="50.75939845147524" lon="3.047842195625655"><ele>46.0</ele><time>2026-04-17T14:30:58.999Z</time></trkpt><trkpt lat="50.75930499419016" lon="3.0478738616143493"><ele>46.0</ele><time>2026-04-17T14:30:59.999Z</time></trkpt><trkpt lat="50.75921350384695" lon="3.047905799575778"><ele>45.25</ele><time>2026-04-17T14:31:00.999Z</time></trkpt><trkpt lat="50.75912478868963" lon="3.0479439800125143"><ele>44.5</ele><time>2026-04-17T14:31:01.999Z</time></trkpt><trkpt lat="50.75894923249329" lon="3.0480136603405366"><ele>43.75</ele><time>2026-04-17T14:31:03.999Z</time></trkpt><trkpt lat="50.7588608160303" lon="3.048048793327215"><ele>43.0</ele><time>2026-04-17T14:31:04.999Z</time></trkpt><trkpt lat="50.75877097423772" lon="3.048087279503263"><ele>43.0</ele><time>2026-04-17T14:31:05.999Z</time></trkpt><trkpt lat="50.75868018899733" lon="3.0481246725014515"><ele>43.0</ele><time>2026-04-17T14:31:06.999Z</time></trkpt><trkpt lat="50.75858979962317" lon="3.0481601106808873"><ele>43.0</ele><time>2026-04-17T14:31:07.999Z</time></trkpt><trkpt lat="50.758499790503514" lon="3.048197906927756"><ele>43.0</ele><time>2026-04-17T14:31:08.999Z</time></trkpt><trkpt lat="50.75841293649854" lon="3.0482315937694353"><ele>43.0</ele><time>2026-04-17T14:31:09.999Z</time></trkpt><trkpt lat="50.75832864694048" lon="3.0482719240236675"><ele>42.66666666666667</ele><time>2026-04-17T14:31:10.999Z</time></trkpt><trkpt lat="50.75824202153209" lon="3.0483080733966856"><ele>42.333333333333336</ele><time>2026-04-17T14:31:11.999Z</time></trkpt><trkpt lat="50.75815401011011" lon="3.048344091943511"><ele>42.0</ele><time>2026-04-17T14:31:12.999Z</time></trkpt><trkpt lat="50.75806815086039" lon="3.0483793151504797"><ele>41.666666666666664</ele><time>2026-04-17T14:31:13.999Z</time></trkpt><trkpt lat="50.7579828613984" lon="3.0484149378093583"><ele>41.33333333333333</ele><time>2026-04-17T14:31:14.999Z</time></trkpt><trkpt lat="50.75789910168166" lon="3.048453383152074"><ele>41.0</ele><time>2026-04-17T14:31:15.999Z</time></trkpt><trkpt lat="50.75781577537681" lon="3.0484979275333894"><ele>41.0</ele><time>2026-04-17T14:31:16.999Z</time></trkpt><trkpt lat="50.757731726259244" lon="3.048542382737945"><ele>41.0</ele><time>2026-04-17T14:31:17.999Z</time></trkpt><trkpt lat="50.75765221934616" lon="3.048590090700157"><ele>41.0</ele><time>2026-04-17T14:31:18.999Z</time></trkpt><trkpt lat="50.75757367413466" lon="3.048639731150338"><ele>41.0</ele><time>2026-04-17T14:31:19.999Z</time></trkpt><trkpt lat="50.75749469090088" lon="3.04867685591927"><ele>41.0</ele><time>2026-04-17T14:31:20.999Z</time></trkpt><trkpt lat="50.75741789969711" lon="3.0487291521767133"><ele>41.0</ele><time>2026-04-17T14:31:21.999Z</time></trkpt><trkpt lat="50.75734512346836" lon="3.0487823452862024"><ele>40.199999999999996</ele><time>2026-04-17T14:31:22.999Z</time></trkpt><trkpt lat="50.757190551339704" lon="3.048860253953474"><ele>39.4</ele><time>2026-04-17T14:31:24.999Z</time></trkpt><trkpt lat="50.75711827523183" lon="3.048915021876379"><ele>38.6</ele><time>2026-04-17T14:31:25.999Z</time></trkpt><trkpt lat="50.75704858105898" lon="3.048970074168757"><ele>37.8</ele><time>2026-04-17T14:31:26.999Z</time></trkpt><trkpt lat="50.756973932596374" lon="3.0490134028732845"><ele>37.0</ele><time>2026-04-17T14:31:27.999Z</time></trkpt><trkpt lat="50.7569031756565" lon="3.0490531582935994"><ele>36.66666666666667</ele><time>2026-04-17T14:31:28.999Z</time></trkpt><trkpt lat="50.7568334968688" lon="3.0490995460870702"><ele>36.333333333333336</ele><time>2026-04-17T14:31:29.999Z</time></trkpt><trkpt lat="50.75676608052487" lon="3.0491591402194436"><ele>36.0</ele><time>2026-04-17T14:31:30.999Z</time></trkpt><trkpt lat="50.7567036618707" lon="3.049225297121389"><ele>35.666666666666664</ele><time>2026-04-17T14:31:31.999Z</time></trkpt><trkpt lat="50.75664298327278" lon="3.049292281704031"><ele>35.33333333333333</ele><time>2026-04-17T14:31:32.999Z</time></trkpt><trkpt lat="50.75658471438104" lon="3.049370157535823"><ele>35.0</ele><time>2026-04-17T14:31:33.999Z</time></trkpt><trkpt lat="50.75652375000072" lon="3.0494364519311667"><ele>34.83333333333333</ele><time>2026-04-17T14:31:34.999Z</time></trkpt><trkpt lat="50.75645328892422" lon="3.0494957473174185"><ele>34.666666666666664</ele><time>2026-04-17T14:31:35.999Z</time></trkpt><trkpt lat="50.756382417998196" lon="3.049551381292023"><ele>34.5</ele><time>2026-04-17T14:31:36.999Z</time></trkpt><trkpt lat="50.75631166255006" lon="3.0496146461460367"><ele>34.333333333333336</ele><time>2026-04-17T14:31:37.999Z</time></trkpt><trkpt lat="50.756243058452185" lon="3.0496874292064113"><ele>34.16666666666667</ele><time>2026-04-17T14:31:38.999Z</time></trkpt><trkpt lat="50.75617725354026" lon="3.0497622910703868"><ele>34.0</ele><time>2026-04-17T14:31:39.999Z</time></trkpt><trkpt lat="50.75610607761474" lon="3.049834578405577"><ele>34.0</ele><time>2026-04-17T14:31:40.999Z</time></trkpt><trkpt lat="50.756034746644815" lon="3.0499004896104696"><ele>34.0</ele><time>2026-04-17T14:31:41.999Z</time></trkpt><trkpt lat="50.75596430046716" lon="3.0499739874274523"><ele>34.0</ele><time>2026-04-17T14:31:42.999Z</time></trkpt><trkpt lat="50.75589359801948" lon="3.0500434801476115"><ele>34.0</ele><time>2026-04-17T14:31:43.999Z</time></trkpt><trkpt lat="50.75575415233982" lon="3.0501926520127123"><ele>34.0</ele><time>2026-04-17T14:31:45.999Z</time></trkpt><trkpt lat="50.75560140294862" lon="3.05032263088333"><ele>33.833333333333336</ele><time>2026-04-17T14:31:47.999Z</time></trkpt><trkpt lat="50.7555295302723" lon="3.050401086454317"><ele>33.66666666666667</ele><time>2026-04-17T14:31:48.999Z</time></trkpt><trkpt lat="50.7554581608209" lon="3.050476376426956"><ele>33.5</ele><time>2026-04-17T14:31:49.999Z</time></trkpt><trkpt lat="50.755379692262984" lon="3.050552806975084"><ele>33.333333333333336</ele><time>2026-04-17T14:31:50.999Z</time></trkpt><trkpt lat="50.75530815275439" lon="3.050624406557557"><ele>33.166666666666664</ele><time>2026-04-17T14:31:51.999Z</time></trkpt><trkpt lat="50.755234782780306" lon="3.0506984569620963"><ele>33.0</ele><time>2026-04-17T14:31:52.999Z</time></trkpt><trkpt lat="50.75516227079566" lon="3.050771357935689"><ele>32.0</ele><time>2026-04-17T14:31:53.999Z</time></trkpt><trkpt lat="50.755089050959405" lon="3.050846476553679"><ele>31.0</ele><time>2026-04-17T14:31:54.999Z</time></trkpt><trkpt lat="50.7550153013996" lon="3.050916343969863"><ele>30.0</ele><time>2026-04-17T14:31:55.999Z</time></trkpt><trkpt lat="50.75494355613952" lon="3.0509893617831456"><ele>29.0</ele><time>2026-04-17T14:31:56.999Z</time></trkpt><trkpt lat="50.75487011211305" lon="3.0510549251039647"><ele>28.0</ele><time>2026-04-17T14:31:57.999Z</time></trkpt><trkpt lat="50.75479673271175" lon="3.0511198171781295"><ele>27.0</ele><time>2026-04-17T14:31:58.999Z</time></trkpt><trkpt lat="50.75472405552245" lon="3.0511813333131776"><ele>27.0</ele><time>2026-04-17T14:31:59.999Z</time></trkpt><trkpt lat="50.75464904747482" lon="3.0512406828736496"><ele>27.0</ele><time>2026-04-17T14:32:00.999Z</time></trkpt><trkpt lat="50.75457808283651" lon="3.051306307243037"><ele>27.0</ele><time>2026-04-17T14:32:01.999Z</time></trkpt><trkpt lat="50.75450509438914" lon="3.0513674089166476"><ele>27.0</ele><time>2026-04-17T14:32:02.999Z</time></trkpt><trkpt lat="50.754435703598546" lon="3.051429286465613"><ele>27.0</ele><time>2026-04-17T14:32:03.999Z</time></trkpt><trkpt lat="50.754364234100095" lon="3.0514867622393553"><ele>27.0</ele><time>2026-04-17T14:32:04.999Z</time></trkpt><trkpt lat="50.754222285984056" lon="3.0515951816687688"><ele>27.0</ele><time>2026-04-17T14:32:06.999Z</time></trkpt><trkpt lat="50.7541567066587" lon="3.051651873877359"><ele>27.0</ele><time>2026-04-17T14:32:07.999Z</time></trkpt><trkpt lat="50.75408474537829" lon="3.051707625321031"><ele>27.0</ele><time>2026-04-17T14:32:08.999Z</time></trkpt><trkpt lat="50.754016269627314" lon="3.0517652999893263"><ele>27.0</ele><time>2026-04-17T14:32:09.999Z</time></trkpt><trkpt lat="50.75394937014572" lon="3.051823109462906"><ele>27.0</ele><time>2026-04-17T14:32:10.999Z</time></trkpt><trkpt lat="50.75388201970323" lon="3.0518776319731287"><ele>27.0</ele><time>2026-04-17T14:32:11.998Z</time></trkpt><trkpt lat="50.75381197495261" lon="3.0519327157128116"><ele>27.0</ele><time>2026-04-17T14:32:12.998Z</time></trkpt><trkpt lat="50.7537456373238" lon="3.051985494712458"><ele>27.0</ele><time>2026-04-17T14:32:13.998Z</time></trkpt><trkpt lat="50.75368022419653" lon="3.052043116287135"><ele>27.0</ele><time>2026-04-17T14:32:14.998Z</time></trkpt><trkpt lat="50.75361365783421" lon="3.0520958066577513"><ele>27.0</ele><time>2026-04-17T14:32:15.998Z</time></trkpt><trkpt lat="50.753546424451855" lon="3.052138270360397"><ele>27.0</ele><time>2026-04-17T14:32:16.998Z</time></trkpt><trkpt lat="50.753482053343454" lon="3.052188830971909"><ele>27.0</ele><time>2026-04-17T14:32:17.998Z</time></trkpt><trkpt lat="50.75341954729998" lon="3.0522283499514797"><ele>27.0</ele><time>2026-04-17T14:32:18.998Z</time></trkpt><trkpt lat="50.75335489947029" lon="3.0522582883482428"><ele>26.0</ele><time>2026-04-17T14:32:19.998Z</time></trkpt><trkpt lat="50.75323722613584" lon="3.0522893336524572"><ele>25.0</ele><time>2026-04-17T14:32:21.998Z</time></trkpt><trkpt lat="50.753128675050625" lon="3.052220262923324"><ele>24.0</ele><time>2026-04-17T14:32:23.998Z</time></trkpt><trkpt lat="50.753017364969715" lon="3.0521439794668472"><ele>23.0</ele><time>2026-04-17T14:32:25.998Z</time></trkpt><trkpt lat="50.75284047533829" lon="3.0521503867873"><ele>23.0</ele><time>2026-04-17T14:32:30.998Z</time></trkpt><trkpt lat="50.7527744432095" lon="3.052226552078314"><ele>23.0</ele><time>2026-04-17T14:32:33Z</time></trkpt><trkpt lat="50.75275443723255" lon="3.052332183884559"><ele>23.0</ele><time>2026-04-17T14:32:35Z</time></trkpt><trkpt lat="50.75269567692791" lon="3.0523944849967983"><ele>23.0</ele><time>2026-04-17T14:32:37Z</time></trkpt><trkpt lat="50.75269189731908" lon="3.0525121029655122"><ele>23.0</ele><time>2026-04-17T14:32:40Z</time></trkpt><trkpt lat="50.752685634767026" lon="3.052655854411964"><ele>23.0</ele><time>2026-04-17T14:33:27.999Z</time></trkpt><trkpt lat="50.752650007973" lon="3.0527559652011624"><ele>23.0</ele><time>2026-04-17T14:33:29.999Z</time></trkpt><trkpt lat="50.75258955147385" lon="3.052859159975665"><ele>23.0</ele><time>2026-04-17T14:33:31.999Z</time></trkpt><trkpt lat="50.75241683590596" lon="3.053064083859784"><ele>23.0</ele><time>2026-04-17T14:33:35.999Z</time></trkpt><trkpt lat="50.75231357046732" lon="3.053165838845816"><ele>23.0</ele><time>2026-04-17T14:33:37.999Z</time></trkpt><trkpt lat="50.7522571098665" lon="3.0532125537893218"><ele>23.0</ele><time>2026-04-17T14:33:38.999Z</time></trkpt><trkpt lat="50.75219993476851" lon="3.0532603717230695"><ele>23.0</ele><time>2026-04-17T14:33:39.999Z</time></trkpt><trkpt lat="50.75214000476648" lon="3.0533083762463"><ele>23.0</ele><time>2026-04-17T14:33:40.999Z</time></trkpt><trkpt lat="50.752079455018965" lon="3.053357964619081"><ele>23.0</ele><time>2026-04-17T14:33:41.999Z</time></trkpt><trkpt lat="50.75201923992546" lon="3.0534147633196884"><ele>23.0</ele><time>2026-04-17T14:33:42.999Z</time></trkpt><trkpt lat="50.751957958481306" lon="3.0534673706846123"><ele>23.0</ele><time>2026-04-17T14:33:43.999Z</time></trkpt><trkpt lat="50.7518977393047" lon="3.053525353585457"><ele>23.0</ele><time>2026-04-17T14:33:44.999Z</time></trkpt><trkpt lat="50.75183900925501" lon="3.05358934311615"><ele>23.0</ele><time>2026-04-17T14:33:45.999Z</time></trkpt><trkpt lat="50.75178018949265" lon="3.053655812260165"><ele>23.0</ele><time>2026-04-17T14:33:46.999Z</time></trkpt><trkpt lat="50.751721939884696" lon="3.0537240736898044"><ele>23.0</ele><time>2026-04-17T14:33:47.999Z</time></trkpt><trkpt lat="50.75166079767057" lon="3.053787378206207"><ele>23.0</ele><time>2026-04-17T14:33:48.999Z</time></trkpt><trkpt lat="50.75160171281882" lon="3.053861663154632"><ele>23.0</ele><time>2026-04-17T14:33:49.999Z</time></trkpt><trkpt lat="50.75154182506347" lon="3.0539341036351257"><ele>23.0</ele><time>2026-04-17T14:33:50.999Z</time></trkpt><trkpt lat="50.751486580905144" lon="3.0540108086639917"><ele>23.0</ele><time>2026-04-17T14:33:51.999Z</time></trkpt><trkpt lat="50.75142956246427" lon="3.054090909407866"><ele>22.599999999999998</ele><time>2026-04-17T14:33:52.999Z</time></trkpt><trkpt lat="50.75131834102077" lon="3.054251341900383"><ele>22.2</ele><time>2026-04-17T14:33:54.999Z</time></trkpt><trkpt lat="50.75126375306795" lon="3.054334016498959"><ele>21.8</ele><time>2026-04-17T14:33:55.999Z</time></trkpt><trkpt lat="50.75121265655612" lon="3.0544241494480353"><ele>21.4</ele><time>2026-04-17T14:33:56.999Z</time></trkpt><trkpt lat="50.751161087189566" lon="3.0545087380708167"><ele>21.0</ele><time>2026-04-17T14:33:57.999Z</time></trkpt><trkpt lat="50.75110662480407" lon="3.05459230110367"><ele>21.0</ele><time>2026-04-17T14:33:58.999Z</time></trkpt><trkpt lat="50.751055842254004" lon="3.0546759615986576"><ele>21.0</ele><time>2026-04-17T14:33:59.999Z</time></trkpt><trkpt lat="50.751007776277966" lon="3.0547533294700084"><ele>21.0</ele><time>2026-04-17T14:34:00.999Z</time></trkpt><trkpt lat="50.750958884203115" lon="3.0548308850372123"><ele>21.0</ele><time>2026-04-17T14:34:01.999Z</time></trkpt><trkpt lat="50.750908846388214" lon="3.0549106069631256"><ele>21.0</ele><time>2026-04-17T14:34:02.999Z</time></trkpt><trkpt lat="50.75085612940538" lon="3.0549830264537294"><ele>21.0</ele><time>2026-04-17T14:34:03.999Z</time></trkpt><trkpt lat="50.75080259193867" lon="3.0550567887928457"><ele>21.0</ele><time>2026-04-17T14:34:04.999Z</time></trkpt><trkpt lat="50.75074798968805" lon="3.0551220344076437"><ele>20.8</ele><time>2026-04-17T14:34:05.999Z</time></trkpt><trkpt lat="50.75069705850627" lon="3.0551845302279506"><ele>20.6</ele><time>2026-04-17T14:34:06.998Z</time></trkpt><trkpt lat="50.750640450754496" lon="3.0552471558782743"><ele>20.4</ele><time>2026-04-17T14:34:07.998Z</time></trkpt><trkpt lat="50.750538964148014" lon="3.055366839902021"><ele>20.2</ele><time>2026-04-17T14:34:09.998Z</time></trkpt><trkpt lat="50.75048341328647" lon="3.0554228133489008"><ele>20.0</ele><time>2026-04-17T14:34:10.998Z</time></trkpt><trkpt lat="50.75038050927257" lon="3.0555341317159437"><ele>20.0</ele><time>2026-04-17T14:34:12.998Z</time></trkpt><trkpt lat="50.75032587937667" lon="3.055585533692803"><ele>20.0</ele><time>2026-04-17T14:34:13.998Z</time></trkpt><trkpt lat="50.75021203896893" lon="3.055685227139795"><ele>20.0</ele><time>2026-04-17T14:34:15.998Z</time></trkpt><trkpt lat="50.75010444588833" lon="3.0557732375842654"><ele>20.0</ele><time>2026-04-17T14:34:17.998Z</time></trkpt><trkpt lat="50.749998049254245" lon="3.0558625249657743"><ele>20.0</ele><time>2026-04-17T14:34:19.998Z</time></trkpt><trkpt lat="50.749936652331364" lon="3.055894270521374"><ele>21.0</ele><time>2026-04-17T14:34:20.998Z</time></trkpt><trkpt lat="50.74982615436854" lon="3.0559701826015657"><ele>22.0</ele><time>2026-04-17T14:34:22.998Z</time></trkpt><trkpt lat="50.74971452337474" lon="3.0560427231779332"><ele>23.0</ele><time>2026-04-17T14:34:24.998Z</time></trkpt><trkpt lat="50.74959798829762" lon="3.0561070953082248"><ele>24.0</ele><time>2026-04-17T14:34:26.998Z</time></trkpt><trkpt lat="50.749483781542914" lon="3.0561763095034684"><ele>24.0</ele><time>2026-04-17T14:34:28.998Z</time></trkpt><trkpt lat="50.74937326406009" lon="3.0562493235718726"><ele>24.0</ele><time>2026-04-17T14:34:30.998Z</time></trkpt><trkpt lat="50.74931283802865" lon="3.0562855103715934"><ele>24.0</ele><time>2026-04-17T14:34:31.998Z</time></trkpt><trkpt lat="50.74919771636498" lon="3.056348314802582"><ele>24.0</ele><time>2026-04-17T14:34:33.998Z</time></trkpt><trkpt lat="50.74907947194516" lon="3.056405004195921"><ele>24.0</ele><time>2026-04-17T14:34:35.998Z</time></trkpt><trkpt lat="50.74889705730857" lon="3.0565015712795627"><ele>23.999999999999996</ele><time>2026-04-17T14:34:39Z</time></trkpt><trkpt lat="50.74883423602521" lon="3.056535527006318"><ele>24.0</ele><time>2026-04-17T14:34:40Z</time></trkpt><trkpt lat="50.748774626469086" lon="3.056574950156285"><ele>24.0</ele><time>2026-04-17T14:34:41Z</time></trkpt><trkpt lat="50.74870977656281" lon="3.056602019037635"><ele>24.0</ele><time>2026-04-17T14:34:42Z</time></trkpt><trkpt lat="50.74864797967252" lon="3.0566336291702276"><ele>24.0</ele><time>2026-04-17T14:34:43Z</time></trkpt><trkpt lat="50.74858539502099" lon="3.0566657354757916"><ele>23.999999999999996</ele><time>2026-04-17T14:34:44Z</time></trkpt><trkpt lat="50.74852243341826" lon="3.056703203868723"><ele>24.0</ele><time>2026-04-17T14:34:45Z</time></trkpt><trkpt lat="50.74846101488648" lon="3.056744732644073"><ele>23.833333333333332</ele><time>2026-04-17T14:34:46Z</time></trkpt><trkpt lat="50.748397791364035" lon="3.056783154405005"><ele>23.666666666666668</ele><time>2026-04-17T14:34:47Z</time></trkpt><trkpt lat="50.748334908378865" lon="3.0568236739471613"><ele>23.5</ele><time>2026-04-17T14:34:48Z</time></trkpt><trkpt lat="50.74827641831618" lon="3.056866949878221"><ele>23.333333333333336</ele><time>2026-04-17T14:34:49Z</time></trkpt><trkpt lat="50.74821492842237" lon="3.0569074446598297"><ele>23.166666666666668</ele><time>2026-04-17T14:34:50Z</time></trkpt><trkpt lat="50.748155767722274" lon="3.0569483424471082"><ele>23.0</ele><time>2026-04-17T14:34:51Z</time></trkpt><trkpt lat="50.74803979765912" lon="3.0570292212117263"><ele>23.0</ele><time>2026-04-17T14:34:53Z</time></trkpt><trkpt lat="50.7479827983282" lon="3.057076025993293"><ele>23.0</ele><time>2026-04-17T14:34:54Z</time></trkpt><trkpt lat="50.74792431389159" lon="3.0571193282409874"><ele>23.0</ele><time>2026-04-17T14:34:55Z</time></trkpt><trkpt lat="50.74786524455316" lon="3.0571626532054434"><ele>23.0</ele><time>2026-04-17T14:34:56Z</time></trkpt><trkpt lat="50.74780554171751" lon="3.0572033838608137"><ele>23.0</ele><time>2026-04-17T14:34:57Z</time></trkpt><trkpt lat="50.74769043315302" lon="3.0573002470466015"><ele>23.0</ele><time>2026-04-17T14:34:58.999Z</time></trkpt><trkpt lat="50.74763484865835" lon="3.0573531408215695"><ele>23.0</ele><time>2026-04-17T14:34:59.999Z</time></trkpt><trkpt lat="50.74757955239882" lon="3.0574022159704"><ele>23.0</ele><time>2026-04-17T14:35:00.999Z</time></trkpt><trkpt lat="50.747524404511374" lon="3.0574551835407906"><ele>23.0</ele><time>2026-04-17T14:35:01.999Z</time></trkpt><trkpt lat="50.747469846875084" lon="3.057512492632833"><ele>23.0</ele><time>2026-04-17T14:35:02.999Z</time></trkpt><trkpt lat="50.74741298380993" lon="3.0575702648837595"><ele>23.0</ele><time>2026-04-17T14:35:03.999Z</time></trkpt><trkpt lat="50.74735417052004" lon="3.057619880894979"><ele>23.0</ele><time>2026-04-17T14:35:04.999Z</time></trkpt><trkpt lat="50.74729866695095" lon="3.057679925027452"><ele>23.0</ele><time>2026-04-17T14:35:05.999Z</time></trkpt><trkpt lat="50.74724121707246" lon="3.0577398037581736"><ele>23.0</ele><time>2026-04-17T14:35:06.999Z</time></trkpt><trkpt lat="50.74718265028162" lon="3.057798534163503"><ele>23.0</ele><time>2026-04-17T14:35:07.999Z</time></trkpt><trkpt lat="50.74712449273837" lon="3.0578591837196885"><ele>23.0</ele><time>2026-04-17T14:35:08.999Z</time></trkpt><trkpt lat="50.747067253547534" lon="3.057917331328513"><ele>23.0</ele><time>2026-04-17T14:35:09.999Z</time></trkpt><trkpt lat="50.747010403833265" lon="3.057975850527621"><ele>23.0</ele><time>2026-04-17T14:35:10.999Z</time></trkpt><trkpt lat="50.74695484881634" lon="3.0580369576336897"><ele>23.0</ele><time>2026-04-17T14:35:11.999Z</time></trkpt><trkpt lat="50.746894652777875" lon="3.0580964373702546"><ele>23.0</ele><time>2026-04-17T14:35:12.999Z</time></trkpt><trkpt lat="50.746839993884684" lon="3.058159636758737"><ele>23.0</ele><time>2026-04-17T14:35:13.999Z</time></trkpt><trkpt lat="50.74678502003115" lon="3.058224451010494"><ele>23.0</ele><time>2026-04-17T14:35:14.999Z</time></trkpt><trkpt lat="50.746732313231526" lon="3.0582919616246205"><ele>23.0</ele><time>2026-04-17T14:35:15.999Z</time></trkpt><trkpt lat="50.746679074861426" lon="3.058366651099513"><ele>23.0</ele><time>2026-04-17T14:35:16.999Z</time></trkpt><trkpt lat="50.74662738905952" lon="3.0584378179227416"><ele>23.0</ele><time>2026-04-17T14:35:17.999Z</time></trkpt><trkpt lat="50.746529891707986" lon="3.0585809369861545"><ele>23.0</ele><time>2026-04-17T14:35:19.999Z</time></trkpt><trkpt lat="50.74647793617008" lon="3.0586509749910675"><ele>23.0</ele><time>2026-04-17T14:35:20.999Z</time></trkpt><trkpt lat="50.74642475363444" lon="3.058718111311582"><ele>23.0</ele><time>2026-04-17T14:35:21.999Z</time></trkpt><trkpt lat="50.74637113971136" lon="3.058785218995762"><ele>23.0</ele><time>2026-04-17T14:35:22.999Z</time></trkpt><trkpt lat="50.746319907185125" lon="3.058855709564711"><ele>23.0</ele><time>2026-04-17T14:35:23.999Z</time></trkpt><trkpt lat="50.74626476955383" lon="3.0589193870203015"><ele>23.0</ele><time>2026-04-17T14:35:24.999Z</time></trkpt><trkpt lat="50.746207620253315" lon="3.0589816003216876"><ele>23.0</ele><time>2026-04-17T14:35:25.999Z</time></trkpt><trkpt lat="50.74614776591763" lon="3.0590347980467523"><ele>23.0</ele><time>2026-04-17T14:35:26.999Z</time></trkpt><trkpt lat="50.7460900236389" lon="3.0590921798460973"><ele>23.0</ele><time>2026-04-17T14:35:27.999Z</time></trkpt><trkpt lat="50.746028479447716" lon="3.0591412702513154"><ele>23.0</ele><time>2026-04-17T14:35:28.999Z</time></trkpt><trkpt lat="50.74596528307308" lon="3.0591898881366175"><ele>23.0</ele><time>2026-04-17T14:35:29.999Z</time></trkpt><trkpt lat="50.745902998009484" lon="3.0592369274182882"><ele>23.0</ele><time>2026-04-17T14:35:30.999Z</time></trkpt><trkpt lat="50.745839349770165" lon="3.0592821209354635"><ele>23.0</ele><time>2026-04-17T14:35:31.999Z</time></trkpt><trkpt lat="50.74577651447399" lon="3.0593301640760173"><ele>23.0</ele><time>2026-04-17T14:35:32.999Z</time></trkpt><trkpt lat="50.74571343131423" lon="3.0593790703407167"><ele>23.0</ele><time>2026-04-17T14:35:33.999Z</time></trkpt><trkpt lat="50.74564809756256" lon="3.0594260800847652"><ele>23.0</ele><time>2026-04-17T14:35:34.999Z</time></trkpt><trkpt lat="50.74558219149137" lon="3.0594790060582415"><ele>23.0</ele><time>2026-04-17T14:35:35.999Z</time></trkpt><trkpt lat="50.745519409591616" lon="3.0595216562194594"><ele>23.0</ele><time>2026-04-17T14:35:36.999Z</time></trkpt><trkpt lat="50.74545255660557" lon="3.05957141115345"><ele>23.0</ele><time>2026-04-17T14:35:37.999Z</time></trkpt><trkpt lat="50.74539271244267" lon="3.0596213231866356"><ele>23.0</ele><time>2026-04-17T14:35:38.999Z</time></trkpt><trkpt lat="50.74526457564894" lon="3.0597222476579593"><ele>23.0</ele><time>2026-04-17T14:35:40.999Z</time></trkpt><trkpt lat="50.74520089433484" lon="3.059772187534519"><ele>22.857142857142858</ele><time>2026-04-17T14:35:41.999Z</time></trkpt><trkpt lat="50.74513688954596" lon="3.0598246087951213"><ele>22.71428571428571</ele><time>2026-04-17T14:35:42.999Z</time></trkpt><trkpt lat="50.745072814167905" lon="3.0598747972868554"><ele>22.57142857142857</ele><time>2026-04-17T14:35:43.999Z</time></trkpt><trkpt lat="50.7450073704734" lon="3.059913144452994"><ele>22.42857142857143</ele><time>2026-04-17T14:35:44.999Z</time></trkpt><trkpt lat="50.744938920937024" lon="3.0599415346354855"><ele>22.285714285714285</ele><time>2026-04-17T14:35:45.999Z</time></trkpt><trkpt lat="50.7448721042349" lon="3.059977982967496"><ele>22.142857142857142</ele><time>2026-04-17T14:35:46.999Z</time></trkpt><trkpt lat="50.74481231810661" lon="3.0600393230433345"><ele>22.0</ele><time>2026-04-17T14:35:47.999Z</time></trkpt><trkpt lat="50.744755606682816" lon="3.0601045750243383"><ele>22.0</ele><time>2026-04-17T14:35:48.999Z</time></trkpt><trkpt lat="50.74469951093068" lon="3.060171494646622"><ele>22.0</ele><time>2026-04-17T14:35:49.999Z</time></trkpt><trkpt lat="50.744637071183654" lon="3.0602153446390448"><ele>22.0</ele><time>2026-04-17T14:35:50.999Z</time></trkpt><trkpt lat="50.74457099283089" lon="3.0602612386991623"><ele>22.0</ele><time>2026-04-17T14:35:51.999Z</time></trkpt><trkpt lat="50.74450971855121" lon="3.060312517363021"><ele>22.0</ele><time>2026-04-17T14:35:52.999Z</time></trkpt><trkpt lat="50.74444936282844" lon="3.0603624403577645"><ele>22.0</ele><time>2026-04-17T14:35:53.999Z</time></trkpt><trkpt lat="50.74438875137609" lon="3.060408619086678"><ele>22.0</ele><time>2026-04-17T14:35:54.999Z</time></trkpt><trkpt lat="50.7443284312496" lon="3.060449800966288"><ele>21.833333333333332</ele><time>2026-04-17T14:35:55.999Z</time></trkpt><trkpt lat="50.74426611096674" lon="3.0604899135574164"><ele>21.666666666666664</ele><time>2026-04-17T14:35:56.999Z</time></trkpt><trkpt lat="50.74420728019212" lon="3.060534816549346"><ele>21.5</ele><time>2026-04-17T14:35:57.999Z</time></trkpt><trkpt lat="50.744148373962595" lon="3.0605781666726317"><ele>21.333333333333332</ele><time>2026-04-17T14:35:58.999Z</time></trkpt><trkpt lat="50.74408651021888" lon="3.060615651306006"><ele>21.166666666666668</ele><time>2026-04-17T14:35:59.999Z</time></trkpt><trkpt lat="50.74396832432202" lon="3.0606928680148875"><ele>21.0</ele><time>2026-04-17T14:36:01.999Z</time></trkpt><trkpt lat="50.74390787016069" lon="3.0607308534045443"><ele>21.0</ele><time>2026-04-17T14:36:02.999Z</time></trkpt><trkpt lat="50.74384926035728" lon="3.060767196668456"><ele>21.0</ele><time>2026-04-17T14:36:03.999Z</time></trkpt><trkpt lat="50.7437896563637" lon="3.0608004961899176"><ele>21.0</ele><time>2026-04-17T14:36:04.999Z</time></trkpt><trkpt lat="50.74367353020171" lon="3.060865959516529"><ele>21.0</ele><time>2026-04-17T14:36:06.999Z</time></trkpt><trkpt lat="50.743556419583726" lon="3.060934826728298"><ele>21.0</ele><time>2026-04-17T14:36:08.999Z</time></trkpt><trkpt lat="50.743441600670415" lon="3.061000613045375"><ele>21.5</ele><time>2026-04-17T14:36:10.999Z</time></trkpt><trkpt lat="50.7433267941206" lon="3.06107174972008"><ele>22.0</ele><time>2026-04-17T14:36:12.999Z</time></trkpt><trkpt lat="50.74321439259181" lon="3.0611293469284693"><ele>22.5</ele><time>2026-04-17T14:36:14.998Z</time></trkpt><trkpt lat="50.743101030762915" lon="3.061170180483636"><ele>23.0</ele><time>2026-04-17T14:36:16.998Z</time></trkpt><trkpt lat="50.742986574949235" lon="3.061197108599596"><ele>23.0</ele><time>2026-04-17T14:36:18.998Z</time></trkpt><trkpt lat="50.74287872920353" lon="3.0612366785437186"><ele>23.0</ele><time>2026-04-17T14:36:20.998Z</time></trkpt><trkpt lat="50.74266449496563" lon="3.0613653654050217"><ele>23.0</ele><time>2026-04-17T14:36:24.998Z</time></trkpt><trkpt lat="50.74261939651153" lon="3.0614351513676303"><ele>23.0</ele><time>2026-04-17T14:36:25.998Z</time></trkpt><trkpt lat="50.74258698524338" lon="3.061609779051478"><ele>22.666666666666668</ele><time>2026-04-17T14:36:27.998Z</time></trkpt><trkpt lat="50.742579215321086" lon="3.0618019857943204"><ele>22.333333333333336</ele><time>2026-04-17T14:36:29.998Z</time></trkpt><trkpt lat="50.7425752863493" lon="3.061913012846601"><ele>22.0</ele><time>2026-04-17T14:36:30.998Z</time></trkpt><trkpt lat="50.74257378642252" lon="3.0620162684113423"><ele>21.666666666666668</ele><time>2026-04-17T14:36:31.998Z</time></trkpt><trkpt lat="50.74256525148957" lon="3.0621222295570343"><ele>21.333333333333332</ele><time>2026-04-17T14:36:32.998Z</time></trkpt><trkpt lat="50.74255777656442" lon="3.0622236914351277"><ele>21.0</ele><time>2026-04-17T14:36:33.998Z</time></trkpt><trkpt lat="50.74255078722236" lon="3.062330724387684"><ele>21.0</ele><time>2026-04-17T14:36:34.998Z</time></trkpt><trkpt lat="50.74254194105788" lon="3.0624361591780516"><ele>21.0</ele><time>2026-04-17T14:36:35.998Z</time></trkpt><trkpt lat="50.742533142895596" lon="3.0625409531281824"><ele>21.0</ele><time>2026-04-17T14:36:36.998Z</time></trkpt><trkpt lat="50.74252189299664" lon="3.0626507711676245"><ele>21.0</ele><time>2026-04-17T14:36:37.998Z</time></trkpt><trkpt lat="50.74251980186635" lon="3.0627555718101913"><ele>21.0</ele><time>2026-04-17T14:36:38.998Z</time></trkpt><trkpt lat="50.742514471393825" lon="3.062871223356627"><ele>21.0</ele><time>2026-04-17T14:36:39.998Z</time></trkpt><trkpt lat="50.7425079370054" lon="3.0629792365101185"><ele>21.0</ele><time>2026-04-17T14:36:40.998Z</time></trkpt><trkpt lat="50.74250077991178" lon="3.063091599094296"><ele>21.0</ele><time>2026-04-17T14:36:41.998Z</time></trkpt><trkpt lat="50.74248470888178" lon="3.063316284610867"><ele>21.0</ele><time>2026-04-17T14:36:43.998Z</time></trkpt><trkpt lat="50.74247916213062" lon="3.0634321327514784"><ele>21.0</ele><time>2026-04-17T14:36:45Z</time></trkpt><trkpt lat="50.742471692671764" lon="3.0635372913173957"><ele>21.0</ele><time>2026-04-17T14:36:46Z</time></trkpt><trkpt lat="50.74246767653737" lon="3.063646168011373"><ele>21.0</ele><time>2026-04-17T14:36:47Z</time></trkpt><trkpt lat="50.742461534867196" lon="3.063754928993049"><ele>21.0</ele><time>2026-04-17T14:36:48Z</time></trkpt><trkpt lat="50.74245772948749" lon="3.063866366880367"><ele>21.0</ele><time>2026-04-17T14:36:49Z</time></trkpt><trkpt lat="50.74245537342761" lon="3.063975047000868"><ele>21.0</ele><time>2026-04-17T14:36:50Z</time></trkpt><trkpt lat="50.742449813345765" lon="3.0640832350867115"><ele>21.0</ele><time>2026-04-17T14:36:51Z</time></trkpt><trkpt lat="50.74244770824198" lon="3.0641891408181103"><ele>21.0</ele><time>2026-04-17T14:36:52Z</time></trkpt><trkpt lat="50.74244450225671" lon="3.064295686311526"><ele>21.0</ele><time>2026-04-17T14:36:53Z</time></trkpt><trkpt lat="50.74243113647213" lon="3.06440020953091"><ele>21.0</ele><time>2026-04-17T14:36:54Z</time></trkpt><trkpt lat="50.742414158084095" lon="3.0645001993609378"><ele>21.0</ele><time>2026-04-17T14:36:55.001Z</time></trkpt><trkpt lat="50.74239584376582" lon="3.0646041892665163"><ele>21.0</ele><time>2026-04-17T14:36:56.001Z</time></trkpt><trkpt lat="50.74237416323762" lon="3.0646999604416125"><ele>21.0</ele><time>2026-04-17T14:36:57.001Z</time></trkpt><trkpt lat="50.742348579013886" lon="3.064796209409306"><ele>21.0</ele><time>2026-04-17T14:36:58.001Z</time></trkpt><trkpt lat="50.742318085239475" lon="3.0648872984095403"><ele>21.0</ele><time>2026-04-17T14:36:59.001Z</time></trkpt><trkpt lat="50.74228585931176" lon="3.064975888296876"><ele>21.0</ele><time>2026-04-17T14:37:00.001Z</time></trkpt><trkpt lat="50.74225121237416" lon="3.0650601249790497"><ele>21.0</ele><time>2026-04-17T14:37:01Z</time></trkpt><trkpt lat="50.74217306054792" lon="3.0652114244696786"><ele>21.0</ele><time>2026-04-17T14:37:03Z</time></trkpt><trkpt lat="50.74200978004803" lon="3.065493033478919"><ele>21.0</ele><time>2026-04-17T14:37:07Z</time></trkpt><trkpt lat="50.7419322130904" lon="3.0656326548044106"><ele>21.0</ele><time>2026-04-17T14:37:09Z</time></trkpt><trkpt lat="50.741851649541346" lon="3.065781563337244"><ele>21.0</ele><time>2026-04-17T14:37:11Z</time></trkpt><trkpt lat="50.74177861844697" lon="3.0659142121579896"><ele>21.0</ele><time>2026-04-17T14:37:13Z</time></trkpt><trkpt lat="50.74170654778674" lon="3.066051572052564"><ele>21.25</ele><time>2026-04-17T14:37:15Z</time></trkpt><trkpt lat="50.74163584400363" lon="3.0661928113136674"><ele>21.5</ele><time>2026-04-17T14:37:17Z</time></trkpt><trkpt lat="50.741569430168546" lon="3.0663349665372195"><ele>21.75</ele><time>2026-04-17T14:37:19Z</time></trkpt><trkpt lat="50.741501453768905" lon="3.0664880976215847"><ele>22.0</ele><time>2026-04-17T14:37:21Z</time></trkpt><trkpt lat="50.74143065331906" lon="3.0666311886387847"><ele>22.333333333333332</ele><time>2026-04-17T14:37:23Z</time></trkpt><trkpt lat="50.7413626640128" lon="3.0667773624233683"><ele>22.666666666666668</ele><time>2026-04-17T14:37:25Z</time></trkpt><trkpt lat="50.74123073239993" lon="3.0670675883803455"><ele>23.0</ele><time>2026-04-17T14:37:29Z</time></trkpt><trkpt lat="50.741163433068614" lon="3.067205474353794"><ele>23.0</ele><time>2026-04-17T14:37:31Z</time></trkpt><trkpt lat="50.74110121049128" lon="3.0673448773922205"><ele>23.0</ele><time>2026-04-17T14:37:33Z</time></trkpt><trkpt lat="50.741038690500424" lon="3.0674799946659004"><ele>23.0</ele><time>2026-04-17T14:37:35Z</time></trkpt><trkpt lat="50.74097971448888" lon="3.0676160886848542"><ele>23.0</ele><time>2026-04-17T14:37:37Z</time></trkpt><trkpt lat="50.740920423294206" lon="3.0677460033973647"><ele>23.0</ele><time>2026-04-17T14:37:39Z</time></trkpt><trkpt lat="50.74086274240279" lon="3.0678714757402243"><ele>23.25</ele><time>2026-04-17T14:37:41Z</time></trkpt><trkpt lat="50.74080344285701" lon="3.0679904105930382"><ele>23.5</ele><time>2026-04-17T14:37:43Z</time></trkpt><trkpt lat="50.74075002633164" lon="3.06811590774461"><ele>23.75</ele><time>2026-04-17T14:37:45Z</time></trkpt><trkpt lat="50.740711092713184" lon="3.068250586090527"><ele>24.0</ele><time>2026-04-17T14:37:47Z</time></trkpt><trkpt lat="50.74066871967185" lon="3.0685575692766114"><ele>24.0</ele><time>2026-04-17T14:37:51Z</time></trkpt><trkpt lat="50.74065887460627" lon="3.068716786319186"><ele>24.0</ele><time>2026-04-17T14:37:53Z</time></trkpt><trkpt lat="50.74064789675113" lon="3.0688811603361876"><ele>24.0</ele><time>2026-04-17T14:37:55Z</time></trkpt><trkpt lat="50.74063394049022" lon="3.0690445834522753"><ele>24.0</ele><time>2026-04-17T14:37:57Z</time></trkpt><trkpt lat="50.74060929259487" lon="3.0691963136346954"><ele>24.0</ele><time>2026-04-17T14:37:59Z</time></trkpt><trkpt lat="50.74057152262825" lon="3.0693514229465375"><ele>24.0</ele><time>2026-04-17T14:38:01Z</time></trkpt><trkpt lat="50.74052663883098" lon="3.0694858620669327"><ele>24.0</ele><time>2026-04-17T14:38:03Z</time></trkpt><trkpt lat="50.740480528729066" lon="3.0696183911988837"><ele>24.0</ele><time>2026-04-17T14:38:05Z</time></trkpt><trkpt lat="50.74042737028713" lon="3.069749164795714"><ele>24.0</ele><time>2026-04-17T14:38:07Z</time></trkpt><trkpt lat="50.74037865663617" lon="3.06987912799896"><ele>24.0</ele><time>2026-04-17T14:38:09Z</time></trkpt><trkpt lat="50.740280463207974" lon="3.070121965033876"><ele>24.0</ele><time>2026-04-17T14:38:12.999Z</time></trkpt><trkpt lat="50.74022926986652" lon="3.0702345006927287"><ele>24.0</ele><time>2026-04-17T14:38:14.999Z</time></trkpt><trkpt lat="50.74017628790581" lon="3.070344553225279"><ele>24.0</ele><time>2026-04-17T14:38:16.999Z</time></trkpt><trkpt lat="50.740119432920935" lon="3.0704513859477416"><ele>24.0</ele><time>2026-04-17T14:38:18.999Z</time></trkpt><trkpt lat="50.74006135938101" lon="3.07055962564531"><ele>24.0</ele><time>2026-04-17T14:38:20.999Z</time></trkpt><trkpt lat="50.73999582566633" lon="3.0706625896997766"><ele>24.0</ele><time>2026-04-17T14:38:22.999Z</time></trkpt><trkpt lat="50.7399324110272" lon="3.0707684638535726"><ele>24.5</ele><time>2026-04-17T14:38:24.999Z</time></trkpt><trkpt lat="50.73986061674658" lon="3.070861736571004"><ele>25.0</ele><time>2026-04-17T14:38:26.999Z</time></trkpt><trkpt lat="50.73979809633097" lon="3.07096205385232"><ele>25.5</ele><time>2026-04-17T14:38:28.999Z</time></trkpt><trkpt lat="50.73972845983148" lon="3.07106300227938"><ele>26.0</ele><time>2026-04-17T14:38:30.999Z</time></trkpt><trkpt lat="50.73958925224859" lon="3.071250557531734"><ele>26.0</ele><time>2026-04-17T14:38:34.999Z</time></trkpt><trkpt lat="50.739512472331896" lon="3.071343757107945"><ele>26.0</ele><time>2026-04-17T14:38:36.999Z</time></trkpt><trkpt lat="50.73943504309232" lon="3.071432108322949"><ele>26.0</ele><time>2026-04-17T14:38:38.999Z</time></trkpt><trkpt lat="50.73936053875109" lon="3.0715233041978935"><ele>26.0</ele><time>2026-04-17T14:38:40.999Z</time></trkpt><trkpt lat="50.73927923876315" lon="3.071596340071484"><ele>26.0</ele><time>2026-04-17T14:38:42.999Z</time></trkpt><trkpt lat="50.739201811849135" lon="3.0716618873908748"><ele>26.4</ele><time>2026-04-17T14:38:44.999Z</time></trkpt><trkpt lat="50.73910981513458" lon="3.0717075940848066"><ele>26.8</ele><time>2026-04-17T14:38:46.999Z</time></trkpt><trkpt lat="50.73900759086484" lon="3.0717458659971295"><ele>27.199999999999996</ele><time>2026-04-17T14:38:48.999Z</time></trkpt><trkpt lat="50.73891506545655" lon="3.071772530288993"><ele>27.599999999999998</ele><time>2026-04-17T14:38:51Z</time></trkpt><trkpt lat="50.738826919633574" lon="3.0717722930280016"><ele>28.0</ele><time>2026-04-17T14:38:53Z</time></trkpt><trkpt lat="50.73864495795574" lon="3.07175740640775"><ele>28.000000000000004</ele><time>2026-04-17T14:38:57Z</time></trkpt><trkpt lat="50.73856112555569" lon="3.071749016329378"><ele>28.0</ele><time>2026-04-17T14:38:59Z</time></trkpt><trkpt lat="50.738480016719244" lon="3.0717343548344886"><ele>28.0</ele><time>2026-04-17T14:39:01Z</time></trkpt><trkpt lat="50.73839129916876" lon="3.071726721818196"><ele>28.0</ele><time>2026-04-17T14:39:03Z</time></trkpt><trkpt lat="50.73830674589677" lon="3.071718873966461"><ele>28.000000000000004</ele><time>2026-04-17T14:39:05Z</time></trkpt><trkpt lat="50.738210348990826" lon="3.0717163122994333"><ele>28.0</ele><time>2026-04-17T14:39:07Z</time></trkpt><trkpt lat="50.73811870815989" lon="3.0717037042596465"><ele>28.2</ele><time>2026-04-17T14:39:09Z</time></trkpt><trkpt lat="50.73802504253084" lon="3.0716998953909718"><ele>28.4</ele><time>2026-04-17T14:39:11Z</time></trkpt><trkpt lat="50.73794462784555" lon="3.071723272018619"><ele>28.599999999999998</ele><time>2026-04-17T14:39:13Z</time></trkpt><trkpt lat="50.73787570233065" lon="3.0717500026854845"><ele>28.799999999999997</ele><time>2026-04-17T14:39:15Z</time></trkpt><trkpt lat="50.73773734175339" lon="3.07171927395872"><ele>29.0</ele><time>2026-04-17T14:39:19Z</time></trkpt><trkpt lat="50.73766363749261" lon="3.071735793718081"><ele>29.499999999999996</ele><time>2026-04-17T14:39:21Z</time></trkpt><trkpt lat="50.737584375534844" lon="3.071726872946318"><ele>30.0</ele><time>2026-04-17T14:39:23Z</time></trkpt><trkpt lat="50.73749480171929" lon="3.071733715143127"><ele>30.5</ele><time>2026-04-17T14:39:25Z</time></trkpt><trkpt lat="50.737411980664056" lon="3.0717656296045006"><ele>31.0</ele><time>2026-04-17T14:39:27Z</time></trkpt><trkpt lat="50.737340104649604" lon="3.071813010162278"><ele>31.499999999999996</ele><time>2026-04-17T14:39:29Z</time></trkpt><trkpt lat="50.737268289970665" lon="3.071857736605926"><ele>32.0</ele><time>2026-04-17T14:39:31Z</time></trkpt><trkpt lat="50.73720065023082" lon="3.0719175035743125"><ele>32.0</ele><time>2026-04-17T14:39:33Z</time></trkpt><trkpt lat="50.7371333402225" lon="3.071976810543525"><ele>32.0</ele><time>2026-04-17T14:39:35Z</time></trkpt><trkpt lat="50.73706174155119" lon="3.0720488845489897"><ele>32.0</ele><time>2026-04-17T14:39:37Z</time></trkpt><trkpt lat="50.73691821587298" lon="3.0722142691298084"><ele>32.0</ele><time>2026-04-17T14:39:41Z</time></trkpt><trkpt lat="50.73684359424344" lon="3.0722829463138157"><ele>32.0</ele><time>2026-04-17T14:39:43Z</time></trkpt><trkpt lat="50.73677669793131" lon="3.07235990758013"><ele>32.5</ele><time>2026-04-17T14:39:45Z</time></trkpt><trkpt lat="50.73670485059772" lon="3.072436433932759"><ele>33.0</ele><time>2026-04-17T14:39:47Z</time></trkpt><trkpt lat="50.73663637068244" lon="3.0725112543727233"><ele>33.5</ele><time>2026-04-17T14:39:49Z</time></trkpt><trkpt lat="50.73656863038358" lon="3.0725888937344683"><ele>34.0</ele><time>2026-04-17T14:39:51Z</time></trkpt><trkpt lat="50.73650832526721" lon="3.0726653215258173"><ele>34.5</ele><time>2026-04-17T14:39:53Z</time></trkpt><trkpt lat="50.73644525708716" lon="3.072741638515661"><ele>35.0</ele><time>2026-04-17T14:39:55Z</time></trkpt><trkpt lat="50.73638487844155" lon="3.0728116519338147"><ele>35.2</ele><time>2026-04-17T14:39:57Z</time></trkpt><trkpt lat="50.736326526432315" lon="3.072884539760087"><ele>35.4</ele><time>2026-04-17T14:39:59Z</time></trkpt><trkpt lat="50.73621120893772" lon="3.0730450048073976"><ele>35.6</ele><time>2026-04-17T14:40:03Z</time></trkpt><trkpt lat="50.73615582693181" lon="3.073126639324312"><ele>35.8</ele><time>2026-04-17T14:40:05Z</time></trkpt><trkpt lat="50.736098549963565" lon="3.0732081204279234"><ele>36.0</ele><time>2026-04-17T14:40:07Z</time></trkpt><trkpt lat="50.73603641062474" lon="3.0732836308139118"><ele>36.666666666666664</ele><time>2026-04-17T14:40:09Z</time></trkpt><trkpt lat="50.735984463961884" lon="3.0733614709700525"><ele>37.333333333333336</ele><time>2026-04-17T14:40:11Z</time></trkpt><trkpt lat="50.73592894868757" lon="3.0734466603872144"><ele>38.0</ele><time>2026-04-17T14:40:13Z</time></trkpt><trkpt lat="50.73587060187763" lon="3.0735239138141495"><ele>38.66666666666667</ele><time>2026-04-17T14:40:15Z</time></trkpt><trkpt lat="50.73581150094371" lon="3.07360061804964"><ele>39.333333333333336</ele><time>2026-04-17T14:40:17Z</time></trkpt><trkpt lat="50.73574762806152" lon="3.073680627327652"><ele>40.0</ele><time>2026-04-17T14:40:18.999Z</time></trkpt><trkpt lat="50.73568718128883" lon="3.0737607273889194"><ele>40.0</ele><time>2026-04-17T14:40:20.999Z</time></trkpt><trkpt lat="50.73557720313909" lon="3.073913257705095"><ele>40.0</ele><time>2026-04-17T14:40:24.999Z</time></trkpt><trkpt lat="50.735513356545404" lon="3.073984888519546"><ele>40.0</ele><time>2026-04-17T14:40:26.999Z</time></trkpt><trkpt lat="50.73544099461089" lon="3.074064831252672"><ele>40.0</ele><time>2026-04-17T14:40:28.999Z</time></trkpt><trkpt lat="50.73537832233989" lon="3.0741352058045917"><ele>40.0</ele><time>2026-04-17T14:40:30.999Z</time></trkpt><trkpt lat="50.73531492848139" lon="3.0742130014304507"><ele>40.0</ele><time>2026-04-17T14:40:32.999Z</time></trkpt><trkpt lat="50.735251766353464" lon="3.0742999601374437"><ele>40.0</ele><time>2026-04-17T14:40:34.999Z</time></trkpt><trkpt lat="50.735197623956765" lon="3.0743912180275013"><ele>40.0</ele><time>2026-04-17T14:40:36.999Z</time></trkpt><trkpt lat="50.7351428354597" lon="3.0744641274484916"><ele>40.0</ele><time>2026-04-17T14:40:38.999Z</time></trkpt><trkpt lat="50.73508590582895" lon="3.0745375354158178"><ele>40.0</ele><time>2026-04-17T14:40:40.999Z</time></trkpt><trkpt lat="50.7350203370761" lon="3.074612926653673"><ele>40.0</ele><time>2026-04-17T14:40:42.999Z</time></trkpt><trkpt lat="50.73487500942938" lon="3.07480678543449"><ele>40.5</ele><time>2026-04-17T14:40:46.999Z</time></trkpt><trkpt lat="50.73480029618429" lon="3.0749004076671422"><ele>41.0</ele><time>2026-04-17T14:40:48.999Z</time></trkpt><trkpt lat="50.734732179634314" lon="3.0749976708685227"><ele>41.5</ele><time>2026-04-17T14:40:50.999Z</time></trkpt><trkpt lat="50.734665316827744" lon="3.075085243327421"><ele>42.0</ele><time>2026-04-17T14:40:52.999Z</time></trkpt><trkpt lat="50.73459423637062" lon="3.075166730726071"><ele>42.5</ele><time>2026-04-17T14:40:54.999Z</time></trkpt><trkpt lat="50.73453075862397" lon="3.075254947296314"><ele>43.0</ele><time>2026-04-17T14:40:57Z</time></trkpt><trkpt lat="50.734467476813876" lon="3.0753354978664493"><ele>43.25</ele><time>2026-04-17T14:40:59Z</time></trkpt><trkpt lat="50.7344025358783" lon="3.0754210915247167"><ele>43.5</ele><time>2026-04-17T14:41:01Z</time></trkpt><trkpt lat="50.734327080191036" lon="3.0755263633369627"><ele>43.75</ele><time>2026-04-17T14:41:03Z</time></trkpt><trkpt lat="50.73425002891143" lon="3.075620020023899"><ele>44.0</ele><time>2026-04-17T14:41:05Z</time></trkpt><trkpt lat="50.7341267797621" lon="3.0758047047741375"><ele>44.800000000000004</ele><time>2026-04-17T14:41:09Z</time></trkpt><trkpt lat="50.73406493837413" lon="3.075901468471718"><ele>45.6</ele><time>2026-04-17T14:41:11Z</time></trkpt><trkpt lat="50.73400225207392" lon="3.076017338292241"><ele>46.4</ele><time>2026-04-17T14:41:13Z</time></trkpt><trkpt lat="50.73393627436509" lon="3.076135835550401"><ele>47.2</ele><time>2026-04-17T14:41:15Z</time></trkpt><trkpt lat="50.73387189951644" lon="3.076260776900335"><ele>48.0</ele><time>2026-04-17T14:41:17Z</time></trkpt><trkpt lat="50.733796154335934" lon="3.0763824759168807"><ele>48.0</ele><time>2026-04-17T14:41:19Z</time></trkpt><trkpt lat="50.73372380645072" lon="3.0765225106805767"><ele>48.0</ele><time>2026-04-17T14:41:21Z</time></trkpt><trkpt lat="50.73364827666275" lon="3.0766563100534836"><ele>48.0</ele><time>2026-04-17T14:41:23Z</time></trkpt><trkpt lat="50.733561449743426" lon="3.076799282781147"><ele>48.0</ele><time>2026-04-17T14:41:25Z</time></trkpt><trkpt lat="50.73351303308051" lon="3.0768750763330885"><ele>48.0</ele><time>2026-04-17T14:41:26Z</time></trkpt><trkpt lat="50.73340991719652" lon="3.0770194003952795"><ele>47.857142857142854</ele><time>2026-04-17T14:41:28Z</time></trkpt><trkpt lat="50.733352471283574" lon="3.0770865269384937"><ele>47.714285714285715</ele><time>2026-04-17T14:41:29Z</time></trkpt><trkpt lat="50.733295881718156" lon="3.0771572150207636"><ele>47.57142857142857</ele><time>2026-04-17T14:41:30Z</time></trkpt><trkpt lat="50.73323579070012" lon="3.077224103794181"><ele>47.42857142857143</ele><time>2026-04-17T14:41:31Z</time></trkpt><trkpt lat="50.73317404854307" lon="3.0772896911504586"><ele>47.285714285714285</ele><time>2026-04-17T14:41:32Z</time></trkpt><trkpt lat="50.73311249542829" lon="3.077357161179771"><ele>47.14285714285714</ele><time>2026-04-17T14:41:33Z</time></trkpt><trkpt lat="50.733054723623226" lon="3.0774261941526024"><ele>47.0</ele><time>2026-04-17T14:41:34Z</time></trkpt><trkpt lat="50.73299714450825" lon="3.0774944700896443"><ele>46.666666666666664</ele><time>2026-04-17T14:41:35Z</time></trkpt><trkpt lat="50.73294297166893" lon="3.077570284638141"><ele>46.33333333333333</ele><time>2026-04-17T14:41:36Z</time></trkpt><trkpt lat="50.73288033453389" lon="3.0776413802835"><ele>46.0</ele><time>2026-04-17T14:41:37Z</time></trkpt><trkpt lat="50.73281588954629" lon="3.077715172246579"><ele>45.666666666666664</ele><time>2026-04-17T14:41:38Z</time></trkpt><trkpt lat="50.732750303381174" lon="3.0777920845526805"><ele>45.333333333333336</ele><time>2026-04-17T14:41:39Z</time></trkpt><trkpt lat="50.73268160180597" lon="3.0778655379467583"><ele>45.0</ele><time>2026-04-17T14:41:40Z</time></trkpt><trkpt lat="50.73261006673738" lon="3.0779407835190487"><ele>44.6</ele><time>2026-04-17T14:41:41Z</time></trkpt><trkpt lat="50.73254133234975" lon="3.0780251214022036"><ele>44.2</ele><time>2026-04-17T14:41:42Z</time></trkpt><trkpt lat="50.73247009198752" lon="3.078112870049081"><ele>43.8</ele><time>2026-04-17T14:41:43Z</time></trkpt><trkpt lat="50.73239502518792" lon="3.078206306201035"><ele>43.4</ele><time>2026-04-17T14:41:44Z</time></trkpt><trkpt lat="50.732317881474685" lon="3.078296496293108"><ele>43.0</ele><time>2026-04-17T14:41:45Z</time></trkpt><trkpt lat="50.73223615108647" lon="3.078386941444332"><ele>42.5</ele><time>2026-04-17T14:41:46Z</time></trkpt><trkpt lat="50.73215369506489" lon="3.0784730573446506"><ele>42.0</ele><time>2026-04-17T14:41:47Z</time></trkpt><trkpt lat="50.731975126265944" lon="3.0786572968228794"><ele>41.5</ele><time>2026-04-17T14:41:49Z</time></trkpt><trkpt lat="50.731886138480306" lon="3.078761974109298"><ele>41.0</ele><time>2026-04-17T14:41:50Z</time></trkpt><trkpt lat="50.73180125809996" lon="3.078874562289938"><ele>40.199999999999996</ele><time>2026-04-17T14:41:51Z</time></trkpt><trkpt lat="50.73171102400371" lon="3.078985827631775"><ele>39.4</ele><time>2026-04-17T14:41:52Z</time></trkpt><trkpt lat="50.73162137172179" lon="3.079095242092253"><ele>38.6</ele><time>2026-04-17T14:41:53Z</time></trkpt><trkpt lat="50.731529623525326" lon="3.079193609114662"><ele>37.8</ele><time>2026-04-17T14:41:54Z</time></trkpt><trkpt lat="50.73143522429384" lon="3.0792844729156155"><ele>37.0</ele><time>2026-04-17T14:41:55Z</time></trkpt><trkpt lat="50.73133877104438" lon="3.0793741970980038"><ele>37.0</ele><time>2026-04-17T14:41:56Z</time></trkpt><trkpt lat="50.73124191472442" lon="3.0794673988428873"><ele>37.0</ele><time>2026-04-17T14:41:57Z</time></trkpt><trkpt lat="50.731143798780636" lon="3.0795658589447195"><ele>37.0</ele><time>2026-04-17T14:41:58Z</time></trkpt><trkpt lat="50.73104505725478" lon="3.07965452506926"><ele>37.0</ele><time>2026-04-17T14:41:59Z</time></trkpt><trkpt lat="50.73094073104828" lon="3.07973253559217"><ele>36.0</ele><time>2026-04-17T14:42:00Z</time></trkpt><trkpt lat="50.73083594005516" lon="3.0798055480725135"><ele>35.0</ele><time>2026-04-17T14:42:01Z</time></trkpt><trkpt lat="50.73073017010547" lon="3.0798676517415413"><ele>34.0</ele><time>2026-04-17T14:42:02Z</time></trkpt><trkpt lat="50.730625771796184" lon="3.0799266537086334"><ele>33.0</ele><time>2026-04-17T14:42:03Z</time></trkpt><trkpt lat="50.730523652933876" lon="3.0799975792622254"><ele>32.8</ele><time>2026-04-17T14:42:04Z</time></trkpt><trkpt lat="50.7304260264263" lon="3.0800718093807316"><ele>32.599999999999994</ele><time>2026-04-17T14:42:05Z</time></trkpt><trkpt lat="50.730328441824305" lon="3.0801440271413933"><ele>32.400000000000006</ele><time>2026-04-17T14:42:06Z</time></trkpt><trkpt lat="50.73023054853376" lon="3.0802150717855157"><ele>32.2</ele><time>2026-04-17T14:42:07Z</time></trkpt><trkpt lat="50.730132522394456" lon="3.080271494568976"><ele>32.0</ele><time>2026-04-17T14:42:08Z</time></trkpt><trkpt lat="50.729936944732245" lon="3.0803678943402466"><ele>31.200000000000003</ele><time>2026-04-17T14:42:10Z</time></trkpt><trkpt lat="50.72984157196395" lon="3.080407837565545"><ele>30.400000000000002</ele><time>2026-04-17T14:42:11Z</time></trkpt><trkpt lat="50.729745860726894" lon="3.080444405132181"><ele>29.599999999999998</ele><time>2026-04-17T14:42:12Z</time></trkpt><trkpt lat="50.72965257989456" lon="3.0804809636154404"><ele>28.799999999999997</ele><time>2026-04-17T14:42:13Z</time></trkpt><trkpt lat="50.72955827923172" lon="3.0805047644199792"><ele>28.0</ele><time>2026-04-17T14:42:14Z</time></trkpt><trkpt lat="50.72946492248443" lon="3.0805218303385784"><ele>27.4</ele><time>2026-04-17T14:42:15Z</time></trkpt><trkpt lat="50.72936679426671" lon="3.0805326456163327"><ele>26.799999999999997</ele><time>2026-04-17T14:42:16Z</time></trkpt><trkpt lat="50.729278438563426" lon="3.080546685563079"><ele>26.2</ele><time>2026-04-17T14:42:17Z</time></trkpt><trkpt lat="50.72918868504607" lon="3.0805612901098938"><ele>25.6</ele><time>2026-04-17T14:42:17.999Z</time></trkpt><trkpt lat="50.72909795929859" lon="3.0805668646606446"><ele>25.0</ele><time>2026-04-17T14:42:18.999Z</time></trkpt><trkpt lat="50.72901250162543" lon="3.080564890281"><ele>25.000000000000004</ele><time>2026-04-17T14:42:19.999Z</time></trkpt><trkpt lat="50.72892736559805" lon="3.0805650828837834"><ele>25.0</ele><time>2026-04-17T14:42:20.999Z</time></trkpt><trkpt lat="50.72884206213079" lon="3.0805573541459523"><ele>25.0</ele><time>2026-04-17T14:42:21.999Z</time></trkpt><trkpt lat="50.728760076012385" lon="3.0805430234130706"><ele>25.0</ele><time>2026-04-17T14:42:22.999Z</time></trkpt><trkpt lat="50.728677495037914" lon="3.0805294044768194"><ele>25.000000000000004</ele><time>2026-04-17T14:42:23.999Z</time></trkpt><trkpt lat="50.7285970965949" lon="3.0805132331043152"><ele>25.0</ele><time>2026-04-17T14:42:24.999Z</time></trkpt><trkpt lat="50.7285175126162" lon="3.0804963757144814"><ele>25.0</ele><time>2026-04-17T14:42:25.999Z</time></trkpt><trkpt lat="50.72843882288237" lon="3.080471729067259"><ele>25.0</ele><time>2026-04-17T14:42:26.999Z</time></trkpt><trkpt lat="50.72836291706534" lon="3.0804452939044293"><ele>25.0</ele><time>2026-04-17T14:42:27.999Z</time></trkpt><trkpt lat="50.72828877792415" lon="3.0804144944171457"><ele>25.0</ele><time>2026-04-17T14:42:28.999Z</time></trkpt><trkpt lat="50.72814233123671" lon="3.0803575692503418"><ele>25.0</ele><time>2026-04-17T14:42:30.999Z</time></trkpt><trkpt lat="50.72807062104816" lon="3.080329766725625"><ele>25.000000000000004</ele><time>2026-04-17T14:42:31.999Z</time></trkpt><trkpt lat="50.72799911072851" lon="3.080307305372854"><ele>25.0</ele><time>2026-04-17T14:42:32.999Z</time></trkpt><trkpt lat="50.7279304419676" lon="3.080281669597195"><ele>25.0</ele><time>2026-04-17T14:42:33.999Z</time></trkpt><trkpt lat="50.72786144167509" lon="3.08026145963458"><ele>25.0</ele><time>2026-04-17T14:42:34.999Z</time></trkpt><trkpt lat="50.72779291095267" lon="3.0802407570532027"><ele>25.0</ele><time>2026-04-17T14:42:35.999Z</time></trkpt><trkpt lat="50.72772398325468" lon="3.0802247402769254"><ele>25.000000000000004</ele><time>2026-04-17T14:42:36.999Z</time></trkpt><trkpt lat="50.72765568813961" lon="3.0802159880417954"><ele>25.0</ele><time>2026-04-17T14:42:37.999Z</time></trkpt><trkpt lat="50.72758728851651" lon="3.0802086430088758"><ele>25.333333333333336</ele><time>2026-04-17T14:42:38.999Z</time></trkpt><trkpt lat="50.727518314080825" lon="3.0801969399446416"><ele>25.666666666666668</ele><time>2026-04-17T14:42:39.999Z</time></trkpt><trkpt lat="50.72745234891894" lon="3.080185867578129"><ele>26.0</ele><time>2026-04-17T14:42:40.999Z</time></trkpt><trkpt lat="50.727385785190954" lon="3.080183254687571"><ele>26.333333333333336</ele><time>2026-04-17T14:42:41.999Z</time></trkpt><trkpt lat="50.72731942767985" lon="3.0801846778451214"><ele>26.666666666666668</ele><time>2026-04-17T14:42:42.999Z</time></trkpt><trkpt lat="50.72719290199262" lon="3.0801849900462748"><ele>27.0</ele><time>2026-04-17T14:42:44.999Z</time></trkpt><trkpt lat="50.72712738173121" lon="3.080186817928841"><ele>27.0</ele><time>2026-04-17T14:42:45.999Z</time></trkpt><trkpt lat="50.72705993666421" lon="3.0801952972897153"><ele>27.000000000000004</ele><time>2026-04-17T14:42:46.999Z</time></trkpt><trkpt lat="50.72699064923712" lon="3.080204887886807"><ele>27.000000000000004</ele><time>2026-04-17T14:42:47.999Z</time></trkpt><trkpt lat="50.72692549086689" lon="3.0802158684290264"><ele>27.0</ele><time>2026-04-17T14:42:48.999Z</time></trkpt><trkpt lat="50.726801693068374" lon="3.08024597352991"><ele>27.0</ele><time>2026-04-17T14:42:50.999Z</time></trkpt><trkpt lat="50.72661678656512" lon="3.0802969138044154"><ele>26.5</ele><time>2026-04-17T14:42:53.999Z</time></trkpt><trkpt lat="50.72649225116687" lon="3.080345194823498"><ele>26.0</ele><time>2026-04-17T14:42:55.999Z</time></trkpt><trkpt lat="50.72642910939845" lon="3.0803659876360805"><ele>25.5</ele><time>2026-04-17T14:42:56.999Z</time></trkpt><trkpt lat="50.726366453207916" lon="3.0803906223918984"><ele>25.0</ele><time>2026-04-17T14:42:57.999Z</time></trkpt><trkpt lat="50.72630325693659" lon="3.0804187150190243"><ele>24.5</ele><time>2026-04-17T14:42:58.999Z</time></trkpt><trkpt lat="50.72624063400571" lon="3.08044289011703"><ele>24.0</ele><time>2026-04-17T14:42:59.999Z</time></trkpt><trkpt lat="50.726177997829545" lon="3.0804603268449444"><ele>23.999999999999996</ele><time>2026-04-17T14:43:00.999Z</time></trkpt><trkpt lat="50.726114881756324" lon="3.080480957699437"><ele>24.0</ele><time>2026-04-17T14:43:01.999Z</time></trkpt><trkpt lat="50.726052392595015" lon="3.0805062969157486"><ele>24.0</ele><time>2026-04-17T14:43:03Z</time></trkpt><trkpt lat="50.72599039135685" lon="3.0805320526446835"><ele>24.0</ele><time>2026-04-17T14:43:04Z</time></trkpt><trkpt lat="50.72592889308623" lon="3.080560190222437"><ele>24.0</ele><time>2026-04-17T14:43:05Z</time></trkpt><trkpt lat="50.72586741092722" lon="3.0805841302380585"><ele>23.999999999999996</ele><time>2026-04-17T14:43:06Z</time></trkpt><trkpt lat="50.72574503818217" lon="3.0806287293934744"><ele>24.0</ele><time>2026-04-17T14:43:08Z</time></trkpt><trkpt lat="50.72568440297995" lon="3.0806588969786257"><ele>23.333333333333332</ele><time>2026-04-17T14:43:09Z</time></trkpt><trkpt lat="50.725563566133694" lon="3.080690640640104"><ele>22.666666666666664</ele><time>2026-04-17T14:43:11Z</time></trkpt><trkpt lat="50.72544408677692" lon="3.0807142935619747"><ele>22.0</ele><time>2026-04-17T14:43:13Z</time></trkpt><trkpt lat="50.725215367811245" lon="3.080742626070705"><ele>21.75</ele><time>2026-04-17T14:43:17Z</time></trkpt><trkpt lat="50.725100099727854" lon="3.080746639398701"><ele>21.5</ele><time>2026-04-17T14:43:19Z</time></trkpt><trkpt lat="50.724989023088405" lon="3.0807494225744048"><ele>21.25</ele><time>2026-04-17T14:43:21Z</time></trkpt><trkpt lat="50.72487810233526" lon="3.080768058722981"><ele>21.0</ele><time>2026-04-17T14:43:23Z</time></trkpt><trkpt lat="50.72476150282774" lon="3.080752869036747"><ele>20.75</ele><time>2026-04-17T14:43:25Z</time></trkpt><trkpt lat="50.724651067230866" lon="3.080720896201624"><ele>20.5</ele><time>2026-04-17T14:43:27Z</time></trkpt><trkpt lat="50.724537861370194" lon="3.0807084159328637"><ele>20.25</ele><time>2026-04-17T14:43:29Z</time></trkpt><trkpt lat="50.724421248118325" lon="3.0806903102143"><ele>20.0</ele><time>2026-04-17T14:43:31Z</time></trkpt><trkpt lat="50.72430173511983" lon="3.080665049470653"><ele>20.0</ele><time>2026-04-17T14:43:33Z</time></trkpt><trkpt lat="50.72418478440832" lon="3.0806484499014024"><ele>20.0</ele><time>2026-04-17T14:43:35Z</time></trkpt><trkpt lat="50.72394894474797" lon="3.0806070412823656"><ele>20.0</ele><time>2026-04-17T14:43:39Z</time></trkpt><trkpt lat="50.7238320360875" lon="3.0805906362040685"><ele>20.0</ele><time>2026-04-17T14:43:41Z</time></trkpt><trkpt lat="50.72371218931191" lon="3.080563421676464"><ele>20.0</ele><time>2026-04-17T14:43:43Z</time></trkpt><trkpt lat="50.72358936525067" lon="3.0805409211994923"><ele>20.0</ele><time>2026-04-17T14:43:45Z</time></trkpt><trkpt lat="50.72346876880837" lon="3.0805046142146235"><ele>20.0</ele><time>2026-04-17T14:43:47Z</time></trkpt><trkpt lat="50.72335037463007" lon="3.0804785309293314"><ele>20.25</ele><time>2026-04-17T14:43:49Z</time></trkpt><trkpt lat="50.72323552329222" lon="3.080454088439687"><ele>20.5</ele><time>2026-04-17T14:43:51Z</time></trkpt><trkpt lat="50.723119327755434" lon="3.0804244613554532"><ele>20.75</ele><time>2026-04-17T14:43:53Z</time></trkpt><trkpt lat="50.72300536479386" lon="3.080401246008853"><ele>21.0</ele><time>2026-04-17T14:43:55Z</time></trkpt><trkpt lat="50.722891977895166" lon="3.080373247319403"><ele>20.75</ele><time>2026-04-17T14:43:57Z</time></trkpt><trkpt lat="50.72267193755274" lon="3.080318660413275"><ele>20.5</ele><time>2026-04-17T14:44:01Z</time></trkpt><trkpt lat="50.722559555987544" lon="3.080307811742614"><ele>20.25</ele><time>2026-04-17T14:44:03Z</time></trkpt><trkpt lat="50.722449958025244" lon="3.08033089992153"><ele>20.0</ele><time>2026-04-17T14:44:05Z</time></trkpt><trkpt lat="50.722346683244076" lon="3.0803738952902004"><ele>20.0</ele><time>2026-04-17T14:44:07Z</time></trkpt><trkpt lat="50.72223389297055" lon="3.0804156398556644"><ele>20.0</ele><time>2026-04-17T14:44:09Z</time></trkpt><trkpt lat="50.722125538265395" lon="3.080479241856412"><ele>20.0</ele><time>2026-04-17T14:44:11Z</time></trkpt><trkpt lat="50.72202053616382" lon="3.0805717264173147"><ele>20.0</ele><time>2026-04-17T14:44:13Z</time></trkpt><trkpt lat="50.72196271606668" lon="3.0806245532546352"><ele>20.0</ele><time>2026-04-17T14:44:14Z</time></trkpt><trkpt lat="50.72186348184016" lon="3.080735962169429"><ele>20.75</ele><time>2026-04-17T14:44:16Z</time></trkpt><trkpt lat="50.721770713643174" lon="3.080854101164799"><ele>21.5</ele><time>2026-04-17T14:44:18Z</time></trkpt><trkpt lat="50.72162309578333" lon="3.0810009500647997"><ele>22.25</ele><time>2026-04-17T14:44:21Z</time></trkpt><trkpt lat="50.72152514699441" lon="3.0811122212602173"><ele>23.0</ele><time>2026-04-17T14:44:22.999Z</time></trkpt><trkpt lat="50.721437516782586" lon="3.0812395538241693"><ele>23.0</ele><time>2026-04-17T14:44:24.999Z</time></trkpt><trkpt lat="50.72138591058534" lon="3.0812985615659567"><ele>23.0</ele><time>2026-04-17T14:44:25.999Z</time></trkpt><trkpt lat="50.72129437961525" lon="3.0814041863436707"><ele>23.0</ele><time>2026-04-17T14:44:27.999Z</time></trkpt><trkpt lat="50.721199504427005" lon="3.081508549229291"><ele>23.0</ele><time>2026-04-17T14:44:29.999Z</time></trkpt><trkpt lat="50.72110353611574" lon="3.0816060937996865"><ele>23.0</ele><time>2026-04-17T14:44:31.999Z</time></trkpt><trkpt lat="50.72100881163637" lon="3.0816992025550713"><ele>22.5</ele><time>2026-04-17T14:44:33.999Z</time></trkpt><trkpt lat="50.720915587287834" lon="3.0817944060035467"><ele>22.0</ele><time>2026-04-17T14:44:35.999Z</time></trkpt><trkpt lat="50.720816745870366" lon="3.0818669196349284"><ele>21.5</ele><time>2026-04-17T14:44:37.999Z</time></trkpt><trkpt lat="50.7207134985541" lon="3.0819237345024257"><ele>21.0</ele><time>2026-04-17T14:44:39.999Z</time></trkpt><trkpt lat="50.720499393940585" lon="3.081999511459184"><ele>21.0</ele><time>2026-04-17T14:44:43.999Z</time></trkpt><trkpt lat="50.720389084007365" lon="3.081993175539634"><ele>21.0</ele><time>2026-04-17T14:44:45.999Z</time></trkpt><trkpt lat="50.72027577562073" lon="3.081980120249429"><ele>21.0</ele><time>2026-04-17T14:44:47.999Z</time></trkpt><trkpt lat="50.72016340604735" lon="3.0819702294816103"><ele>21.0</ele><time>2026-04-17T14:44:49.999Z</time></trkpt><trkpt lat="50.720050842683754" lon="3.0819627871238158"><ele>21.0</ele><time>2026-04-17T14:44:51.999Z</time></trkpt><trkpt lat="50.71993307575396" lon="3.081946670715315"><ele>20.75</ele><time>2026-04-17T14:44:53.999Z</time></trkpt><trkpt lat="50.71981829259201" lon="3.0819343239571073"><ele>20.5</ele><time>2026-04-17T14:44:55.999Z</time></trkpt><trkpt lat="50.71969935954308" lon="3.081923785021502"><ele>20.25</ele><time>2026-04-17T14:44:57.999Z</time></trkpt><trkpt lat="50.71958022130419" lon="3.081907465948585"><ele>20.0</ele><time>2026-04-17T14:44:59.999Z</time></trkpt><trkpt lat="50.7194628968858" lon="3.081892544592964"><ele>20.333333333333336</ele><time>2026-04-17T14:45:01.999Z</time></trkpt><trkpt lat="50.71922297660255" lon="3.0818666791430505"><ele>20.666666666666668</ele><time>2026-04-17T14:45:05.999Z</time></trkpt><trkpt lat="50.71910303406861" lon="3.081854559567741"><ele>21.0</ele><time>2026-04-17T14:45:07.999Z</time></trkpt><trkpt lat="50.71898443947394" lon="3.0818657629736603"><ele>21.0</ele><time>2026-04-17T14:45:10Z</time></trkpt><trkpt lat="50.71886991127239" lon="3.081922165036566"><ele>21.0</ele><time>2026-04-17T14:45:12Z</time></trkpt><trkpt lat="50.718756994839666" lon="3.0819776716443306"><ele>21.0</ele><time>2026-04-17T14:45:14Z</time></trkpt><trkpt lat="50.718646118117626" lon="3.08206112525474"><ele>21.0</ele><time>2026-04-17T14:45:16Z</time></trkpt><trkpt lat="50.718538516571776" lon="3.0821404602636333"><ele>21.0</ele><time>2026-04-17T14:45:18Z</time></trkpt><trkpt lat="50.71843822553583" lon="3.0822454481817028"><ele>21.0</ele><time>2026-04-17T14:45:20Z</time></trkpt><trkpt lat="50.71833659575988" lon="3.0823473693723753"><ele>21.0</ele><time>2026-04-17T14:45:22Z</time></trkpt><trkpt lat="50.71823804440091" lon="3.0824645404397013"><ele>21.0</ele><time>2026-04-17T14:45:24Z</time></trkpt><trkpt lat="50.71804676320744" lon="3.0826981827638056"><ele>21.0</ele><time>2026-04-17T14:45:28Z</time></trkpt><trkpt lat="50.71799534487269" lon="3.0827568854614746"><ele>21.0</ele><time>2026-04-17T14:45:29Z</time></trkpt><trkpt lat="50.717941858806114" lon="3.082814410055909"><ele>21.0</ele><time>2026-04-17T14:45:30Z</time></trkpt><trkpt lat="50.71784697800612" lon="3.082943482655635"><ele>21.0</ele><time>2026-04-17T14:45:32Z</time></trkpt><trkpt lat="50.7177548521893" lon="3.0830561467310837"><ele>21.0</ele><time>2026-04-17T14:45:34Z</time></trkpt><trkpt lat="50.717656404103764" lon="3.083158876790565"><ele>21.25</ele><time>2026-04-17T14:45:36Z</time></trkpt><trkpt lat="50.71754934850401" lon="3.083238061175104"><ele>21.5</ele><time>2026-04-17T14:45:38Z</time></trkpt><trkpt lat="50.71744345950392" lon="3.083305360769364"><ele>21.75</ele><time>2026-04-17T14:45:40Z</time></trkpt><trkpt lat="50.717326108423606" lon="3.083350898412862"><ele>22.0</ele><time>2026-04-17T14:45:42Z</time></trkpt><trkpt lat="50.71721192674671" lon="3.0833989180689594"><ele>22.0</ele><time>2026-04-17T14:45:44Z</time></trkpt><trkpt lat="50.7170962746039" lon="3.0834528891273996"><ele>22.0</ele><time>2026-04-17T14:45:46Z</time></trkpt><trkpt lat="50.71687046453458" lon="3.0835658121491982"><ele>22.0</ele><time>2026-04-17T14:45:50Z</time></trkpt><trkpt lat="50.7167627228275" lon="3.0836387110279544"><ele>22.5</ele><time>2026-04-17T14:45:52Z</time></trkpt><trkpt lat="50.71665837481702" lon="3.0837410193036408"><ele>23.0</ele><time>2026-04-17T14:45:54Z</time></trkpt><trkpt lat="50.71655331840762" lon="3.083827173679432"><ele>23.5</ele><time>2026-04-17T14:45:56Z</time></trkpt><trkpt lat="50.716444551517576" lon="3.083917759825403"><ele>24.0</ele><time>2026-04-17T14:45:58Z</time></trkpt><trkpt lat="50.716336172829315" lon="3.084007456156214"><ele>23.833333333333332</ele><time>2026-04-17T14:46:00Z</time></trkpt><trkpt lat="50.716224432767824" lon="3.0840994467636036"><ele>23.666666666666668</ele><time>2026-04-17T14:46:02Z</time></trkpt><trkpt lat="50.71616668190406" lon="3.084146695374452"><ele>23.5</ele><time>2026-04-17T14:46:03Z</time></trkpt><trkpt lat="50.71610843594859" lon="3.0841928683745254"><ele>23.333333333333336</ele><time>2026-04-17T14:46:04Z</time></trkpt><trkpt lat="50.71605096161803" lon="3.0842406820586312"><ele>23.166666666666668</ele><time>2026-04-17T14:46:05Z</time></trkpt><trkpt lat="50.71599238760483" lon="3.084292444952043"><ele>23.0</ele><time>2026-04-17T14:46:06Z</time></trkpt><trkpt lat="50.71593507681916" lon="3.0843405335752085"><ele>22.666666666666668</ele><time>2026-04-17T14:46:07Z</time></trkpt><trkpt lat="50.71581882570719" lon="3.0844328031090216"><ele>22.333333333333336</ele><time>2026-04-17T14:46:09Z</time></trkpt><trkpt lat="50.71576060939261" lon="3.0844812193300033"><ele>22.0</ele><time>2026-04-17T14:46:10Z</time></trkpt><trkpt lat="50.71570295988099" lon="3.0845330625497884"><ele>21.666666666666668</ele><time>2026-04-17T14:46:11Z</time></trkpt><trkpt lat="50.71564551885598" lon="3.084577301289961"><ele>21.333333333333332</ele><time>2026-04-17T14:46:12Z</time></trkpt><trkpt lat="50.71558550701406" lon="3.0846241998020507"><ele>21.0</ele><time>2026-04-17T14:46:13Z</time></trkpt><trkpt lat="50.715527811300674" lon="3.0846681229472974"><ele>21.0</ele><time>2026-04-17T14:46:14Z</time></trkpt><trkpt lat="50.71546909114313" lon="3.084716055170145"><ele>21.0</ele><time>2026-04-17T14:46:15Z</time></trkpt><trkpt lat="50.71541177812043" lon="3.084763745265773"><ele>21.0</ele><time>2026-04-17T14:46:16Z</time></trkpt><trkpt lat="50.71535174988886" lon="3.0848076469826484"><ele>21.0</ele><time>2026-04-17T14:46:17Z</time></trkpt><trkpt lat="50.71529655350385" lon="3.0848578830025075"><ele>21.0</ele><time>2026-04-17T14:46:18Z</time></trkpt><trkpt lat="50.71524055259655" lon="3.0849062179029505"><ele>21.0</ele><time>2026-04-17T14:46:19Z</time></trkpt><trkpt lat="50.71518368990954" lon="3.084950160155132"><ele>21.0</ele><time>2026-04-17T14:46:20Z</time></trkpt><trkpt lat="50.71512653056102" lon="3.08499512081069"><ele>21.4</ele><time>2026-04-17T14:46:21Z</time></trkpt><trkpt lat="50.71501360429352" lon="3.0850868166612497"><ele>21.8</ele><time>2026-04-17T14:46:23Z</time></trkpt><trkpt lat="50.71490290661759" lon="3.0851734072682437"><ele>22.2</ele><time>2026-04-17T14:46:25Z</time></trkpt><trkpt lat="50.714793413746584" lon="3.085270989732648"><ele>22.599999999999998</ele><time>2026-04-17T14:46:26.999Z</time></trkpt><trkpt lat="50.71473680411219" lon="3.085314510943177"><ele>23.0</ele><time>2026-04-17T14:46:27.999Z</time></trkpt><trkpt lat="50.71456834439922" lon="3.085447132122708"><ele>23.0</ele><time>2026-04-17T14:46:30.999Z</time></trkpt><trkpt lat="50.71451055872659" lon="3.085495180222869"><ele>23.0</ele><time>2026-04-17T14:46:31.999Z</time></trkpt><trkpt lat="50.71439716506804" lon="3.0855806822686893"><ele>23.0</ele><time>2026-04-17T14:46:33.999Z</time></trkpt><trkpt lat="50.714340112693385" lon="3.085623388789894"><ele>23.0</ele><time>2026-04-17T14:46:34.999Z</time></trkpt><trkpt lat="50.71422651914656" lon="3.085710305570538"><ele>23.0</ele><time>2026-04-17T14:46:36.999Z</time></trkpt><trkpt lat="50.7141121915878" lon="3.085793145449988"><ele>22.833333333333336</ele><time>2026-04-17T14:46:38.999Z</time></trkpt><trkpt lat="50.71405759866751" lon="3.085844186059946"><ele>22.666666666666668</ele><time>2026-04-17T14:46:39.999Z</time></trkpt><trkpt lat="50.71394743418724" lon="3.0859377219155815"><ele>22.5</ele><time>2026-04-17T14:46:41.999Z</time></trkpt><trkpt lat="50.71383921244643" lon="3.086037136744896"><ele>22.333333333333332</ele><time>2026-04-17T14:46:43.999Z</time></trkpt><trkpt lat="50.71378376663302" lon="3.0860911082594624"><ele>22.166666666666664</ele><time>2026-04-17T14:46:44.999Z</time></trkpt><trkpt lat="50.71372885483643" lon="3.086142641993057"><ele>22.0</ele><time>2026-04-17T14:46:45.999Z</time></trkpt><trkpt lat="50.71367309544509" lon="3.086196920231814"><ele>22.0</ele><time>2026-04-17T14:46:46.999Z</time></trkpt><trkpt lat="50.713620270260456" lon="3.086260405565406"><ele>22.0</ele><time>2026-04-17T14:46:47.999Z</time></trkpt><trkpt lat="50.713571136558805" lon="3.0863272827340364"><ele>22.0</ele><time>2026-04-17T14:46:48.999Z</time></trkpt><trkpt lat="50.71346894648728" lon="3.0864623609734423"><ele>22.0</ele><time>2026-04-17T14:46:50.999Z</time></trkpt><trkpt lat="50.7134183434843" lon="3.0865309181632514"><ele>22.0</ele><time>2026-04-17T14:46:51.999Z</time></trkpt><trkpt lat="50.71336865278493" lon="3.0865920918436025"><ele>22.0</ele><time>2026-04-17T14:46:52.999Z</time></trkpt><trkpt lat="50.713319689528525" lon="3.086656168279564"><ele>21.857142857142858</ele><time>2026-04-17T14:46:53.999Z</time></trkpt><trkpt lat="50.71322374675827" lon="3.0867827563542356"><ele>21.714285714285715</ele><time>2026-04-17T14:46:55.999Z</time></trkpt><trkpt lat="50.713174971412954" lon="3.086848152108781"><ele>21.57142857142857</ele><time>2026-04-17T14:46:56.999Z</time></trkpt><trkpt lat="50.713124457750716" lon="3.0869093643612007"><ele>21.42857142857143</ele><time>2026-04-17T14:46:57.999Z</time></trkpt><trkpt lat="50.71307501237558" lon="3.0869745355257954"><ele>21.285714285714285</ele><time>2026-04-17T14:46:58.999Z</time></trkpt><trkpt lat="50.71302550277531" lon="3.08704300949121"><ele>21.142857142857142</ele><time>2026-04-17T14:46:59.999Z</time></trkpt><trkpt lat="50.712976527780974" lon="3.0871056440919347"><ele>21.0</ele><time>2026-04-17T14:47:00.999Z</time></trkpt><trkpt lat="50.71292707558157" lon="3.087169132405592"><ele>21.0</ele><time>2026-04-17T14:47:01.999Z</time></trkpt><trkpt lat="50.71287904314347" lon="3.0872378134919263"><ele>21.0</ele><time>2026-04-17T14:47:02.999Z</time></trkpt><trkpt lat="50.7128309274653" lon="3.0873034098220598"><ele>21.0</ele><time>2026-04-17T14:47:03.999Z</time></trkpt><trkpt lat="50.71278153722054" lon="3.0873689826335586"><ele>21.0</ele><time>2026-04-17T14:47:04.999Z</time></trkpt><trkpt lat="50.71268940708655" lon="3.0874971520313537"><ele>21.0</ele><time>2026-04-17T14:47:06.999Z</time></trkpt><trkpt lat="50.71260496333887" lon="3.087630608499446"><ele>21.0</ele><time>2026-04-17T14:47:08.999Z</time></trkpt><trkpt lat="50.71251080173727" lon="3.0877387263188183"><ele>21.0</ele><time>2026-04-17T14:47:10.999Z</time></trkpt><trkpt lat="50.71229036889994" lon="3.0878875905814147"><ele>21.0</ele><time>2026-04-17T14:47:15Z</time></trkpt><trkpt lat="50.71217370960225" lon="3.0879356980599058"><ele>21.0</ele><time>2026-04-17T14:47:17Z</time></trkpt><trkpt lat="50.71205375989776" lon="3.0879916317120775"><ele>21.0</ele><time>2026-04-17T14:47:19Z</time></trkpt><trkpt lat="50.71193556617831" lon="3.0880538028660056"><ele>21.0</ele><time>2026-04-17T14:47:21Z</time></trkpt><trkpt lat="50.711817717180715" lon="3.0881092987337486"><ele>21.0</ele><time>2026-04-17T14:47:23Z</time></trkpt><trkpt lat="50.711703161795306" lon="3.0881707880233633"><ele>21.0</ele><time>2026-04-17T14:47:25Z</time></trkpt><trkpt lat="50.71164237558592" lon="3.088205552144565"><ele>21.0</ele><time>2026-04-17T14:47:26Z</time></trkpt><trkpt lat="50.71153114483828" lon="3.0882590103024157"><ele>21.666666666666668</ele><time>2026-04-17T14:47:28Z</time></trkpt><trkpt lat="50.71141605538617" lon="3.0883134725220502"><ele>22.333333333333336</ele><time>2026-04-17T14:47:30Z</time></trkpt><trkpt lat="50.711304707830436" lon="3.0883652624508002"><ele>23.0</ele><time>2026-04-17T14:47:32Z</time></trkpt><trkpt lat="50.71107567142308" lon="3.0884527442328675"><ele>22.599999999999998</ele><time>2026-04-17T14:47:36Z</time></trkpt><trkpt lat="50.71096103807658" lon="3.088486309525063"><ele>22.2</ele><time>2026-04-17T14:47:38Z</time></trkpt><trkpt lat="50.71084525895659" lon="3.0885192386217653"><ele>21.8</ele><time>2026-04-17T14:47:40Z</time></trkpt><trkpt lat="50.710720667776364" lon="3.0885302754820154"><ele>21.4</ele><time>2026-04-17T14:47:42Z</time></trkpt><trkpt lat="50.710655843920605" lon="3.088535504821872"><ele>21.0</ele><time>2026-04-17T14:47:43Z</time></trkpt><trkpt lat="50.710589980139375" lon="3.088535164865831"><ele>21.0</ele><time>2026-04-17T14:47:44Z</time></trkpt><trkpt lat="50.71052166625566" lon="3.088529101509151"><ele>21.0</ele><time>2026-04-17T14:47:45Z</time></trkpt><trkpt lat="50.71045269737912" lon="3.0885152764458836"><ele>21.0</ele><time>2026-04-17T14:47:46Z</time></trkpt><trkpt lat="50.71038691722271" lon="3.088516100150616"><ele>21.0</ele><time>2026-04-17T14:47:47Z</time></trkpt><trkpt lat="50.71032102483331" lon="3.0885202569160497"><ele>21.0</ele><time>2026-04-17T14:47:48Z</time></trkpt><trkpt lat="50.71025680708005" lon="3.0885170994151805"><ele>21.0</ele><time>2026-04-17T14:47:49Z</time></trkpt><trkpt lat="50.710134123177994" lon="3.0885242771509827"><ele>21.0</ele><time>2026-04-17T14:47:51Z</time></trkpt><trkpt lat="50.710010958886855" lon="3.0885334152689574"><ele>21.0</ele><time>2026-04-17T14:47:53Z</time></trkpt><trkpt lat="50.70977844279958" lon="3.0886288079135484"><ele>21.0</ele><time>2026-04-17T14:47:57Z</time></trkpt><trkpt lat="50.70966128141561" lon="3.0886855190500966"><ele>21.0</ele><time>2026-04-17T14:47:59Z</time></trkpt><trkpt lat="50.709599891719" lon="3.0887118745479865"><ele>21.0</ele><time>2026-04-17T14:48:00Z</time></trkpt><trkpt lat="50.709483917759265" lon="3.0887690798381007"><ele>21.0</ele><time>2026-04-17T14:48:02Z</time></trkpt><trkpt lat="50.70936639152048" lon="3.0888063341977885"><ele>21.0</ele><time>2026-04-17T14:48:04Z</time></trkpt><trkpt lat="50.70924736236943" lon="3.0888304880613315"><ele>21.0</ele><time>2026-04-17T14:48:06Z</time></trkpt><trkpt lat="50.7091267460669" lon="3.08885187115929"><ele>21.25</ele><time>2026-04-17T14:48:08Z</time></trkpt><trkpt lat="50.7090084750462" lon="3.088885693283743"><ele>21.5</ele><time>2026-04-17T14:48:10Z</time></trkpt><trkpt lat="50.70883187904636" lon="3.0889272034065534"><ele>21.75</ele><time>2026-04-17T14:48:13Z</time></trkpt><trkpt lat="50.70871269310478" lon="3.0889647287095063"><ele>22.0</ele><time>2026-04-17T14:48:15Z</time></trkpt><trkpt lat="50.708476477372635" lon="3.089054479335082"><ele>22.25</ele><time>2026-04-17T14:48:19Z</time></trkpt><trkpt lat="50.7083575408306" lon="3.0890873832909214"><ele>22.5</ele><time>2026-04-17T14:48:21Z</time></trkpt><trkpt lat="50.70824726579472" lon="3.0891420900626296"><ele>22.75</ele><time>2026-04-17T14:48:23Z</time></trkpt><trkpt lat="50.70815038978292" lon="3.0892309272716134"><ele>23.0</ele><time>2026-04-17T14:48:25Z</time></trkpt><trkpt lat="50.70804882407504" lon="3.0893030284674303"><ele>23.0</ele><time>2026-04-17T14:48:27Z</time></trkpt><trkpt lat="50.70795285364372" lon="3.089380583123566"><ele>23.0</ele><time>2026-04-17T14:48:29Z</time></trkpt><trkpt lat="50.70786016456912" lon="3.089453934025629"><ele>23.0</ele><time>2026-04-17T14:48:31Z</time></trkpt><trkpt lat="50.707763554982975" lon="3.0895251328293845"><ele>23.0</ele><time>2026-04-17T14:48:32.999Z</time></trkpt><trkpt lat="50.70767485488455" lon="3.089611762376336"><ele>23.0</ele><time>2026-04-17T14:48:34.999Z</time></trkpt><trkpt lat="50.70757207649127" lon="3.089681785137879"><ele>23.333333333333336</ele><time>2026-04-17T14:48:36.999Z</time></trkpt><trkpt lat="50.707356449276894" lon="3.0898484215140116"><ele>23.666666666666668</ele><time>2026-04-17T14:48:40.999Z</time></trkpt><trkpt lat="50.70725625945232" lon="3.089921257690093"><ele>24.0</ele><time>2026-04-17T14:48:42.999Z</time></trkpt><trkpt lat="50.707156323831505" lon="3.089995864705586"><ele>24.0</ele><time>2026-04-17T14:48:44.999Z</time></trkpt><trkpt lat="50.70706298962559" lon="3.0900660556932564"><ele>24.0</ele><time>2026-04-17T14:48:46.999Z</time></trkpt><trkpt lat="50.706972671457216" lon="3.0901345414049475"><ele>24.0</ele><time>2026-04-17T14:48:48.999Z</time></trkpt><trkpt lat="50.70688552180245" lon="3.0901904505458"><ele>24.0</ele><time>2026-04-17T14:48:50.999Z</time></trkpt><trkpt lat="50.70680463174039" lon="3.090249749748758"><ele>24.0</ele><time>2026-04-17T14:48:52.999Z</time></trkpt><trkpt lat="50.70673569372676" lon="3.0903034770546216"><ele>24.4</ele><time>2026-04-17T14:48:54.999Z</time></trkpt><trkpt lat="50.70667401998891" lon="3.090353724628438"><ele>24.799999999999997</ele><time>2026-04-17T14:48:56.999Z</time></trkpt><trkpt lat="50.706620614774856" lon="3.090442817645942"><ele>25.200000000000003</ele><time>2026-04-17T14:48:58.999Z</time></trkpt><trkpt lat="50.706469174478954" lon="3.0905624804084604"><ele>25.6</ele><time>2026-04-17T14:49:02.999Z</time></trkpt><trkpt lat="50.70641062591834" lon="3.0906034336794197"><ele>26.0</ele><time>2026-04-17T14:49:04.999Z</time></trkpt><trkpt lat="50.706352417406" lon="3.090677893316873"><ele>26.0</ele><time>2026-04-17T14:49:40Z</time></trkpt><trkpt lat="50.70627221578941" lon="3.090777649635881"><ele>26.0</ele><time>2026-04-17T14:49:43Z</time></trkpt><trkpt lat="50.706279087897684" lon="3.0910595753148176"><ele>26.0</ele><time>2026-04-17T14:49:47Z</time></trkpt><trkpt lat="50.706330396249335" lon="3.091196296752359"><ele>26.0</ele><time>2026-04-17T14:49:49Z</time></trkpt><trkpt lat="50.70638717527253" lon="3.0913421431135397"><ele>25.999999999999996</ele><time>2026-04-17T14:49:51Z</time></trkpt><trkpt lat="50.706440030086604" lon="3.091501323590696"><ele>26.0</ele><time>2026-04-17T14:49:53Z</time></trkpt><trkpt lat="50.70649940694448" lon="3.0916757037555427"><ele>26.0</ele><time>2026-04-17T14:49:55Z</time></trkpt><trkpt lat="50.70652860054528" lon="3.0917660573097328"><ele>26.0</ele><time>2026-04-17T14:49:56Z</time></trkpt><trkpt lat="50.706558386150185" lon="3.0918581681612483"><ele>25.999999999999996</ele><time>2026-04-17T14:49:57Z</time></trkpt><trkpt lat="50.70658748006581" lon="3.0919465098495436"><ele>26.0</ele><time>2026-04-17T14:49:58Z</time></trkpt><trkpt lat="50.70661633403207" lon="3.092040768245631"><ele>25.833333333333332</ele><time>2026-04-17T14:49:59Z</time></trkpt><trkpt lat="50.70664633470123" lon="3.0921372141968058"><ele>25.666666666666664</ele><time>2026-04-17T14:50:00Z</time></trkpt><trkpt lat="50.706677280954366" lon="3.092230761067346"><ele>25.5</ele><time>2026-04-17T14:50:01Z</time></trkpt><trkpt lat="50.7067108208268" lon="3.09232741204138"><ele>25.333333333333336</ele><time>2026-04-17T14:50:02Z</time></trkpt><trkpt lat="50.706743597115214" lon="3.0924199110873802"><ele>25.166666666666668</ele><time>2026-04-17T14:50:03Z</time></trkpt><trkpt lat="50.7067767717648" lon="3.092514829891064"><ele>25.0</ele><time>2026-04-17T14:50:04Z</time></trkpt><trkpt lat="50.706836668487085" lon="3.0927068993921116"><ele>25.000000000000004</ele><time>2026-04-17T14:50:06Z</time></trkpt><trkpt lat="50.70686970923068" lon="3.0928042966348563"><ele>25.0</ele><time>2026-04-17T14:50:07Z</time></trkpt><trkpt lat="50.70690348700386" lon="3.0929056266563464"><ele>25.0</ele><time>2026-04-17T14:50:08Z</time></trkpt><trkpt lat="50.70693726884548" lon="3.0930088430983522"><ele>25.0</ele><time>2026-04-17T14:50:09Z</time></trkpt><trkpt lat="50.70697251407225" lon="3.0931094578751854"><ele>25.0</ele><time>2026-04-17T14:50:10Z</time></trkpt><trkpt lat="50.70700825128586" lon="3.093210533528432"><ele>25.000000000000004</ele><time>2026-04-17T14:50:11Z</time></trkpt><trkpt lat="50.70703961493697" lon="3.0933163184613304"><ele>25.0</ele><time>2026-04-17T14:50:12Z</time></trkpt><trkpt lat="50.70707198287508" lon="3.093420023682158"><ele>25.166666666666668</ele><time>2026-04-17T14:50:13Z</time></trkpt><trkpt lat="50.7071065977024" lon="3.0935274177832763"><ele>25.333333333333336</ele><time>2026-04-17T14:50:14Z</time></trkpt><trkpt lat="50.70714172225798" lon="3.093633401918887"><ele>25.5</ele><time>2026-04-17T14:50:15Z</time></trkpt><trkpt lat="50.70717545819653" lon="3.093740128783453"><ele>25.666666666666664</ele><time>2026-04-17T14:50:16Z</time></trkpt><trkpt lat="50.70721045200841" lon="3.093845871764305"><ele>25.833333333333332</ele><time>2026-04-17T14:50:17Z</time></trkpt><trkpt lat="50.70724256747206" lon="3.093950999680107"><ele>26.0</ele><time>2026-04-17T14:50:18Z</time></trkpt><trkpt lat="50.70727348848497" lon="3.094055534755069"><ele>25.71428571428571</ele><time>2026-04-17T14:50:19Z</time></trkpt><trkpt lat="50.70730583237457" lon="3.0941636936828543"><ele>25.42857142857143</ele><time>2026-04-17T14:50:20Z</time></trkpt><trkpt lat="50.70733423271113" lon="3.0942646703568872"><ele>25.142857142857142</ele><time>2026-04-17T14:50:21Z</time></trkpt><trkpt lat="50.70736582541295" lon="3.0943725468781578"><ele>24.857142857142854</ele><time>2026-04-17T14:50:22Z</time></trkpt><trkpt lat="50.70739409594816" lon="3.094474566955366"><ele>24.57142857142857</ele><time>2026-04-17T14:50:23Z</time></trkpt><trkpt lat="50.7074259535772" lon="3.094578584291567"><ele>24.285714285714285</ele><time>2026-04-17T14:50:24Z</time></trkpt><trkpt lat="50.70745376682206" lon="3.0946787826814397"><ele>24.0</ele><time>2026-04-17T14:50:25Z</time></trkpt><trkpt lat="50.70749249822067" lon="3.0948886036861336"><ele>24.285714285714285</ele><time>2026-04-17T14:50:27Z</time></trkpt><trkpt lat="50.707510827666106" lon="3.094994954456619"><ele>24.57142857142857</ele><time>2026-04-17T14:50:27.999Z</time></trkpt><trkpt lat="50.70753221928398" lon="3.0950937326185683"><ele>24.857142857142854</ele><time>2026-04-17T14:50:28.999Z</time></trkpt><trkpt lat="50.70755293144899" lon="3.095197124676926"><ele>25.142857142857142</ele><time>2026-04-17T14:50:29.999Z</time></trkpt><trkpt lat="50.70757947745168" lon="3.0953020924682026"><ele>25.42857142857143</ele><time>2026-04-17T14:50:30.999Z</time></trkpt><trkpt lat="50.707604527505545" lon="3.0954040794432527"><ele>25.71428571428571</ele><time>2026-04-17T14:50:31.999Z</time></trkpt><trkpt lat="50.70763163618075" lon="3.0955042618745137"><ele>26.0</ele><time>2026-04-17T14:50:32.999Z</time></trkpt><trkpt lat="50.707657695915785" lon="3.095604176879684"><ele>26.0</ele><time>2026-04-17T14:50:33.999Z</time></trkpt><trkpt lat="50.70768360662468" lon="3.095705683545804"><ele>26.0</ele><time>2026-04-17T14:50:34.999Z</time></trkpt><trkpt lat="50.70770739723868" lon="3.0958075731994836"><ele>26.0</ele><time>2026-04-17T14:50:35.999Z</time></trkpt><trkpt lat="50.707730502847156" lon="3.0959096413200844"><ele>26.0</ele><time>2026-04-17T14:50:36.999Z</time></trkpt><trkpt lat="50.70775133084132" lon="3.0960099103039744"><ele>26.0</ele><time>2026-04-17T14:50:37.999Z</time></trkpt><trkpt lat="50.707768511761785" lon="3.0961125753222354"><ele>26.0</ele><time>2026-04-17T14:50:38.999Z</time></trkpt><trkpt lat="50.7077816365011" lon="3.0962138864521878"><ele>26.0</ele><time>2026-04-17T14:50:39.999Z</time></trkpt><trkpt lat="50.7077929124755" lon="3.096314119260206"><ele>26.200000000000003</ele><time>2026-04-17T14:50:40.999Z</time></trkpt><trkpt lat="50.707807921727294" lon="3.0964128899818664"><ele>26.400000000000002</ele><time>2026-04-17T14:50:41.999Z</time></trkpt><trkpt lat="50.7078266736268" lon="3.096513632751399"><ele>26.6</ele><time>2026-04-17T14:50:42.999Z</time></trkpt><trkpt lat="50.70787154374427" lon="3.096698544886047"><ele>26.8</ele><time>2026-04-17T14:50:44.999Z</time></trkpt><trkpt lat="50.70788612789583" lon="3.096802897846714"><ele>27.0</ele><time>2026-04-17T14:50:45.999Z</time></trkpt><trkpt lat="50.707929527540614" lon="3.0970017112332098"><ele>27.285714285714285</ele><time>2026-04-17T14:50:47.999Z</time></trkpt><trkpt lat="50.70795459486456" lon="3.0970984462420774"><ele>27.57142857142857</ele><time>2026-04-17T14:50:48.999Z</time></trkpt><trkpt lat="50.707975196794685" lon="3.0971948566192022"><ele>27.85714285714286</ele><time>2026-04-17T14:50:49.999Z</time></trkpt><trkpt lat="50.707996572676024" lon="3.097295275861163"><ele>28.142857142857146</ele><time>2026-04-17T14:50:50.999Z</time></trkpt><trkpt lat="50.708026988898894" lon="3.097389617572002"><ele>28.42857142857143</ele><time>2026-04-17T14:50:51.999Z</time></trkpt><trkpt lat="50.7080601372184" lon="3.097486774653001"><ele>28.71428571428572</ele><time>2026-04-17T14:50:52.999Z</time></trkpt><trkpt lat="50.70807853447436" lon="3.097585129844076"><ele>29.000000000000004</ele><time>2026-04-17T14:50:53.999Z</time></trkpt><trkpt lat="50.70809710997131" lon="3.097693271650624"><ele>28.999999999999996</ele><time>2026-04-17T14:50:54.999Z</time></trkpt><trkpt lat="50.70811093476641" lon="3.097796587989655"><ele>29.0</ele><time>2026-04-17T14:50:55.999Z</time></trkpt><trkpt lat="50.70812914769974" lon="3.0978973826974805"><ele>29.0</ele><time>2026-04-17T14:50:56.999Z</time></trkpt><trkpt lat="50.708145900344036" lon="3.0980005529185255"><ele>29.0</ele><time>2026-04-17T14:50:57.999Z</time></trkpt><trkpt lat="50.70815984996303" lon="3.098100652416986"><ele>28.999999999999996</ele><time>2026-04-17T14:50:58.999Z</time></trkpt><trkpt lat="50.708175946599454" lon="3.09820150011427"><ele>29.0</ele><time>2026-04-17T14:50:59.999Z</time></trkpt><trkpt lat="50.708206995108206" lon="3.0983988366260173"><ele>27.5</ele><time>2026-04-17T14:51:01.999Z</time></trkpt><trkpt lat="50.70824021304218" lon="3.098589204555853"><ele>26.0</ele><time>2026-04-17T14:51:03.999Z</time></trkpt><trkpt lat="50.7082706831017" lon="3.098772090902223"><ele>24.5</ele><time>2026-04-17T14:51:05.999Z</time></trkpt><trkpt lat="50.70829540990909" lon="3.0989573922822022"><ele>23.0</ele><time>2026-04-17T14:51:07.999Z</time></trkpt><trkpt lat="50.70834309756156" lon="3.0993201895314018"><ele>22.5</ele><time>2026-04-17T14:51:11.999Z</time></trkpt><trkpt lat="50.7083667470639" lon="3.099497803688144"><ele>22.0</ele><time>2026-04-17T14:51:13.999Z</time></trkpt><trkpt lat="50.70838392677677" lon="3.0996724398975597"><ele>21.5</ele><time>2026-04-17T14:51:15.999Z</time></trkpt><trkpt lat="50.708405150552146" lon="3.0998469967226163"><ele>21.0</ele><time>2026-04-17T14:51:17.999Z</time></trkpt><trkpt lat="50.70842001754408" lon="3.100022478774632"><ele>21.0</ele><time>2026-04-17T14:51:19.999Z</time></trkpt><trkpt lat="50.708434057455364" lon="3.100192551232169"><ele>21.0</ele><time>2026-04-17T14:51:21.999Z</time></trkpt><trkpt lat="50.70845629955797" lon="3.1003597178400426"><ele>21.0</ele><time>2026-04-17T14:51:23.999Z</time></trkpt><trkpt lat="50.70846981978044" lon="3.1005230582145007"><ele>21.0</ele><time>2026-04-17T14:51:25.999Z</time></trkpt><trkpt lat="50.70848252737245" lon="3.1006813142251963"><ele>21.0</ele><time>2026-04-17T14:51:28Z</time></trkpt><trkpt lat="50.708492887178195" lon="3.1008376369531656"><ele>22.0</ele><time>2026-04-17T14:51:30Z</time></trkpt><trkpt lat="50.708515930197485" lon="3.1011488130253237"><ele>23.0</ele><time>2026-04-17T14:51:34Z</time></trkpt><trkpt lat="50.70852494583547" lon="3.101307606390406"><ele>24.0</ele><time>2026-04-17T14:51:36Z</time></trkpt><trkpt lat="50.70853662538129" lon="3.1014587521494317"><ele>25.0</ele><time>2026-04-17T14:51:38Z</time></trkpt><trkpt lat="50.70854694132263" lon="3.101606002502005"><ele>25.2</ele><time>2026-04-17T14:51:40Z</time></trkpt><trkpt lat="50.70855353418952" lon="3.1017392552834315"><ele>25.4</ele><time>2026-04-17T14:51:42Z</time></trkpt><trkpt lat="50.70855652231541" lon="3.1018683528515654"><ele>25.6</ele><time>2026-04-17T14:51:44Z</time></trkpt><trkpt lat="50.70855938293514" lon="3.102015344596069"><ele>25.8</ele><time>2026-04-17T14:51:46Z</time></trkpt><trkpt lat="50.70856657882493" lon="3.1021728024364075"><ele>26.0</ele><time>2026-04-17T14:51:48Z</time></trkpt><trkpt lat="50.70857036400428" lon="3.102326034454762"><ele>25.75</ele><time>2026-04-17T14:51:50Z</time></trkpt><trkpt lat="50.70857882425235" lon="3.1024766151776437"><ele>25.5</ele><time>2026-04-17T14:51:52Z</time></trkpt><trkpt lat="50.70858371989306" lon="3.1027523627887876"><ele>25.25</ele><time>2026-04-17T14:51:56Z</time></trkpt><trkpt lat="50.708586263106255" lon="3.1029030743140082"><ele>25.0</ele><time>2026-04-17T14:51:58Z</time></trkpt><trkpt lat="50.70857850277432" lon="3.103041952446273"><ele>25.666666666666668</ele><time>2026-04-17T14:52:00Z</time></trkpt><trkpt lat="50.708560477017706" lon="3.1031550356196917"><ele>26.333333333333336</ele><time>2026-04-17T14:52:02Z</time></trkpt><trkpt lat="50.708569992085735" lon="3.1032734781322606"><ele>27.0</ele><time>2026-04-17T14:52:04Z</time></trkpt><trkpt lat="50.70848889561925" lon="3.1045312020713323"><ele>27.400000000000002</ele><time>2026-04-17T14:55:49Z</time></trkpt><trkpt lat="50.70854926763559" lon="3.104597629968818"><ele>27.800000000000004</ele><time>2026-04-17T14:55:51Z</time></trkpt><trkpt lat="50.70861030688784" lon="3.104678510813748"><ele>28.2</ele><time>2026-04-17T14:55:53Z</time></trkpt><trkpt lat="50.70875584068309" lon="3.104828706409665"><ele>28.6</ele><time>2026-04-17T14:55:57Z</time></trkpt><trkpt lat="50.70883515946433" lon="3.10492279199017"><ele>29.0</ele><time>2026-04-17T14:55:59Z</time></trkpt><trkpt lat="50.70892026997544" lon="3.105018366641928"><ele>29.2</ele><time>2026-04-17T14:56:01Z</time></trkpt><trkpt lat="50.70900359517152" lon="3.1050915152438714"><ele>29.4</ele><time>2026-04-17T14:56:03Z</time></trkpt><trkpt lat="50.70905646379727" lon="3.1051503538769243"><ele>29.6</ele><time>2026-04-17T14:56:04Z</time></trkpt><trkpt lat="50.709137614291684" lon="3.1052628822417523"><ele>29.8</ele><time>2026-04-17T14:56:06Z</time></trkpt><trkpt lat="50.70922260608524" lon="3.1053806794763066"><ele>30.0</ele><time>2026-04-17T14:56:08Z</time></trkpt><trkpt lat="50.70931339335868" lon="3.1054861531852773"><ele>30.0</ele><time>2026-04-17T14:56:10Z</time></trkpt><trkpt lat="50.70939167735993" lon="3.105595564700277"><ele>30.0</ele><time>2026-04-17T14:56:12Z</time></trkpt><trkpt lat="50.70946894568973" lon="3.105704582830881"><ele>30.0</ele><time>2026-04-17T14:56:14Z</time></trkpt><trkpt lat="50.70962370536396" lon="3.1059440178652307"><ele>30.0</ele><time>2026-04-17T14:56:18Z</time></trkpt><trkpt lat="50.70969424868394" lon="3.1060670536385757"><ele>30.6</ele><time>2026-04-17T14:56:20Z</time></trkpt><trkpt lat="50.70976374976623" lon="3.106186930701105"><ele>31.2</ele><time>2026-04-17T14:56:22Z</time></trkpt><trkpt lat="50.70983258798276" lon="3.1063071842706718"><ele>31.799999999999997</ele><time>2026-04-17T14:56:24Z</time></trkpt><trkpt lat="50.70990027026653" lon="3.10642478009419"><ele>32.4</ele><time>2026-04-17T14:56:26Z</time></trkpt><trkpt lat="50.70996983726343" lon="3.106541455495695"><ele>33.0</ele><time>2026-04-17T14:56:28Z</time></trkpt><trkpt lat="50.710042632825754" lon="3.106648764130576"><ele>33.5</ele><time>2026-04-17T14:56:30Z</time></trkpt><trkpt lat="50.710111856272775" lon="3.106755720151067"><ele>34.0</ele><time>2026-04-17T14:56:32Z</time></trkpt><trkpt lat="50.710186349234355" lon="3.106849573243118"><ele>34.5</ele><time>2026-04-17T14:56:34Z</time></trkpt><trkpt lat="50.71025302404654" lon="3.1069494080297315"><ele>35.0</ele><time>2026-04-17T14:56:36Z</time></trkpt><trkpt lat="50.71039025590982" lon="3.10709647674244"><ele>35.0</ele><time>2026-04-17T14:56:40Z</time></trkpt><trkpt lat="50.71046235886209" lon="3.1071565999027886"><ele>35.0</ele><time>2026-04-17T14:56:42Z</time></trkpt><trkpt lat="50.71049573027564" lon="3.107260178973946"><ele>35.0</ele><time>2026-04-17T14:56:44Z</time></trkpt><trkpt lat="50.710474226224925" lon="3.1073577114842257"><ele>35.0</ele><time>2026-04-17T14:56:45.999Z</time></trkpt><trkpt lat="50.71041386179467" lon="3.1074013980450466"><ele>35.0</ele><time>2026-04-17T14:56:47.999Z</time></trkpt><trkpt lat="50.71043010273991" lon="3.1075222711261854"><ele>35.0</ele><time>2026-04-17T14:56:49.999Z</time></trkpt><trkpt lat="50.710479686847954" lon="3.1076434955622205"><ele>35.25</ele><time>2026-04-17T14:56:51.999Z</time></trkpt><trkpt lat="50.710533380580856" lon="3.1077695526086186"><ele>35.5</ele><time>2026-04-17T14:56:53.999Z</time></trkpt><trkpt lat="50.7106065340764" lon="3.107850874063132"><ele>35.75</ele><time>2026-04-17T14:56:55.999Z</time></trkpt><trkpt lat="50.7106453237231" lon="3.107984097352761"><ele>36.0</ele><time>2026-04-17T14:56:57.999Z</time></trkpt><trkpt lat="50.71072597643376" lon="3.1083061940815795"><ele>36.5</ele><time>2026-04-17T14:57:01.999Z</time></trkpt><trkpt lat="50.71076680231469" lon="3.1084760797046997"><ele>37.0</ele><time>2026-04-17T14:57:03.999Z</time></trkpt><trkpt lat="50.710815922463375" lon="3.1086447750704798"><ele>37.5</ele><time>2026-04-17T14:57:05.999Z</time></trkpt><trkpt lat="50.71086585491015" lon="3.108820505179871"><ele>38.0</ele><time>2026-04-17T14:57:07.999Z</time></trkpt><trkpt lat="50.7109192278661" lon="3.1089947291941593"><ele>38.0</ele><time>2026-04-17T14:57:09.999Z</time></trkpt><trkpt lat="50.71096816395668" lon="3.1091668005895094"><ele>38.0</ele><time>2026-04-17T14:57:11.999Z</time></trkpt><trkpt lat="50.711004912091745" lon="3.109346360277333"><ele>38.0</ele><time>2026-04-17T14:57:13.999Z</time></trkpt><trkpt lat="50.71105377487078" lon="3.109515366734031"><ele>38.0</ele><time>2026-04-17T14:57:15.999Z</time></trkpt><trkpt lat="50.71110212478234" lon="3.109685850255317"><ele>39.0</ele><time>2026-04-17T14:57:17.999Z</time></trkpt><trkpt lat="50.71114948916339" lon="3.109854965235479"><ele>40.0</ele><time>2026-04-17T14:57:19.999Z</time></trkpt><trkpt lat="50.71123901729858" lon="3.1101851193991217"><ele>41.0</ele><time>2026-04-17T14:57:23.999Z</time></trkpt><trkpt lat="50.71129385980737" lon="3.110352331780916"><ele>41.0</ele><time>2026-04-17T14:57:25.999Z</time></trkpt><trkpt lat="50.7113345093763" lon="3.110509921627958"><ele>41.0</ele><time>2026-04-17T14:57:27.999Z</time></trkpt><trkpt lat="50.71137690728806" lon="3.1106725842790497"><ele>41.0</ele><time>2026-04-17T14:57:29.999Z</time></trkpt><trkpt lat="50.7114136391124" lon="3.110837641004491"><ele>41.0</ele><time>2026-04-17T14:57:31.999Z</time></trkpt><trkpt lat="50.711463202330876" lon="3.1110071925204608"><ele>41.0</ele><time>2026-04-17T14:57:33.999Z</time></trkpt><trkpt lat="50.71151102203418" lon="3.111165173422889"><ele>41.0</ele><time>2026-04-17T14:57:35.999Z</time></trkpt><trkpt lat="50.711554257785046" lon="3.1113337520405793"><ele>41.0</ele><time>2026-04-17T14:57:37.999Z</time></trkpt><trkpt lat="50.711590705535194" lon="3.1115006217455745"><ele>41.0</ele><time>2026-04-17T14:57:39.999Z</time></trkpt><trkpt lat="50.711618963111086" lon="3.1116655147464565"><ele>41.0</ele><time>2026-04-17T14:57:41.999Z</time></trkpt><trkpt lat="50.711697256457306" lon="3.1120182192139487"><ele>41.0</ele><time>2026-04-17T14:57:46Z</time></trkpt><trkpt lat="50.71174272998635" lon="3.1121926291720405"><ele>41.0</ele><time>2026-04-17T14:57:48Z</time></trkpt><trkpt lat="50.71177088685651" lon="3.1123693193005697"><ele>41.0</ele><time>2026-04-17T14:57:50Z</time></trkpt><trkpt lat="50.71179246582365" lon="3.1124627908058535"><ele>41.0</ele><time>2026-04-17T14:57:51Z</time></trkpt><trkpt lat="50.7118326462589" lon="3.1126410124608626"><ele>41.0</ele><time>2026-04-17T14:57:53Z</time></trkpt><trkpt lat="50.71187617607513" lon="3.1128232983627506"><ele>40.33333333333333</ele><time>2026-04-17T14:57:55Z</time></trkpt><trkpt lat="50.71191358860653" lon="3.113005621788119"><ele>39.666666666666664</ele><time>2026-04-17T14:57:57Z</time></trkpt><trkpt lat="50.7119398154878" lon="3.1130987392006344"><ele>39.0</ele><time>2026-04-17T14:57:58Z</time></trkpt><trkpt lat="50.711965770495695" lon="3.1131898033729706"><ele>38.333333333333336</ele><time>2026-04-17T14:57:59Z</time></trkpt><trkpt lat="50.71199519290305" lon="3.1132806529028465"><ele>37.66666666666667</ele><time>2026-04-17T14:58:00Z</time></trkpt><trkpt lat="50.71204755125186" lon="3.113454406547683"><ele>37.0</ele><time>2026-04-17T14:58:02Z</time></trkpt><trkpt lat="50.71209945554142" lon="3.113626967632676"><ele>36.66666666666667</ele><time>2026-04-17T14:58:04Z</time></trkpt><trkpt lat="50.712214600515686" lon="3.1139565803404876"><ele>36.333333333333336</ele><time>2026-04-17T14:58:08Z</time></trkpt><trkpt lat="50.712278641005916" lon="3.11411390584537"><ele>36.0</ele><time>2026-04-17T14:58:10Z</time></trkpt><trkpt lat="50.71233609557016" lon="3.114264307125643"><ele>36.6</ele><time>2026-04-17T14:58:12Z</time></trkpt><trkpt lat="50.71239339572452" lon="3.1144115402151873"><ele>37.2</ele><time>2026-04-17T14:58:14Z</time></trkpt><trkpt lat="50.71245659628528" lon="3.1145499435602333"><ele>37.8</ele><time>2026-04-17T14:58:16Z</time></trkpt><trkpt lat="50.71251939740334" lon="3.114683072687632"><ele>38.4</ele><time>2026-04-17T14:58:18Z</time></trkpt><trkpt lat="50.712588958690574" lon="3.114820502613621"><ele>39.0</ele><time>2026-04-17T14:58:20Z</time></trkpt><trkpt lat="50.712646465558215" lon="3.11494412975509"><ele>39.25</ele><time>2026-04-17T14:58:22Z</time></trkpt><trkpt lat="50.712723777117375" lon="3.115078455385772"><ele>39.5</ele><time>2026-04-17T14:58:24Z</time></trkpt><trkpt lat="50.712806618237" lon="3.1152000716000985"><ele>39.75</ele><time>2026-04-17T14:58:26Z</time></trkpt><trkpt lat="50.71291152597883" lon="3.1154114244811795"><ele>40.0</ele><time>2026-04-17T14:58:29Z</time></trkpt><trkpt lat="50.71298896803385" lon="3.1155408522212253"><ele>40.0</ele><time>2026-04-17T14:58:31Z</time></trkpt><trkpt lat="50.71307116449522" lon="3.1156837103330552"><ele>40.0</ele><time>2026-04-17T14:58:33Z</time></trkpt><trkpt lat="50.71315357873891" lon="3.1158277426852696"><ele>40.0</ele><time>2026-04-17T14:58:35Z</time></trkpt><trkpt lat="50.71323984962246" lon="3.1159588730250327"><ele>40.0</ele><time>2026-04-17T14:58:37Z</time></trkpt><trkpt lat="50.71332055529623" lon="3.1161026937910234"><ele>40.4</ele><time>2026-04-17T14:58:39Z</time></trkpt><trkpt lat="50.713403361299676" lon="3.116240055824508"><ele>40.8</ele><time>2026-04-17T14:58:40.999Z</time></trkpt><trkpt lat="50.71348807422177" lon="3.116383594261349"><ele>41.2</ele><time>2026-04-17T14:58:42.999Z</time></trkpt><trkpt lat="50.71353329701976" lon="3.1164552239734014"><ele>41.6</ele><time>2026-04-17T14:58:43.999Z</time></trkpt><trkpt lat="50.71361682805846" lon="3.1165986987780347"><ele>42.0</ele><time>2026-04-17T14:58:45.999Z</time></trkpt><trkpt lat="50.71370567669005" lon="3.1167341333633374"><ele>42.25</ele><time>2026-04-17T14:58:47.999Z</time></trkpt><trkpt lat="50.71384204517014" lon="3.11692873601974"><ele>42.5</ele><time>2026-04-17T14:58:50.999Z</time></trkpt><trkpt lat="50.71393309857549" lon="3.1170535279296017"><ele>42.75</ele><time>2026-04-17T14:58:52.999Z</time></trkpt><trkpt lat="50.71401403140368" lon="3.1171802245371287"><ele>43.0</ele><time>2026-04-17T14:58:54.999Z</time></trkpt><trkpt lat="50.71409803917283" lon="3.1173047094477546"><ele>43.2</ele><time>2026-04-17T14:58:56.999Z</time></trkpt><trkpt lat="50.71417984732573" lon="3.117425938609362"><ele>43.4</ele><time>2026-04-17T14:58:58.999Z</time></trkpt><trkpt lat="50.714259955766344" lon="3.1175418355173643"><ele>43.6</ele><time>2026-04-17T14:59:00.999Z</time></trkpt><trkpt lat="50.714339780938715" lon="3.117655099861047"><ele>43.800000000000004</ele><time>2026-04-17T14:59:02.999Z</time></trkpt><trkpt lat="50.714401805767245" lon="3.117765370883942"><ele>44.0</ele><time>2026-04-17T14:59:04.999Z</time></trkpt><trkpt lat="50.71448497862812" lon="3.117859888082663"><ele>44.0</ele><time>2026-04-17T14:59:06.999Z</time></trkpt><trkpt lat="50.714554050848264" lon="3.117972012180484"><ele>44.0</ele><time>2026-04-17T14:59:08.999Z</time></trkpt><trkpt lat="50.71463870002005" lon="3.1181622718297692"><ele>44.0</ele><time>2026-04-17T14:59:12.999Z</time></trkpt><trkpt lat="50.71465641794604" lon="3.118296605168074"><ele>44.0</ele><time>2026-04-17T14:59:14.999Z</time></trkpt><trkpt lat="50.71461413384573" lon="3.118420907645228"><ele>44.0</ele><time>2026-04-17T14:59:16.999Z</time></trkpt><trkpt lat="50.714573046026075" lon="3.1185518861163897"><ele>44.6</ele><time>2026-04-17T14:59:18.999Z</time></trkpt><trkpt lat="50.71454795788792" lon="3.118705869829848"><ele>45.2</ele><time>2026-04-17T14:59:20.999Z</time></trkpt><trkpt lat="50.71450518215821" lon="3.1188655123414297"><ele>45.800000000000004</ele><time>2026-04-17T14:59:22.999Z</time></trkpt><trkpt lat="50.714448241146705" lon="3.119031362484091"><ele>46.400000000000006</ele><time>2026-04-17T14:59:24.999Z</time></trkpt><trkpt lat="50.714395726418445" lon="3.1191893008219322"><ele>47.0</ele><time>2026-04-17T14:59:26.999Z</time></trkpt><trkpt lat="50.71433808870775" lon="3.119349880498837"><ele>46.75</ele><time>2026-04-17T14:59:28.999Z</time></trkpt><trkpt lat="50.714279357944484" lon="3.119511709322401"><ele>46.5</ele><time>2026-04-17T14:59:30.999Z</time></trkpt><trkpt lat="50.71417230717542" lon="3.1198059067315898"><ele>46.25</ele><time>2026-04-17T14:59:34.999Z</time></trkpt><trkpt lat="50.71412263493805" lon="3.119941145772325"><ele>46.0</ele><time>2026-04-17T14:59:36.999Z</time></trkpt><trkpt lat="50.714065940898514" lon="3.120077387224217"><ele>46.0</ele><time>2026-04-17T14:59:38.999Z</time></trkpt><trkpt lat="50.71400551268558" lon="3.1202126594214037"><ele>46.0</ele><time>2026-04-17T14:59:40.999Z</time></trkpt><trkpt lat="50.71395134658486" lon="3.1203375150764345"><ele>46.0</ele><time>2026-04-17T14:59:42.999Z</time></trkpt><trkpt lat="50.713892709040735" lon="3.1204503929650267"><ele>46.0</ele><time>2026-04-17T14:59:44.999Z</time></trkpt><trkpt lat="50.71384060850758" lon="3.120561913910832"><ele>46.0</ele><time>2026-04-17T14:59:46.999Z</time></trkpt><trkpt lat="50.71378681114202" lon="3.1206651811373787"><ele>46.199999999999996</ele><time>2026-04-17T14:59:48.999Z</time></trkpt><trkpt lat="50.71374111274736" lon="3.120774793097008"><ele>46.4</ele><time>2026-04-17T14:59:51Z</time></trkpt><trkpt lat="50.71369054171764" lon="3.120885341346497"><ele>46.6</ele><time>2026-04-17T14:59:53Z</time></trkpt><trkpt lat="50.71357477718407" lon="3.1211141757053666"><ele>46.8</ele><time>2026-04-17T14:59:57Z</time></trkpt><trkpt lat="50.713516089112176" lon="3.1212219975579685"><ele>47.0</ele><time>2026-04-17T14:59:59Z</time></trkpt><trkpt lat="50.7134673683585" lon="3.121319658784661"><ele>47.5</ele><time>2026-04-17T15:00:01Z</time></trkpt><trkpt lat="50.713426723194644" lon="3.121428891670441"><ele>48.0</ele><time>2026-04-17T15:00:03Z</time></trkpt><trkpt lat="50.71337761139987" lon="3.121526328341482"><ele>48.5</ele><time>2026-04-17T15:00:05Z</time></trkpt><trkpt lat="50.713327968662156" lon="3.121640851516686"><ele>49.0</ele><time>2026-04-17T15:00:07Z</time></trkpt><trkpt lat="50.71327361636504" lon="3.1217401022634235"><ele>49.50000000000001</ele><time>2026-04-17T15:00:09Z</time></trkpt><trkpt lat="50.713224944826955" lon="3.1218454303558665"><ele>50.0</ele><time>2026-04-17T15:00:11Z</time></trkpt><trkpt lat="50.71317388734747" lon="3.1219445111119417"><ele>50.2</ele><time>2026-04-17T15:00:13Z</time></trkpt><trkpt lat="50.713130648362366" lon="3.1220425983004927"><ele>50.4</ele><time>2026-04-17T15:00:15Z</time></trkpt><trkpt lat="50.713032309679015" lon="3.1222525253406697"><ele>50.599999999999994</ele><time>2026-04-17T15:00:19Z</time></trkpt><trkpt lat="50.712979581046504" lon="3.1223511753949986"><ele>50.8</ele><time>2026-04-17T15:00:21Z</time></trkpt><trkpt lat="50.712931643110984" lon="3.122453444577276"><ele>51.0</ele><time>2026-04-17T15:00:23Z</time></trkpt><trkpt lat="50.712877478389345" lon="3.1225494583535167"><ele>50.833333333333336</ele><time>2026-04-17T15:00:25Z</time></trkpt><trkpt lat="50.712828256318275" lon="3.1226447334829945"><ele>50.66666666666667</ele><time>2026-04-17T15:00:27Z</time></trkpt><trkpt lat="50.71277355015467" lon="3.1227461408259076"><ele>50.5</ele><time>2026-04-17T15:00:29Z</time></trkpt><trkpt lat="50.712714176082216" lon="3.1228278037205928"><ele>50.333333333333336</ele><time>2026-04-17T15:00:31Z</time></trkpt><trkpt lat="50.712655790775" lon="3.1229166005750604"><ele>50.16666666666667</ele><time>2026-04-17T15:00:33Z</time></trkpt><trkpt lat="50.712601399796334" lon="3.123008010953745"><ele>50.0</ele><time>2026-04-17T15:00:35Z</time></trkpt><trkpt lat="50.712546981031586" lon="3.123103821007859"><ele>50.2</ele><time>2026-04-17T15:00:37Z</time></trkpt><trkpt lat="50.71242796498146" lon="3.12329450945211"><ele>50.4</ele><time>2026-04-17T15:00:41Z</time></trkpt><trkpt lat="50.712368321465505" lon="3.1234013714881868"><ele>50.599999999999994</ele><time>2026-04-17T15:00:42.999Z</time></trkpt><trkpt lat="50.71230441121294" lon="3.1235045077379024"><ele>50.8</ele><time>2026-04-17T15:00:44.999Z</time></trkpt><trkpt lat="50.71223636438737" lon="3.123610686213176"><ele>51.0</ele><time>2026-04-17T15:00:46.999Z</time></trkpt><trkpt lat="50.71216681727741" lon="3.1237227136032275"><ele>51.0</ele><time>2026-04-17T15:00:48.999Z</time></trkpt><trkpt lat="50.71209044279011" lon="3.123839030193369"><ele>51.0</ele><time>2026-04-17T15:00:50.999Z</time></trkpt><trkpt lat="50.7120145463426" lon="3.1239623756179844"><ele>51.0</ele><time>2026-04-17T15:00:52.999Z</time></trkpt><trkpt lat="50.71192534175848" lon="3.124093428478575"><ele>51.0</ele><time>2026-04-17T15:00:54.999Z</time></trkpt><trkpt lat="50.711872851724586" lon="3.124150022460122"><ele>51.0</ele><time>2026-04-17T15:00:55.999Z</time></trkpt><trkpt lat="50.711818688001145" lon="3.1242060905176112"><ele>51.0</ele><time>2026-04-17T15:00:56.999Z</time></trkpt><trkpt lat="50.711764019842214" lon="3.1242686071787498"><ele>51.0</ele><time>2026-04-17T15:00:57.999Z</time></trkpt><trkpt lat="50.71165264390076" lon="3.124393122568311"><ele>51.0</ele><time>2026-04-17T15:00:59.999Z</time></trkpt><trkpt lat="50.71159408945493" lon="3.124454789543651"><ele>51.0</ele><time>2026-04-17T15:01:00.999Z</time></trkpt><trkpt lat="50.71153799790804" lon="3.1245132709785715"><ele>51.0</ele><time>2026-04-17T15:01:01.999Z</time></trkpt><trkpt lat="50.7114797043652" lon="3.124571606027815"><ele>51.0</ele><time>2026-04-17T15:01:02.999Z</time></trkpt><trkpt lat="50.711420400193276" lon="3.1246300619108553"><ele>51.0</ele><time>2026-04-17T15:01:03.999Z</time></trkpt><trkpt lat="50.71136296919857" lon="3.124684889018495"><ele>51.0</ele><time>2026-04-17T15:01:04.999Z</time></trkpt><trkpt lat="50.71130710204317" lon="3.1247410868189784"><ele>51.0</ele><time>2026-04-17T15:01:05.999Z</time></trkpt><trkpt lat="50.71125431330873" lon="3.1247979481540784"><ele>51.0</ele><time>2026-04-17T15:01:06.999Z</time></trkpt><trkpt lat="50.711202531044556" lon="3.124859943625674"><ele>51.0</ele><time>2026-04-17T15:01:07.999Z</time></trkpt><trkpt lat="50.71114636368676" lon="3.124917377770754"><ele>51.0</ele><time>2026-04-17T15:01:08.999Z</time></trkpt><trkpt lat="50.711091069161625" lon="3.124975887633639"><ele>51.0</ele><time>2026-04-17T15:01:09.999Z</time></trkpt><trkpt lat="50.711038443158444" lon="3.1250383005750426"><ele>50.666666666666664</ele><time>2026-04-17T15:01:10.999Z</time></trkpt><trkpt lat="50.71099335832769" lon="3.125110282912814"><ele>50.33333333333333</ele><time>2026-04-17T15:01:11.999Z</time></trkpt><trkpt lat="50.710944111165354" lon="3.1251840835662095"><ele>50.0</ele><time>2026-04-17T15:01:12.999Z</time></trkpt><trkpt lat="50.710889077487884" lon="3.1252419908171682"><ele>49.666666666666664</ele><time>2026-04-17T15:01:13.999Z</time></trkpt><trkpt lat="50.710830615033544" lon="3.1252849131940867"><ele>49.33333333333333</ele><time>2026-04-17T15:01:14.999Z</time></trkpt><trkpt lat="50.710716572181425" lon="3.1253544333597882"><ele>49.0</ele><time>2026-04-17T15:01:16.999Z</time></trkpt><trkpt lat="50.71061086312343" lon="3.1254628018145403"><ele>48.99999999999999</ele><time>2026-04-17T15:01:18.999Z</time></trkpt><trkpt lat="50.71050970677195" lon="3.12560490620698"><ele>49.0</ele><time>2026-04-17T15:01:20.999Z</time></trkpt><trkpt lat="50.71045461638635" lon="3.125669344458854"><ele>49.0</ele><time>2026-04-17T15:01:21.999Z</time></trkpt><trkpt lat="50.710401184228246" lon="3.1257398150446782"><ele>49.0</ele><time>2026-04-17T15:01:22.999Z</time></trkpt><trkpt lat="50.71035008709739" lon="3.125809692126856"><ele>48.99999999999999</ele><time>2026-04-17T15:01:23.999Z</time></trkpt><trkpt lat="50.7102978879546" lon="3.1258803899197534"><ele>49.0</ele><time>2026-04-17T15:01:24.999Z</time></trkpt><trkpt lat="50.71024264795344" lon="3.125949515996396"><ele>49.0</ele><time>2026-04-17T15:01:25.999Z</time></trkpt><trkpt lat="50.710186560876906" lon="3.1260140776030396"><ele>49.0</ele><time>2026-04-17T15:01:26.999Z</time></trkpt><trkpt lat="50.710128797459966" lon="3.1260779178442744"><ele>49.0</ele><time>2026-04-17T15:01:27.999Z</time></trkpt><trkpt lat="50.71007263947188" lon="3.1261432244706593"><ele>49.0</ele><time>2026-04-17T15:01:28.999Z</time></trkpt><trkpt lat="50.71001608854886" lon="3.1262061067027136"><ele>49.0</ele><time>2026-04-17T15:01:29.999Z</time></trkpt><trkpt lat="50.70995744971009" lon="3.126266126831072"><ele>49.0</ele><time>2026-04-17T15:01:30.999Z</time></trkpt><trkpt lat="50.70990139594061" lon="3.1263233351649746"><ele>49.0</ele><time>2026-04-17T15:01:31.999Z</time></trkpt><trkpt lat="50.70984642631645" lon="3.126378972356231"><ele>49.0</ele><time>2026-04-17T15:01:32.999Z</time></trkpt><trkpt lat="50.70979075865366" lon="3.1264333313531307"><ele>49.0</ele><time>2026-04-17T15:01:33.999Z</time></trkpt><trkpt lat="50.70973182151214" lon="3.1264813629193347"><ele>49.0</ele><time>2026-04-17T15:01:34.999Z</time></trkpt><trkpt lat="50.709624351389515" lon="3.12654912139192"><ele>49.0</ele><time>2026-04-17T15:01:36.999Z</time></trkpt><trkpt lat="50.709512119244295" lon="3.126627071029759"><ele>49.0</ele><time>2026-04-17T15:01:38.999Z</time></trkpt><trkpt lat="50.709403750574225" lon="3.1267054385150637"><ele>49.0</ele><time>2026-04-17T15:01:40.999Z</time></trkpt><trkpt lat="50.70919022241584" lon="3.1268691947968486"><ele>49.0</ele><time>2026-04-17T15:01:44.999Z</time></trkpt><trkpt lat="50.70908413293612" lon="3.1269409561848844"><ele>49.0</ele><time>2026-04-17T15:01:46.999Z</time></trkpt><trkpt lat="50.70898012244853" lon="3.1270200575652227"><ele>49.0</ele><time>2026-04-17T15:01:48.999Z</time></trkpt><trkpt lat="50.708879858142275" lon="3.1270823807522357"><ele>49.0</ele><time>2026-04-17T15:01:50.999Z</time></trkpt><trkpt lat="50.708797827523576" lon="3.127165455259916"><ele>49.0</ele><time>2026-04-17T15:01:52.999Z</time></trkpt><trkpt lat="50.70872378565952" lon="3.1272584252830753"><ele>49.0</ele><time>2026-04-17T15:01:54.999Z</time></trkpt><trkpt lat="50.708642985749805" lon="3.1273141661705846"><ele>49.0</ele><time>2026-04-17T15:01:57Z</time></trkpt><trkpt lat="50.708572051836285" lon="3.1273810606955013"><ele>49.5</ele><time>2026-04-17T15:01:59Z</time></trkpt><trkpt lat="50.70849691677644" lon="3.1274407540822717"><ele>50.0</ele><time>2026-04-17T15:02:01Z</time></trkpt><trkpt lat="50.70842258352066" lon="3.1275350787553147"><ele>50.5</ele><time>2026-04-17T15:02:03Z</time></trkpt><trkpt lat="50.70825988247871" lon="3.1276756258356997"><ele>51.0</ele><time>2026-04-17T15:02:07Z</time></trkpt><trkpt lat="50.70817677469538" lon="3.1277440391727693"><ele>51.0</ele><time>2026-04-17T15:02:09Z</time></trkpt><trkpt lat="50.708095267965824" lon="3.1278174908890013"><ele>51.0</ele><time>2026-04-17T15:02:11Z</time></trkpt><trkpt lat="50.708018631124645" lon="3.1278966302204654"><ele>51.0</ele><time>2026-04-17T15:02:13Z</time></trkpt><trkpt lat="50.707941461498734" lon="3.127973283687561"><ele>51.0</ele><time>2026-04-17T15:02:15Z</time></trkpt><trkpt lat="50.70786260333915" lon="3.1280456822757747"><ele>51.0</ele><time>2026-04-17T15:02:17Z</time></trkpt><trkpt lat="50.70778587374074" lon="3.1281214440464855"><ele>51.0</ele><time>2026-04-17T15:02:19Z</time></trkpt><trkpt lat="50.707707812826165" lon="3.1282016395165995"><ele>51.0</ele><time>2026-04-17T15:02:21Z</time></trkpt><trkpt lat="50.707628071514414" lon="3.128270675466155"><ele>51.0</ele><time>2026-04-17T15:02:23Z</time></trkpt><trkpt lat="50.707547317737706" lon="3.1283495812709847"><ele>51.0</ele><time>2026-04-17T15:02:25Z</time></trkpt><trkpt lat="50.7073835193461" lon="3.128518670873298"><ele>51.599999999999994</ele><time>2026-04-17T15:02:29Z</time></trkpt><trkpt lat="50.707297126615394" lon="3.1285997302753525"><ele>52.2</ele><time>2026-04-17T15:02:31Z</time></trkpt><trkpt lat="50.70721063636575" lon="3.1286757666014715"><ele>52.800000000000004</ele><time>2026-04-17T15:02:33Z</time></trkpt><trkpt lat="50.707127161705586" lon="3.128752535677868"><ele>53.400000000000006</ele><time>2026-04-17T15:02:35Z</time></trkpt><trkpt lat="50.707043641508065" lon="3.128820838792773"><ele>54.0</ele><time>2026-04-17T15:02:37Z</time></trkpt><trkpt lat="50.706982022423205" lon="3.1288961925911347"><ele>54.0</ele><time>2026-04-17T15:02:39Z</time></trkpt><trkpt lat="50.70691125681866" lon="3.1289681547470045"><ele>54.00000000000001</ele><time>2026-04-17T15:02:41Z</time></trkpt><trkpt lat="50.70684331835865" lon="3.129049048612093"><ele>54.00000000000001</ele><time>2026-04-17T15:02:43Z</time></trkpt><trkpt lat="50.70678236959561" lon="3.129153376097537"><ele>54.0</ele><time>2026-04-17T15:02:44.999Z</time></trkpt><trkpt lat="50.706709203800095" lon="3.129228514249599"><ele>54.0</ele><time>2026-04-17T15:02:46.999Z</time></trkpt><trkpt lat="50.706551084730656" lon="3.129389608554448"><ele>53.400000000000006</ele><time>2026-04-17T15:02:50.999Z</time></trkpt><trkpt lat="50.706464106315615" lon="3.1294773078899185"><ele>52.800000000000004</ele><time>2026-04-17T15:02:52.999Z</time></trkpt><trkpt lat="50.706373698809145" lon="3.1295664038049305"><ele>52.2</ele><time>2026-04-17T15:02:54.999Z</time></trkpt><trkpt lat="50.706278966768565" lon="3.1296610499771282"><ele>51.599999999999994</ele><time>2026-04-17T15:02:56.999Z</time></trkpt><trkpt lat="50.70618603466652" lon="3.129749619292309"><ele>51.0</ele><time>2026-04-17T15:02:58.999Z</time></trkpt><trkpt lat="50.70609547341429" lon="3.129844679134361"><ele>51.5</ele><time>2026-04-17T15:03:00.999Z</time></trkpt><trkpt lat="50.70599578382902" lon="3.129938108393087"><ele>52.0</ele><time>2026-04-17T15:03:02.999Z</time></trkpt><trkpt lat="50.70590353227703" lon="3.130033466236648"><ele>52.5</ele><time>2026-04-17T15:03:04.999Z</time></trkpt><trkpt lat="50.705804474493874" lon="3.13012526421198"><ele>53.0</ele><time>2026-04-17T15:03:06.999Z</time></trkpt><trkpt lat="50.705708818662586" lon="3.1302228854468757"><ele>53.0</ele><time>2026-04-17T15:03:08.999Z</time></trkpt><trkpt lat="50.70551616660968" lon="3.130409203767735"><ele>53.0</ele><time>2026-04-17T15:03:12.999Z</time></trkpt><trkpt lat="50.705422155910824" lon="3.130511618228697"><ele>53.0</ele><time>2026-04-17T15:03:14.999Z</time></trkpt><trkpt lat="50.705316981635356" lon="3.130610002285248"><ele>53.0</ele><time>2026-04-17T15:03:16.999Z</time></trkpt><trkpt lat="50.70521536074566" lon="3.1307153606954587"><ele>53.0</ele><time>2026-04-17T15:03:18.999Z</time></trkpt><trkpt lat="50.705108212315636" lon="3.130824489902656"><ele>53.0</ele><time>2026-04-17T15:03:20.999Z</time></trkpt><trkpt lat="50.70505303022049" lon="3.1308783117019137"><ele>53.0</ele><time>2026-04-17T15:03:21.999Z</time></trkpt><trkpt lat="50.70499426282512" lon="3.1309338155631017"><ele>53.0</ele><time>2026-04-17T15:03:22.999Z</time></trkpt><trkpt lat="50.704939223493646" lon="3.13099493011443"><ele>52.833333333333336</ele><time>2026-04-17T15:03:23.999Z</time></trkpt><trkpt lat="50.70488160777745" lon="3.131062533952533"><ele>52.66666666666667</ele><time>2026-04-17T15:03:24.999Z</time></trkpt><trkpt lat="50.70482294923134" lon="3.1311278362292962"><ele>52.5</ele><time>2026-04-17T15:03:25.999Z</time></trkpt><trkpt lat="50.70475818616349" lon="3.131190332394999"><ele>52.33333333333333</ele><time>2026-04-17T15:03:26.999Z</time></trkpt><trkpt lat="50.70469182515944" lon="3.1312563653022045"><ele>52.166666666666664</ele><time>2026-04-17T15:03:27.999Z</time></trkpt><trkpt lat="50.70462409566707" lon="3.131317973800909"><ele>52.0</ele><time>2026-04-17T15:03:28.999Z</time></trkpt><trkpt lat="50.70455672001694" lon="3.131391036060092"><ele>52.0</ele><time>2026-04-17T15:03:29.999Z</time></trkpt><trkpt lat="50.70441762416099" lon="3.131540288393183"><ele>52.0</ele><time>2026-04-17T15:03:31.999Z</time></trkpt><trkpt lat="50.7043464720261" lon="3.131614706105761"><ele>52.0</ele><time>2026-04-17T15:03:32.999Z</time></trkpt><trkpt lat="50.7042784675548" lon="3.1316862436725974"><ele>52.0</ele><time>2026-04-17T15:03:33.999Z</time></trkpt><trkpt lat="50.70421098524876" lon="3.1317629113808443"><ele>52.0</ele><time>2026-04-17T15:03:34.999Z</time></trkpt><trkpt lat="50.70414285138428" lon="3.131833818971505"><ele>51.49999999999999</ele><time>2026-04-17T15:03:35.999Z</time></trkpt><trkpt lat="50.704076022968856" lon="3.1319061042723644"><ele>51.0</ele><time>2026-04-17T15:03:36.999Z</time></trkpt><trkpt lat="50.70400637049887" lon="3.1319763849970887"><ele>50.5</ele><time>2026-04-17T15:03:37.999Z</time></trkpt><trkpt lat="50.703940838322076" lon="3.1320457887105366"><ele>50.0</ele><time>2026-04-17T15:03:38.999Z</time></trkpt><trkpt lat="50.703876840749544" lon="3.1321100640978767"><ele>49.49999999999999</ele><time>2026-04-17T15:03:39.999Z</time></trkpt><trkpt lat="50.70381515736692" lon="3.1321784229153615"><ele>49.0</ele><time>2026-04-17T15:03:40.999Z</time></trkpt><trkpt lat="50.70375700906802" lon="3.132247071789038"><ele>49.0</ele><time>2026-04-17T15:03:41.999Z</time></trkpt><trkpt lat="50.703696359368536" lon="3.132309882327618"><ele>49.0</ele><time>2026-04-17T15:03:42.999Z</time></trkpt><trkpt lat="50.70363788105068" lon="3.1323633538832825"><ele>49.0</ele><time>2026-04-17T15:03:43.999Z</time></trkpt><trkpt lat="50.70358026640966" lon="3.1324216412195245"><ele>49.0</ele><time>2026-04-17T15:03:44.999Z</time></trkpt><trkpt lat="50.70351880481373" lon="3.1324820707455587"><ele>49.0</ele><time>2026-04-17T15:03:45.999Z</time></trkpt><trkpt lat="50.70346146490504" lon="3.132547964490256"><ele>49.0</ele><time>2026-04-17T15:03:46.999Z</time></trkpt><trkpt lat="50.70339794884708" lon="3.1326111307438644"><ele>49.0</ele><time>2026-04-17T15:03:47.999Z</time></trkpt><trkpt lat="50.703340872864196" lon="3.1326775815717984"><ele>50.25</ele><time>2026-04-17T15:03:48.999Z</time></trkpt><trkpt lat="50.70324377385959" lon="3.1327939588670985"><ele>51.5</ele><time>2026-04-17T15:03:50.999Z</time></trkpt><trkpt lat="50.703105083009454" lon="3.1329482172915966"><ele>52.75</ele><time>2026-04-17T15:03:53.999Z</time></trkpt><trkpt lat="50.70302063502148" lon="3.1330380090656655"><ele>54.0</ele><time>2026-04-17T15:03:55.999Z</time></trkpt><trkpt lat="50.702972015574844" lon="3.133101904608373"><ele>54.0</ele><time>2026-04-17T15:03:56.999Z</time></trkpt><trkpt lat="50.70290052203769" lon="3.1332054195705417"><ele>54.00000000000001</ele><time>2026-04-17T15:03:58.998Z</time></trkpt><trkpt lat="50.70283289756199" lon="3.133315538901223"><ele>54.00000000000001</ele><time>2026-04-17T15:04:01Z</time></trkpt><trkpt lat="50.70276067991789" lon="3.1334378608353295"><ele>54.0</ele><time>2026-04-17T15:04:03Z</time></trkpt><trkpt lat="50.70269705417714" lon="3.1335566721515744"><ele>54.0</ele><time>2026-04-17T15:04:05Z</time></trkpt><trkpt lat="50.7026255541027" lon="3.1336689549206156"><ele>54.0</ele><time>2026-04-17T15:04:07Z</time></trkpt><trkpt lat="50.70255725911206" lon="3.133772628166509"><ele>54.0</ele><time>2026-04-17T15:04:09Z</time></trkpt><trkpt lat="50.70247441292993" lon="3.1338733653852526"><ele>54.0</ele><time>2026-04-17T15:04:11Z</time></trkpt><trkpt lat="50.70238747703439" lon="3.133971868208664"><ele>54.0</ele><time>2026-04-17T15:04:13Z</time></trkpt><trkpt lat="50.70220366650024" lon="3.13415969844375"><ele>54.0</ele><time>2026-04-17T15:04:17Z</time></trkpt><trkpt lat="50.70211368290906" lon="3.1342459964887763"><ele>54.0</ele><time>2026-04-17T15:04:19Z</time></trkpt><trkpt lat="50.70199607611183" lon="3.134362866403921"><ele>54.0</ele><time>2026-04-17T15:04:22Z</time></trkpt><trkpt lat="50.70190977677628" lon="3.1344400684184808"><ele>54.0</ele><time>2026-04-17T15:04:24Z</time></trkpt><trkpt lat="50.70180690704361" lon="3.134526111030843"><ele>53.6</ele><time>2026-04-17T15:04:26Z</time></trkpt><trkpt lat="50.70171994379098" lon="3.1346051392033396"><ele>53.2</ele><time>2026-04-17T15:04:28Z</time></trkpt><trkpt lat="50.70163726587069" lon="3.1346978881523695"><ele>52.800000000000004</ele><time>2026-04-17T15:04:30Z</time></trkpt><trkpt lat="50.701577297276984" lon="3.1348133805791036"><ele>52.400000000000006</ele><time>2026-04-17T15:04:32Z</time></trkpt><trkpt lat="50.70147833795928" lon="3.134879131795506"><ele>52.0</ele><time>2026-04-17T15:04:34Z</time></trkpt><trkpt lat="50.70129457600659" lon="3.135076141978137"><ele>52.0</ele><time>2026-04-17T15:04:38Z</time></trkpt><trkpt lat="50.70121450025338" lon="3.13520246367432"><ele>52.0</ele><time>2026-04-17T15:04:40Z</time></trkpt><trkpt lat="50.701148923717824" lon="3.1353234037790796"><ele>52.0</ele><time>2026-04-17T15:04:42Z</time></trkpt><trkpt lat="50.70107448879569" lon="3.135455741321169"><ele>52.0</ele><time>2026-04-17T15:04:44Z</time></trkpt><trkpt lat="50.70099907862651" lon="3.1355687850880205"><ele>52.0</ele><time>2026-04-17T15:04:45.999Z</time></trkpt><trkpt lat="50.70093165846814" lon="3.1356856807417253"><ele>52.166666666666664</ele><time>2026-04-17T15:04:47.999Z</time></trkpt><trkpt lat="50.70088951104291" lon="3.1357619990635466"><ele>52.33333333333333</ele><time>2026-04-17T15:04:51.999Z</time></trkpt><trkpt lat="50.700843765813005" lon="3.135850779209191"><ele>52.5</ele><time>2026-04-17T15:04:54.999Z</time></trkpt><trkpt lat="50.7007439519987" lon="3.1360355425676127"><ele>52.66666666666667</ele><time>2026-04-17T15:04:59.999Z</time></trkpt><trkpt lat="50.700695271147914" lon="3.1361124982813444"><ele>52.833333333333336</ele><time>2026-04-17T15:05:01.999Z</time></trkpt><trkpt lat="50.700644727488516" lon="3.1362082073220274"><ele>53.0</ele><time>2026-04-17T15:05:03.999Z</time></trkpt><trkpt lat="50.700584972289604" lon="3.1363101242679012"><ele>53.0</ele><time>2026-04-17T15:05:05.999Z</time></trkpt><trkpt lat="50.700527080347" lon="3.13641401014475"><ele>53.0</ele><time>2026-04-17T15:05:07.999Z</time></trkpt><trkpt lat="50.700458035409376" lon="3.13651810856787"><ele>53.0</ele><time>2026-04-17T15:05:09.999Z</time></trkpt><trkpt lat="50.70039461173513" lon="3.1366428177032923"><ele>53.0</ele><time>2026-04-17T15:05:11.999Z</time></trkpt><trkpt lat="50.700327696090774" lon="3.136763129721738"><ele>53.0</ele><time>2026-04-17T15:05:13.999Z</time></trkpt><trkpt lat="50.70025156275809" lon="3.1368836199515346"><ele>52.75</ele><time>2026-04-17T15:05:15.999Z</time></trkpt><trkpt lat="50.700116197814744" lon="3.137125832521729"><ele>52.5</ele><time>2026-04-17T15:05:19.999Z</time></trkpt><trkpt lat="50.70005404059724" lon="3.137258670611373"><ele>52.25</ele><time>2026-04-17T15:05:21.999Z</time></trkpt><trkpt lat="50.699993978997036" lon="3.137391463319483"><ele>52.0</ele><time>2026-04-17T15:05:23.999Z</time></trkpt><trkpt lat="50.699946868349436" lon="3.137502852225739"><ele>51.8</ele><time>2026-04-17T15:05:25.999Z</time></trkpt><trkpt lat="50.69989202385997" lon="3.1376429368950443"><ele>51.6</ele><time>2026-04-17T15:05:28.999Z</time></trkpt><trkpt lat="50.69982205732969" lon="3.1377608534751995"><ele>51.4</ele><time>2026-04-17T15:05:30.999Z</time></trkpt><trkpt lat="50.699755323002705" lon="3.1379020183895423"><ele>51.199999999999996</ele><time>2026-04-17T15:05:32.999Z</time></trkpt><trkpt lat="50.699676931143465" lon="3.138039891159798"><ele>51.0</ele><time>2026-04-17T15:05:34.999Z</time></trkpt><trkpt lat="50.699626663063036" lon="3.1381017413918006"><ele>51.0</ele><time>2026-04-17T15:05:35.999Z</time></trkpt><trkpt lat="50.69957188925137" lon="3.1381752692296496"><ele>51.0</ele><time>2026-04-17T15:05:36.999Z</time></trkpt><trkpt lat="50.69944361702976" lon="3.138329056892571"><ele>51.0</ele><time>2026-04-17T15:05:38.999Z</time></trkpt><trkpt lat="50.69936882876109" lon="3.1384019975371893"><ele>51.0</ele><time>2026-04-17T15:05:39.999Z</time></trkpt><trkpt lat="50.69930246490331" lon="3.1384723821372003"><ele>51.0</ele><time>2026-04-17T15:05:40.999Z</time></trkpt><trkpt lat="50.69923588817805" lon="3.138535931443504"><ele>50.5</ele><time>2026-04-17T15:05:41.999Z</time></trkpt><trkpt lat="50.69916892160727" lon="3.1385976834103317"><ele>50.0</ele><time>2026-04-17T15:05:42.999Z</time></trkpt><trkpt lat="50.69910738975318" lon="3.138665456379194"><ele>49.5</ele><time>2026-04-17T15:05:43.999Z</time></trkpt><trkpt lat="50.69904915295386" lon="3.138733003749294"><ele>49.0</ele><time>2026-04-17T15:05:44.999Z</time></trkpt><trkpt lat="50.69899203699558" lon="3.1388140573392858"><ele>48.5</ele><time>2026-04-17T15:05:45.999Z</time></trkpt><trkpt lat="50.69893360686907" lon="3.138894956114521"><ele>48.0</ele><time>2026-04-17T15:05:46.999Z</time></trkpt><trkpt lat="50.69886710775852" lon="3.138967587609596"><ele>48.0</ele><time>2026-04-17T15:05:47.999Z</time></trkpt><trkpt lat="50.69879351974451" lon="3.1390353437056846"><ele>48.0</ele><time>2026-04-17T15:05:48.999Z</time></trkpt><trkpt lat="50.698722211385046" lon="3.1391051031847264"><ele>48.0</ele><time>2026-04-17T15:05:49.999Z</time></trkpt><trkpt lat="50.69864894412709" lon="3.1391804111149733"><ele>48.0</ele><time>2026-04-17T15:05:50.999Z</time></trkpt><trkpt lat="50.69857855468735" lon="3.1392589259530825"><ele>48.0</ele><time>2026-04-17T15:05:51.999Z</time></trkpt><trkpt lat="50.698513746152166" lon="3.1393471704643416"><ele>48.0</ele><time>2026-04-17T15:05:52.999Z</time></trkpt><trkpt lat="50.69844638768274" lon="3.1394312766638017"><ele>47.4</ele><time>2026-04-17T15:05:53.999Z</time></trkpt><trkpt lat="50.69837301731146" lon="3.139508427218803"><ele>46.8</ele><time>2026-04-17T15:05:54.999Z</time></trkpt><trkpt lat="50.69830107586535" lon="3.1395909899958276"><ele>46.2</ele><time>2026-04-17T15:05:55.999Z</time></trkpt><trkpt lat="50.698225318985955" lon="3.139673817434392"><ele>45.6</ele><time>2026-04-17T15:05:56.999Z</time></trkpt><trkpt lat="50.69815695999813" lon="3.139759800971221"><ele>45.0</ele><time>2026-04-17T15:05:57.999Z</time></trkpt><trkpt lat="50.69801899580042" lon="3.1399265153735905"><ele>44.8</ele><time>2026-04-17T15:05:59.999Z</time></trkpt><trkpt lat="50.69794824124538" lon="3.140013136557733"><ele>44.6</ele><time>2026-04-17T15:06:00.999Z</time></trkpt><trkpt lat="50.697872847925" lon="3.140103008802551"><ele>44.400000000000006</ele><time>2026-04-17T15:06:01.998Z</time></trkpt><trkpt lat="50.697800615607534" lon="3.1401932516117697"><ele>44.2</ele><time>2026-04-17T15:06:02.998Z</time></trkpt><trkpt lat="50.69772692643017" lon="3.1402780400007306"><ele>44.0</ele><time>2026-04-17T15:06:03.998Z</time></trkpt><trkpt lat="50.69765515036519" lon="3.140366116329287"><ele>44.0</ele><time>2026-04-17T15:06:04.998Z</time></trkpt><trkpt lat="50.69758270643616" lon="3.1404492152454515"><ele>44.0</ele><time>2026-04-17T15:06:05.998Z</time></trkpt><trkpt lat="50.69750927992341" lon="3.1405337592748097"><ele>44.0</ele><time>2026-04-17T15:06:07Z</time></trkpt><trkpt lat="50.697439374484325" lon="3.140619482588785"><ele>44.0</ele><time>2026-04-17T15:06:08Z</time></trkpt><trkpt lat="50.69736883799915" lon="3.140697498614383"><ele>44.0</ele><time>2026-04-17T15:06:09Z</time></trkpt><trkpt lat="50.697311606293916" lon="3.140783823434122"><ele>44.0</ele><time>2026-04-17T15:06:10Z</time></trkpt><trkpt lat="50.69726422172165" lon="3.14089361593386"><ele>43.83333333333333</ele><time>2026-04-17T15:06:11Z</time></trkpt><trkpt lat="50.69722773869234" lon="3.14100928917266"><ele>43.666666666666664</ele><time>2026-04-17T15:06:12Z</time></trkpt><trkpt lat="50.69719993640538" lon="3.141125851075873"><ele>43.5</ele><time>2026-04-17T15:06:13Z</time></trkpt><trkpt lat="50.69717242488297" lon="3.1412413107369725"><ele>43.333333333333336</ele><time>2026-04-17T15:06:14Z</time></trkpt><trkpt lat="50.697139606061334" lon="3.141347245298492"><ele>43.16666666666667</ele><time>2026-04-17T15:06:15Z</time></trkpt><trkpt lat="50.697108114885815" lon="3.1414562508582127"><ele>43.0</ele><time>2026-04-17T15:06:16Z</time></trkpt><trkpt lat="50.69707989701985" lon="3.14156357239303"><ele>43.0</ele><time>2026-04-17T15:06:17Z</time></trkpt><trkpt lat="50.697052004710756" lon="3.141665779045547"><ele>43.0</ele><time>2026-04-17T15:06:18Z</time></trkpt><trkpt lat="50.69701830552793" lon="3.1417608080083608"><ele>43.0</ele><time>2026-04-17T15:06:19Z</time></trkpt><trkpt lat="50.69692817730433" lon="3.141927307785186"><ele>43.0</ele><time>2026-04-17T15:06:21Z</time></trkpt><trkpt lat="50.696883676583305" lon="3.1420034120631892"><ele>43.0</ele><time>2026-04-17T15:06:22Z</time></trkpt><trkpt lat="50.69683921944343" lon="3.142075956512717"><ele>43.0</ele><time>2026-04-17T15:06:23Z</time></trkpt><trkpt lat="50.69675386765748" lon="3.1422190518424338"><ele>42.5</ele><time>2026-04-17T15:06:25Z</time></trkpt><trkpt lat="50.69666445182019" lon="3.142369230833229"><ele>42.0</ele><time>2026-04-17T15:06:27Z</time></trkpt><trkpt lat="50.69661955533554" lon="3.1424518172574354"><ele>41.5</ele><time>2026-04-17T15:06:28Z</time></trkpt><trkpt lat="50.69657616594912" lon="3.142536095957315"><ele>41.0</ele><time>2026-04-17T15:06:29Z</time></trkpt><trkpt lat="50.696533348071725" lon="3.142628366114457"><ele>40.5</ele><time>2026-04-17T15:06:30Z</time></trkpt><trkpt lat="50.69649097400639" lon="3.1427203397868086"><ele>40.0</ele><time>2026-04-17T15:06:31Z</time></trkpt><trkpt lat="50.69644965596547" lon="3.1428150701850885"><ele>39.833333333333336</ele><time>2026-04-17T15:06:32Z</time></trkpt><trkpt lat="50.69640602776386" lon="3.1429117772972184"><ele>39.66666666666667</ele><time>2026-04-17T15:06:33Z</time></trkpt><trkpt lat="50.69635795989283" lon="3.1430035107934695"><ele>39.5</ele><time>2026-04-17T15:06:34Z</time></trkpt><trkpt lat="50.696303069081075" lon="3.1430939842766117"><ele>39.333333333333336</ele><time>2026-04-17T15:06:35Z</time></trkpt><trkpt lat="50.696250583642005" lon="3.1431804063138324"><ele>39.166666666666664</ele><time>2026-04-17T15:06:36Z</time></trkpt><trkpt lat="50.69619969090927" lon="3.1432773717523617"><ele>39.0</ele><time>2026-04-17T15:06:37Z</time></trkpt><trkpt lat="50.69614845455055" lon="3.143371723354182"><ele>38.8</ele><time>2026-04-17T15:06:38Z</time></trkpt><trkpt lat="50.69610199448392" lon="3.14347191468199"><ele>38.599999999999994</ele><time>2026-04-17T15:06:39Z</time></trkpt><trkpt lat="50.69606700242681" lon="3.1435805688575353"><ele>38.4</ele><time>2026-04-17T15:06:40Z</time></trkpt><trkpt lat="50.695993991458415" lon="3.1437954184132426"><ele>38.199999999999996</ele><time>2026-04-17T15:06:42Z</time></trkpt><trkpt lat="50.69596260985381" lon="3.143906781718637"><ele>38.0</ele><time>2026-04-17T15:06:43Z</time></trkpt><trkpt lat="50.69593472753089" lon="3.14402263057649"><ele>38.166666666666664</ele><time>2026-04-17T15:06:44Z</time></trkpt><trkpt lat="50.69590338588218" lon="3.1441326749483505"><ele>38.33333333333333</ele><time>2026-04-17T15:06:45Z</time></trkpt><trkpt lat="50.69586421751046" lon="3.1442370230693637"><ele>38.5</ele><time>2026-04-17T15:06:46Z</time></trkpt><trkpt lat="50.695822927684944" lon="3.144343571723744"><ele>38.666666666666664</ele><time>2026-04-17T15:06:47Z</time></trkpt><trkpt lat="50.69577525598272" lon="3.1444438002796598"><ele>38.833333333333336</ele><time>2026-04-17T15:06:47.999Z</time></trkpt><trkpt lat="50.69572548702632" lon="3.1445454834455373"><ele>39.0</ele><time>2026-04-17T15:06:48.999Z</time></trkpt><trkpt lat="50.69567200093341" lon="3.144640922981077"><ele>39.0</ele><time>2026-04-17T15:06:49.999Z</time></trkpt><trkpt lat="50.69561760252736" lon="3.1447355208521808"><ele>39.0</ele><time>2026-04-17T15:06:50.999Z</time></trkpt><trkpt lat="50.695563777286125" lon="3.144828030008968"><ele>39.0</ele><time>2026-04-17T15:06:51.999Z</time></trkpt><trkpt lat="50.69551410237056" lon="3.1449236741604443"><ele>39.0</ele><time>2026-04-17T15:06:52.999Z</time></trkpt><trkpt lat="50.69546327488766" lon="3.1450201553838264"><ele>39.0</ele><time>2026-04-17T15:06:53.999Z</time></trkpt><trkpt lat="50.69541196711433" lon="3.145108678316023"><ele>39.0</ele><time>2026-04-17T15:06:54.999Z</time></trkpt><trkpt lat="50.69536342855824" lon="3.1452074501867457"><ele>38.833333333333336</ele><time>2026-04-17T15:06:55.999Z</time></trkpt><trkpt lat="50.69532970884899" lon="3.1453152092635146"><ele>38.666666666666664</ele><time>2026-04-17T15:06:56.999Z</time></trkpt><trkpt lat="50.695309720759674" lon="3.145421805663086"><ele>38.5</ele><time>2026-04-17T15:06:57.999Z</time></trkpt><trkpt lat="50.69529529507277" lon="3.145523059775035"><ele>38.33333333333333</ele><time>2026-04-17T15:06:58.999Z</time></trkpt><trkpt lat="50.69525234504449" lon="3.145627868955022"><ele>38.166666666666664</ele><time>2026-04-17T15:06:59.999Z</time></trkpt><trkpt lat="50.695229465710106" lon="3.1457349656198694"><ele>38.0</ele><time>2026-04-17T15:07:00.999Z</time></trkpt><trkpt lat="50.695209851572535" lon="3.1459606696885705"><ele>38.0</ele><time>2026-04-17T15:07:02.999Z</time></trkpt><trkpt lat="50.69520340811112" lon="3.1460724550800636"><ele>38.0</ele><time>2026-04-17T15:07:03.999Z</time></trkpt><trkpt lat="50.69519283465735" lon="3.1461818946206317"><ele>38.0</ele><time>2026-04-17T15:07:04.999Z</time></trkpt><trkpt lat="50.695185548122836" lon="3.1462900284691395"><ele>38.0</ele><time>2026-04-17T15:07:05.999Z</time></trkpt><trkpt lat="50.695179568779466" lon="3.146395445745897"><ele>38.0</ele><time>2026-04-17T15:07:06.999Z</time></trkpt><trkpt lat="50.69516417010284" lon="3.1464963798321604"><ele>38.0</ele><time>2026-04-17T15:07:07.999Z</time></trkpt><trkpt lat="50.69513453470538" lon="3.146669032691173"><ele>37.714285714285715</ele><time>2026-04-17T15:07:09.999Z</time></trkpt><trkpt lat="50.695123721811356" lon="3.1467704866303023"><ele>37.42857142857143</ele><time>2026-04-17T15:07:10.999Z</time></trkpt><trkpt lat="50.69512407395323" lon="3.1468748134854567"><ele>37.142857142857146</ele><time>2026-04-17T15:07:11.999Z</time></trkpt><trkpt lat="50.69512199843566" lon="3.146979883321452"><ele>36.85714285714286</ele><time>2026-04-17T15:07:12.999Z</time></trkpt><trkpt lat="50.69510732752585" lon="3.1470872337634295"><ele>36.57142857142857</ele><time>2026-04-17T15:07:13.999Z</time></trkpt><trkpt lat="50.695096633766056" lon="3.1471870313144037"><ele>36.28571428571429</ele><time>2026-04-17T15:07:14.999Z</time></trkpt><trkpt lat="50.69509136168639" lon="3.1472879917891823"><ele>36.0</ele><time>2026-04-17T15:07:15.999Z</time></trkpt><trkpt lat="50.6950818311764" lon="3.1474789717747917"><ele>35.666666666666664</ele><time>2026-04-17T15:07:17.999Z</time></trkpt><trkpt lat="50.695074999122674" lon="3.1475798484096558"><ele>35.333333333333336</ele><time>2026-04-17T15:07:18.999Z</time></trkpt><trkpt lat="50.69507382328187" lon="3.1476891379048317"><ele>35.0</ele><time>2026-04-17T15:07:19.999Z</time></trkpt><trkpt lat="50.69506626896571" lon="3.1478041124244336"><ele>34.66666666666667</ele><time>2026-04-17T15:07:20.999Z</time></trkpt><trkpt lat="50.695059029592024" lon="3.1479221088582303"><ele>34.333333333333336</ele><time>2026-04-17T15:07:21.999Z</time></trkpt><trkpt lat="50.69504282812754" lon="3.148147452643005"><ele>34.0</ele><time>2026-04-17T15:07:23.999Z</time></trkpt><trkpt lat="50.69503807226299" lon="3.148264672157353"><ele>34.0</ele><time>2026-04-17T15:07:24.999Z</time></trkpt><trkpt lat="50.69502556216114" lon="3.1483818604120004"><ele>34.0</ele><time>2026-04-17T15:07:25.999Z</time></trkpt><trkpt lat="50.69501736929926" lon="3.1485010367468504"><ele>34.0</ele><time>2026-04-17T15:07:26.999Z</time></trkpt><trkpt lat="50.69501501202914" lon="3.1486209142903663"><ele>34.0</ele><time>2026-04-17T15:07:27.999Z</time></trkpt><trkpt lat="50.69500939094582" lon="3.1487457198378555"><ele>34.0</ele><time>2026-04-17T15:07:28.999Z</time></trkpt><trkpt lat="50.69500316376474" lon="3.1488619419439106"><ele>34.0</ele><time>2026-04-17T15:07:29.999Z</time></trkpt><trkpt lat="50.69499939827498" lon="3.1489781137625896"><ele>34.14285714285714</ele><time>2026-04-17T15:07:30.999Z</time></trkpt><trkpt lat="50.69500101034331" lon="3.149086784259797"><ele>34.285714285714285</ele><time>2026-04-17T15:07:31.999Z</time></trkpt><trkpt lat="50.694993687339554" lon="3.149195122600786"><ele>34.42857142857143</ele><time>2026-04-17T15:07:32.999Z</time></trkpt><trkpt lat="50.694984598811246" lon="3.149300824224296"><ele>34.57142857142857</ele><time>2026-04-17T15:07:33.999Z</time></trkpt><trkpt lat="50.69498500832457" lon="3.1494098317537738"><ele>34.714285714285715</ele><time>2026-04-17T15:07:34.999Z</time></trkpt><trkpt lat="50.69498221553907" lon="3.1495148647367115"><ele>34.857142857142854</ele><time>2026-04-17T15:07:35.999Z</time></trkpt><trkpt lat="50.69498683890413" lon="3.1496170370901053"><ele>35.0</ele><time>2026-04-17T15:07:36.999Z</time></trkpt><trkpt lat="50.69497797299181" lon="3.1497203817289834"><ele>35.0</ele><time>2026-04-17T15:07:37.999Z</time></trkpt><trkpt lat="50.694990202904336" lon="3.1498200399660234"><ele>35.0</ele><time>2026-04-17T15:07:38.999Z</time></trkpt><trkpt lat="50.694992565050406" lon="3.1499260845958315"><ele>35.0</ele><time>2026-04-17T15:07:39.999Z</time></trkpt><trkpt lat="50.69497736621834" lon="3.1500274782044064"><ele>35.0</ele><time>2026-04-17T15:07:40.999Z</time></trkpt><trkpt lat="50.694973406364255" lon="3.150215920618691"><ele>35.0</ele><time>2026-04-17T15:07:42.999Z</time></trkpt><trkpt lat="50.694965728295166" lon="3.150575197281239"><ele>34.0</ele><time>2026-04-17T15:07:46.999Z</time></trkpt><trkpt lat="50.694995823507" lon="3.1507153992697363"><ele>34.0</ele><time>2026-04-17T15:07:48.999Z</time></trkpt><trkpt lat="50.694988121895655" lon="3.1508384925619244"><ele>34.0</ele><time>2026-04-17T15:07:50.999Z</time></trkpt><trkpt lat="50.695003772546755" lon="3.1509450362166547"><ele>34.0</ele><time>2026-04-17T15:07:52.999Z</time></trkpt></trkseg><trkseg><trkpt lat="50.69466023275215" lon="3.1556476842909866"><ele>34.25</ele><time>2026-04-17T15:10:34Z</time></trkpt><trkpt lat="50.69466344466685" lon="3.1557741748853143"><ele>34.5</ele><time>2026-04-17T15:10:36Z</time></trkpt><trkpt lat="50.694654917017054" lon="3.15591830430589"><ele>34.75</ele><time>2026-04-17T15:10:38Z</time></trkpt><trkpt lat="50.69464055410539" lon="3.1562211140803416"><ele>35.0</ele><time>2026-04-17T15:10:42Z</time></trkpt><trkpt lat="50.69463277370082" lon="3.156381717013889"><ele>35.0</ele><time>2026-04-17T15:10:44Z</time></trkpt><trkpt lat="50.69461167500201" lon="3.156544311610921"><ele>35.0</ele><time>2026-04-17T15:10:46Z</time></trkpt><trkpt lat="50.69458282459654" lon="3.156708482826962"><ele>35.0</ele><time>2026-04-17T15:10:48Z</time></trkpt><trkpt lat="50.69453467120303" lon="3.1568575717825893"><ele>35.0</ele><time>2026-04-17T15:10:50Z</time></trkpt><trkpt lat="50.694480615162846" lon="3.1570039648920996"><ele>35.0</ele><time>2026-04-17T15:10:52Z</time></trkpt><trkpt lat="50.69441639792046" lon="3.1571589422506547"><ele>35.0</ele><time>2026-04-17T15:10:54Z</time></trkpt><trkpt lat="50.694346117415925" lon="3.157308773995541"><ele>35.0</ele><time>2026-04-17T15:10:56Z</time></trkpt><trkpt lat="50.69427033833568" lon="3.1574566354335682"><ele>35.0</ele><time>2026-04-17T15:10:58Z</time></trkpt><trkpt lat="50.69419581925287" lon="3.1576108803118745"><ele>35.0</ele><time>2026-04-17T15:11:00Z</time></trkpt><trkpt lat="50.6940630770723" lon="3.1579358837928617"><ele>35.0</ele><time>2026-04-17T15:11:03.999Z</time></trkpt><trkpt lat="50.693997653938226" lon="3.1580902219181057"><ele>35.0</ele><time>2026-04-17T15:11:05.999Z</time></trkpt><trkpt lat="50.69394094345921" lon="3.1582628905353975"><ele>35.0</ele><time>2026-04-17T15:11:07.999Z</time></trkpt><trkpt lat="50.69389130464601" lon="3.158438235328607"><ele>35.0</ele><time>2026-04-17T15:11:09.999Z</time></trkpt><trkpt lat="50.69383459876174" lon="3.158620272626786"><ele>35.0</ele><time>2026-04-17T15:11:11.999Z</time></trkpt><trkpt lat="50.693784724771156" lon="3.15879127791833"><ele>35.0</ele><time>2026-04-17T15:11:13.999Z</time></trkpt><trkpt lat="50.693734948787096" lon="3.158961320064285"><ele>35.0</ele><time>2026-04-17T15:11:15.999Z</time></trkpt><trkpt lat="50.69368339924183" lon="3.159136060307795"><ele>35.0</ele><time>2026-04-17T15:11:17.999Z</time></trkpt><trkpt lat="50.69364311678917" lon="3.1592955798393825"><ele>35.25</ele><time>2026-04-17T15:11:19.999Z</time></trkpt><trkpt lat="50.69362795792297" lon="3.159405904129641"><ele>35.5</ele><time>2026-04-17T15:11:21.999Z</time></trkpt><trkpt lat="50.693757282094865" lon="3.159580489467393"><ele>35.75</ele><time>2026-04-17T15:11:25.999Z</time></trkpt><trkpt lat="50.69383294437794" lon="3.159664188196524"><ele>36.0</ele><time>2026-04-17T15:11:27.999Z</time></trkpt><trkpt lat="50.69392810619731" lon="3.159783746825934"><ele>36.0</ele><time>2026-04-17T15:11:29.999Z</time></trkpt><trkpt lat="50.69398253045706" lon="3.159836791667346"><ele>36.0</ele><time>2026-04-17T15:11:30.999Z</time></trkpt><trkpt lat="50.69403689760853" lon="3.159890804937982"><ele>36.0</ele><time>2026-04-17T15:11:31.999Z</time></trkpt><trkpt lat="50.69408925111571" lon="3.1599482891507993"><ele>36.0</ele><time>2026-04-17T15:11:32.999Z</time></trkpt><trkpt lat="50.69414413581281" lon="3.160011135528154"><ele>36.0</ele><time>2026-04-17T15:11:33.999Z</time></trkpt><trkpt lat="50.69420098543352" lon="3.1600782858791554"><ele>36.0</ele><time>2026-04-17T15:11:34.999Z</time></trkpt><trkpt lat="50.69429745887244" lon="3.1601952369859485"><ele>36.0</ele><time>2026-04-17T15:11:36.999Z</time></trkpt><trkpt lat="50.69435087118552" lon="3.160249686751392"><ele>36.0</ele><time>2026-04-17T15:11:37.999Z</time></trkpt><trkpt lat="50.69444776060563" lon="3.160363759069815"><ele>36.0</ele><time>2026-04-17T15:11:39.999Z</time></trkpt><trkpt lat="50.694549866234475" lon="3.1604716460338973"><ele>36.0</ele><time>2026-04-17T15:11:41.999Z</time></trkpt><trkpt lat="50.6946060868016" lon="3.160529760249166"><ele>36.0</ele><time>2026-04-17T15:11:42.999Z</time></trkpt><trkpt lat="50.694754489522815" lon="3.1606770889400484"><ele>36.2</ele><time>2026-04-17T15:11:45.999Z</time></trkpt><trkpt lat="50.69484767486188" lon="3.160797596892363"><ele>36.400000000000006</ele><time>2026-04-17T15:11:47.999Z</time></trkpt><trkpt lat="50.69493963969345" lon="3.1609001643508425"><ele>36.6</ele><time>2026-04-17T15:11:49.999Z</time></trkpt><trkpt lat="50.695033119869834" lon="3.1609901800333855"><ele>36.800000000000004</ele><time>2026-04-17T15:11:51.999Z</time></trkpt><trkpt lat="50.69511988897249" lon="3.161082822270113"><ele>37.0</ele><time>2026-04-17T15:11:53.999Z</time></trkpt><trkpt lat="50.695205757600064" lon="3.161172309552825"><ele>37.4</ele><time>2026-04-17T15:11:55.999Z</time></trkpt><trkpt lat="50.69529149477948" lon="3.1612572241775325"><ele>37.800000000000004</ele><time>2026-04-17T15:11:57.999Z</time></trkpt><trkpt lat="50.695375068043376" lon="3.1613393986569105"><ele>38.2</ele><time>2026-04-17T15:11:59.999Z</time></trkpt><trkpt lat="50.69547246745282" lon="3.1614441941916236"><ele>38.6</ele><time>2026-04-17T15:12:01.999Z</time></trkpt><trkpt lat="50.695565377973764" lon="3.1615383194618305"><ele>39.0</ele><time>2026-04-17T15:12:03.999Z</time></trkpt><trkpt lat="50.695734683628764" lon="3.1617300316901713"><ele>39.0</ele><time>2026-04-17T15:12:07.999Z</time></trkpt><trkpt lat="50.69581928223699" lon="3.1618356793117903"><ele>39.0</ele><time>2026-04-17T15:12:09.999Z</time></trkpt><trkpt lat="50.6959152514582" lon="3.161891014193012"><ele>39.0</ele><time>2026-04-17T15:12:11.999Z</time></trkpt><trkpt lat="50.69601194750692" lon="3.16193631589909"><ele>39.0</ele><time>2026-04-17T15:12:13.999Z</time></trkpt><trkpt lat="50.69610552455382" lon="3.161984830681531"><ele>39.0</ele><time>2026-04-17T15:12:15.998Z</time></trkpt><trkpt lat="50.696192617936966" lon="3.162033572967025"><ele>39.4</ele><time>2026-04-17T15:12:17.998Z</time></trkpt><trkpt lat="50.696276852533835" lon="3.1620990164320255"><ele>39.8</ele><time>2026-04-17T15:12:19.998Z</time></trkpt><trkpt lat="50.69636196915508" lon="3.162160199088293"><ele>40.199999999999996</ele><time>2026-04-17T15:12:21.998Z</time></trkpt><trkpt lat="50.696451762790026" lon="3.1622202229809404"><ele>40.599999999999994</ele><time>2026-04-17T15:12:23.998Z</time></trkpt><trkpt lat="50.69654157099381" lon="3.1622810599790543"><ele>41.0</ele><time>2026-04-17T15:12:26Z</time></trkpt><trkpt lat="50.696688375143566" lon="3.1623739256737737"><ele>41.0</ele><time>2026-04-17T15:12:30Z</time></trkpt><trkpt lat="50.69675938410901" lon="3.1622923575319306"><ele>42.0</ele><time>2026-04-17T15:12:35Z</time></trkpt></trkseg></trk></gpx>